[[{"header":{"parameterUnit":"m.s-1","parameterCategory":1,"la1":30.6,"la2":29.2853,"lo1":-89.7004,"lo2":-87.6739,"dy":0.0162,"dx":0.0183,"nx":112,"ny":82,"refTime":"2023-03-02T06:00:00:Z","depth":0,"parameterNumber":2,"parameterNumberName":"U-component_of_WINDS"},"data":[0.0,0.0,0.0,0.0,0.0,0.0,0.0,0.0,0.0,0.0,0.0,0.0,0.0,0.0,0.0,0.0,0.0,0.0,0.0,0.0,0.0,0.0,0.0,0.0,0.0,0.0,0.0,0.0,0.0,0.0,0.0,0.0,0.0,0.0,0.0,0.0,0.0,0.0,0.0,0.0,0.0,0.0,0.0,0.0,0.0,0.0,0.0,0.0,0.0,0.0,0.0,0.0,0.0,0.0,0.0,0.0,0.0,0.0,0.0,0.0,0.0,0.0,0.0,0.0,0.0,0.0,0.0,0.0,0.0,0.0,0.0,0.0,0.0,0.0,0.0,0.0,0.0,0.0,0.0,0.0,0.0,0.0,0.0,0.0,0.0,0.0,0.0,0.0,0.0,0.0,-3.6149,-3.6754,-3.7285,-3.7524,-3.751,-3.7405,-3.7195,-3.6723,0.0,0.0,0.0,0.0,0.0,0.0,0.0,0.0,0.0,0.0,0.0,0.0,0.0,0.0,0.0,0.0,0.0,0.0,0.0,0.0,0.0,0.0,0.0,0.0,0.0,0.0,0.0,0.0,0.0,0.0,0.0,0.0,0.0,0.0,0.0,0.0,0.0,0.0,0.0,0.0,0.0,0.0,0.0,0.0,0.0,0.0,0.0,0.0,0.0,0.0,0.0,0.0,0.0,0.0,0.0,0.0,0.0,0.0,0.0,0.0,0.0,0.0,0.0,0.0,0.0,0.0,0.0,0.0,0.0,0.0,0.0,0.0,0.0,0.0,0.0,0.0,0.0,0.0,0.0,0.0,0.0,0.0,0.0,0.0,0.0,0.0,0.0,0.0,0.0,0.0,0.0,0.0,0.0,0.0,0.0,0.0,0.0,0.0,0.0,0.0,0.0,0.0,0.0,0.0,-3.6274,-3.7285,-3.7639,-3.7756,-3.751,-3.7089,-3.6785,-3.6723,0.0,0.0,0.0,0.0,0.0,0.0,0.0,0.0,0.0,0.0,0.0,0.0,0.0,0.0,0.0,0.0,0.0,0.0,0.0,0.0,0.0,0.0,0.0,0.0,0.0,0.0,0.0,0.0,0.0,0.0,0.0,0.0,0.0,0.0,0.0,0.0,0.0,0.0,0.0,0.0,0.0,0.0,0.0,0.0,0.0,0.0,0.0,0.0,0.0,0.0,0.0,0.0,0.0,0.0,0.0,0.0,0.0,0.0,0.0,0.0,0.0,0.0,0.0,0.0,0.0,0.0,0.0,0.0,0.0,0.0,0.0,0.0,0.0,0.0,0.0,0.0,0.0,0.0,0.0,0.0,0.0,0.0,0.0,0.0,0.0,0.0,0.0,0.0,0.0,0.0,0.0,0.0,0.0,0.0,0.0,0.0,0.0,0.0,0.0,0.0,0.0,0.0,0.0,-3.6275,-3.6845,-3.7639,-3.7844,-3.7786,-3.7539,-3.6998,-3.6585,-3.629,-3.6718,0.0,0.0,0.0,0.0,0.0,0.0,0.0,0.0,0.0,0.0,0.0,0.0,0.0,0.0,0.0,0.0,0.0,0.0,0.0,0.0,0.0,0.0,0.0,0.0,0.0,0.0,0.0,0.0,0.0,0.0,0.0,0.0,0.0,0.0,0.0,0.0,0.0,0.0,0.0,0.0,0.0,0.0,0.0,0.0,0.0,0.0,0.0,0.0,0.0,0.0,0.0,0.0,0.0,0.0,0.0,0.0,0.0,0.0,0.0,0.0,0.0,0.0,0.0,0.0,0.0,0.0,0.0,0.0,0.0,0.0,0.0,0.0,0.0,0.0,0.0,0.0,0.0,0.0,0.0,0.0,0.0,0.0,0.0,0.0,0.0,0.0,0.0,0.0,0.0,0.0,0.0,0.0,0.0,0.0,0.0,0.0,0.0,0.0,0.0,0.0,0.0,0.0,-3.6692,-3.7191,-3.7756,-3.7857,-3.7786,-3.7539,-3.6907,-3.6352,-3.5913,-3.6537,0.0,0.0,0.0,0.0,0.0,0.0,0.0,0.0,0.0,0.0,0.0,0.0,0.0,0.0,0.0,0.0,0.0,0.0,0.0,0.0,0.0,0.0,0.0,0.0,0.0,0.0,0.0,0.0,0.0,0.0,0.0,0.0,0.0,0.0,0.0,0.0,0.0,0.0,0.0,0.0,0.0,0.0,0.0,0.0,0.0,0.0,0.0,0.0,0.0,0.0,0.0,0.0,0.0,0.0,0.0,0.0,0.0,0.0,0.0,0.0,0.0,0.0,0.0,0.0,0.0,0.0,0.0,0.0,0.0,0.0,0.0,0.0,0.0,0.0,0.0,0.0,0.0,0.0,0.0,0.0,0.0,0.0,0.0,0.0,0.0,0.0,0.0,0.0,0.0,0.0,0.0,0.0,0.0,0.0,0.0,0.0,0.0,0.0,0.0,0.0,0.0,0.0,-3.6353,-3.6844,-3.7464,-3.7756,-3.7786,-3.7539,-3.6569,-3.5944,-3.5913,-3.6197,0.0,0.0,0.0,0.0,0.0,0.0,0.0,0.0,0.0,0.0,0.0,0.0,0.0,0.0,0.0,0.0,0.0,0.0,0.0,0.0,0.0,0.0,0.0,0.0,0.0,0.0,0.0,0.0,0.0,0.0,0.0,0.0,0.0,0.0,0.0,0.0,0.0,0.0,0.0,0.0,0.0,0.0,0.0,0.0,0.0,0.0,0.0,0.0,0.0,0.0,0.0,0.0,0.0,0.0,0.0,0.0,0.0,0.0,0.0,0.0,0.0,0.0,0.0,0.0,0.0,0.0,0.0,0.0,0.0,0.0,0.0,0.0,0.0,0.0,0.0,0.0,0.0,0.0,0.0,0.0,0.0,0.0,0.0,0.0,0.0,0.0,0.0,0.0,0.0,0.0,0.0,0.0,0.0,0.0,0.0,0.0,0.0,0.0,0.0,0.0,0.0,0.0,-3.6244,-3.6828,0.0,-3.7578,-3.7506,-3.7252,-3.6415,-3.58,-3.5479,0.0,0.0,0.0,0.0,0.0,0.0,0.0,0.0,0.0,0.0,0.0,0.0,0.0,0.0,0.0,0.0,0.0,0.0,0.0,0.0,0.0,0.0,0.0,0.0,0.0,0.0,0.0,0.0,0.0,0.0,0.0,0.0,0.0,0.0,0.0,0.0,0.0,0.0,0.0,0.0,0.0,0.0,0.0,0.0,0.0,0.0,0.0,0.0,0.0,0.0,0.0,0.0,0.0,0.0,0.0,0.0,0.0,0.0,0.0,0.0,0.0,0.0,0.0,0.0,0.0,0.0,0.0,0.0,0.0,0.0,0.0,0.0,0.0,0.0,0.0,0.0,0.0,0.0,0.0,0.0,0.0,0.0,0.0,0.0,0.0,0.0,0.0,0.0,0.0,0.0,0.0,0.0,0.0,0.0,0.0,0.0,0.0,0.0,0.0,0.0,0.0,0.0,-3.5514,-3.5977,-3.6538,0.0,-3.7027,-3.6875,-3.6738,-3.6087,-3.5544,-3.5234,0.0,0.0,0.0,0.0,0.0,0.0,0.0,0.0,0.0,0.0,0.0,0.0,0.0,0.0,0.0,0.0,0.0,0.0,0.0,0.0,0.0,0.0,0.0,0.0,0.0,0.0,0.0,0.0,0.0,0.0,0.0,0.0,0.0,0.0,0.0,0.0,0.0,0.0,0.0,0.0,0.0,0.0,0.0,0.0,0.0,0.0,0.0,0.0,0.0,0.0,0.0,0.0,0.0,0.0,0.0,0.0,0.0,0.0,0.0,0.0,0.0,0.0,0.0,0.0,0.0,0.0,0.0,0.0,0.0,0.0,0.0,0.0,0.0,0.0,0.0,0.0,0.0,0.0,0.0,0.0,0.0,0.0,0.0,0.0,0.0,0.0,0.0,0.0,0.0,0.0,0.0,0.0,0.0,0.0,0.0,0.0,0.0,0.0,0.0,0.0,0.0,0.0,-3.5335,-3.5576,-3.5816,-3.6164,-3.6023,-3.5913,-3.5913,-3.5479,-3.5201,0.0,0.0,0.0,0.0,0.0,0.0,0.0,0.0,0.0,0.0,0.0,0.0,0.0,0.0,0.0,0.0,0.0,0.0,0.0,0.0,0.0,0.0,0.0,0.0,0.0,0.0,0.0,0.0,0.0,0.0,0.0,0.0,0.0,0.0,0.0,0.0,0.0,0.0,0.0,0.0,0.0,0.0,0.0,0.0,0.0,0.0,0.0,0.0,0.0,0.0,0.0,0.0,0.0,0.0,0.0,0.0,0.0,0.0,0.0,0.0,0.0,0.0,0.0,0.0,0.0,0.0,0.0,0.0,0.0,0.0,0.0,0.0,0.0,0.0,0.0,0.0,0.0,0.0,0.0,0.0,0.0,0.0,0.0,0.0,0.0,0.0,0.0,0.0,0.0,0.0,0.0,0.0,0.0,0.0,0.0,0.0,0.0,0.0,0.0,0.0,0.0,0.0,0.0,-3.4687,-3.4953,-3.5365,-3.5928,-3.5864,-3.58,-3.5881,-3.5479,-3.5037,-3.4668,0.0,0.0,0.0,0.0,0.0,0.0,0.0,0.0,0.0,0.0,0.0,0.0,0.0,0.0,0.0,0.0,0.0,0.0,0.0,0.0,0.0,0.0,0.0,0.0,0.0,0.0,0.0,0.0,0.0,0.0,0.0,0.0,0.0,0.0,0.0,0.0,0.0,0.0,0.0,0.0,0.0,0.0,0.0,0.0,0.0,0.0,0.0,0.0,0.0,0.0,0.0,0.0,0.0,0.0,0.0,0.0,0.0,0.0,0.0,0.0,0.0,0.0,0.0,0.0,0.0,0.0,0.0,0.0,0.0,0.0,0.0,0.0,0.0,0.0,0.0,0.0,0.0,0.0,0.0,0.0,0.0,0.0,0.0,0.0,0.0,0.0,0.0,0.0,0.0,0.0,0.0,0.0,0.0,0.0,0.0,0.0,0.0,0.0,0.0,0.0,0.0,0.0,-3.4515,-3.4735,-3.5019,-3.5365,-3.5267,-3.5201,-3.5285,-3.5037,-3.4721,-3.4414,0.0,0.0,0.0,0.0,0.0,0.0,0.0,0.0,0.0,0.0,0.0,0.0,0.0,0.0,0.0,0.0,0.0,0.0,0.0,0.0,0.0,0.0,0.0,0.0,0.0,0.0,0.0,0.0,0.0,0.0,0.0,0.0,0.0,0.0,0.0,0.0,0.0,0.0,0.0,0.0,0.0,0.0,0.0,0.0,0.0,0.0,0.0,0.0,0.0,0.0,0.0,0.0,0.0,0.0,0.0,0.0,0.0,0.0,0.0,0.0,0.0,0.0,0.0,0.0,0.0,0.0,0.0,0.0,0.0,0.0,0.0,0.0,0.0,0.0,0.0,0.0,0.0,0.0,0.0,0.0,0.0,0.0,0.0,0.0,0.0,0.0,0.0,0.0,0.0,0.0,0.0,0.0,0.0,0.0,0.0,0.0,0.0,0.0,0.0,0.0,0.0,0.0,-3.4698,-3.4783,-3.4835,-3.4698,-3.4549,-3.4414,-3.4414,-3.4414,-3.4414,-3.4414,0.0,0.0,0.0,0.0,0.0,0.0,0.0,0.0,0.0,0.0,0.0,0.0,0.0,0.0,0.0,0.0,0.0,0.0,0.0,0.0,0.0,0.0,0.0,0.0,0.0,0.0,0.0,0.0,0.0,0.0,0.0,0.0,0.0,0.0,0.0,0.0,0.0,0.0,0.0,0.0,0.0,0.0,0.0,0.0,0.0,0.0,0.0,0.0,0.0,0.0,0.0,0.0,0.0,0.0,0.0,0.0,0.0,0.0,0.0,0.0,-3.9098,0.0,0.0,0.0,0.0,0.0,0.0,0.0,0.0,0.0,0.0,0.0,0.0,0.0,0.0,0.0,0.0,0.0,0.0,0.0,0.0,0.0,0.0,0.0,0.0,0.0,0.0,0.0,0.0,0.0,0.0,0.0,0.0,0.0,0.0,0.0,0.0,0.0,0.0,0.0,0.0,0.0,-3.4481,-3.4631,-3.4731,-3.4698,-3.4664,-3.4631,-3.4631,-3.4481,-3.4414,-3.4414,-3.4414,0.0,0.0,0.0,0.0,0.0,0.0,0.0,0.0,0.0,0.0,0.0,0.0,0.0,0.0,0.0,0.0,0.0,0.0,0.0,0.0,0.0,0.0,0.0,0.0,0.0,0.0,0.0,0.0,0.0,0.0,0.0,0.0,0.0,0.0,0.0,0.0,0.0,0.0,0.0,0.0,0.0,0.0,0.0,0.0,0.0,0.0,0.0,0.0,0.0,0.0,0.0,0.0,0.0,0.0,0.0,0.0,0.0,0.0,0.0,0.0,-3.803,0.0,0.0,0.0,0.0,0.0,0.0,0.0,0.0,0.0,0.0,0.0,0.0,0.0,0.0,0.0,0.0,0.0,0.0,0.0,0.0,0.0,0.0,0.0,0.0,0.0,0.0,0.0,0.0,0.0,0.0,0.0,0.0,0.0,0.0,0.0,0.0,0.0,0.0,0.0,0.0,-3.4414,-3.4616,-3.4783,-3.4698,-3.4698,-3.4698,-3.4698,-3.4515,-3.4414,-3.4414,-3.4414,0.0,0.0,0.0,0.0,0.0,0.0,0.0,0.0,0.0,0.0,0.0,0.0,0.0,0.0,0.0,0.0,0.0,0.0,0.0,0.0,0.0,0.0,0.0,0.0,0.0,0.0,0.0,0.0,0.0,0.0,0.0,0.0,0.0,0.0,0.0,0.0,0.0,0.0,0.0,0.0,0.0,0.0,0.0,0.0,0.0,0.0,0.0,0.0,0.0,0.0,0.0,0.0,0.0,-3.8901,-3.8901,-3.8859,-3.8136,-3.7462,-3.6876,-3.6766,-3.6787,-3.697,-3.7715,0.0,0.0,0.0,0.0,0.0,0.0,0.0,0.0,0.0,0.0,0.0,0.0,0.0,0.0,0.0,0.0,0.0,0.0,0.0,0.0,0.0,0.0,0.0,0.0,-3.4414,-3.4414,0.0,0.0,0.0,0.0,0.0,0.0,0.0,0.0,0.0,0.0,0.0,0.0,-3.4307,-3.4438,-3.4545,-3.4427,-3.4394,-3.4394,-3.4394,-3.4316,-3.4273,-3.4273,-3.4341,-3.4414,0.0,0.0,0.0,0.0,0.0,0.0,0.0,0.0,0.0,0.0,0.0,0.0,0.0,0.0,0.0,0.0,0.0,0.0,0.0,0.0,0.0,0.0,0.0,0.0,0.0,0.0,0.0,0.0,0.0,0.0,0.0,0.0,-3.8222,-3.8098,0.0,0.0,0.0,0.0,0.0,0.0,0.0,0.0,0.0,0.0,0.0,0.0,0.0,-3.7325,-3.7306,-3.7306,-3.7306,-3.7306,-3.7306,-3.7306,-3.7286,-3.6538,-3.6146,-3.6017,-3.5445,0.0,-3.6208,-3.6953,0.0,0.0,0.0,0.0,0.0,0.0,0.0,0.0,0.0,0.0,0.0,0.0,0.0,0.0,0.0,0.0,0.0,0.0,0.0,0.0,0.0,0.0,-3.4664,-3.4664,-3.4515,-3.4414,0.0,-3.4414,-3.4414,-3.4414,-3.4414,0.0,0.0,0.0,0.0,0.0,0.0,0.0,-3.3787,-3.348,-3.3223,-3.3237,-3.3223,-3.3223,-3.3223,-3.3563,-3.3787,-3.3787,-3.4161,-3.4414,-3.4414,-3.4414,0.0,0.0,0.0,0.0,0.0,0.0,0.0,0.0,0.0,0.0,0.0,0.0,0.0,0.0,0.0,0.0,0.0,0.0,0.0,0.0,0.0,0.0,0.0,0.0,0.0,0.0,0.0,0.0,0.0,-3.8037,-3.8175,-3.809,-3.8158,-3.8175,0.0,0.0,0.0,0.0,0.0,0.0,0.0,0.0,0.0,-3.7314,-3.722,-3.7124,-3.7007,-3.7007,-3.7007,-3.7007,-3.7007,-3.7007,-3.697,-3.6468,-3.6118,-3.5868,-3.5385,-3.5255,-3.5446,-3.6174,-3.6489,-3.6522,0.0,0.0,0.0,0.0,-3.7102,-3.6933,-3.5726,-3.5312,0.0,-3.3894,0.0,0.0,0.0,0.0,0.0,0.0,0.0,0.0,0.0,0.0,-3.3452,-3.3452,-3.3387,-3.334,-3.334,-3.334,-3.3456,0.0,-3.3877,-3.3877,-3.3877,0.0,0.0,0.0,0.0,-3.3194,-3.3289,-3.3197,-3.3114,-3.3114,-3.302,-3.3004,-3.3004,-3.3096,-3.3162,-3.3162,-3.3328,-3.3616,-3.3981,-3.3943,-3.4051,0.0,0.0,0.0,0.0,0.0,0.0,0.0,0.0,0.0,0.0,0.0,0.0,0.0,0.0,0.0,0.0,0.0,0.0,0.0,0.0,0.0,0.0,0.0,0.0,0.0,0.0,0.0,0.0,-3.8209,-3.8191,-3.8189,-3.8009,-3.7883,0.0,0.0,0.0,0.0,0.0,0.0,-3.7521,-3.7613,-3.7577,-3.7374,-3.7278,-3.7143,-3.7007,-3.7007,-3.7007,-3.7007,-3.7007,-3.7007,-3.6987,-3.665,-3.628,-3.5885,-3.5543,-3.5195,-3.4932,-3.5495,-3.5727,-3.5777,-3.6324,-3.6539,-3.6539,-3.6539,-3.6539,-3.6372,-3.5198,-3.4774,-3.4581,-3.3379,-3.3095,-3.3245,-3.3184,0.0,0.0,0.0,0.0,-3.2769,-3.2769,-3.272,-3.2672,-3.2576,-3.2544,-3.2544,-3.2513,-3.2481,-3.2658,0.0,-3.3224,-3.3224,-3.3224,0.0,0.0,0.0,0.0,-3.252,-3.266,-3.2729,-3.2688,-3.2672,-3.2595,-3.2533,-3.2517,-3.2495,-3.2489,-3.252,-3.2587,-3.2893,-3.3425,-3.3307,-3.3456,-3.392,0.0,0.0,0.0,0.0,0.0,0.0,0.0,0.0,0.0,0.0,0.0,0.0,0.0,0.0,0.0,0.0,0.0,0.0,0.0,0.0,0.0,0.0,0.0,0.0,0.0,0.0,0.0,0.0,0.0,-3.8201,-3.7517,0.0,0.0,0.0,0.0,-3.6185,-3.6906,-3.7339,-3.7314,-3.768,-3.779,-3.7596,-3.7206,-3.7007,-3.7007,-3.7007,-3.7007,-3.7007,-3.7007,-3.7007,-3.6987,-3.665,-3.628,-3.5885,-3.5543,-3.5195,-3.4899,-3.4932,-3.4965,-3.4965,-3.4998,-3.5015,-3.5015,-3.5015,-3.5015,-3.4855,-3.37,-3.3293,-3.3107,-3.1972,-3.2034,-3.2497,-3.2332,-3.2626,0.0,0.0,-3.2972,-3.2972,-3.2972,-3.3083,-3.3068,-3.2769,-3.2674,-3.2657,-3.2513,-3.2481,-3.2495,0.0,-3.2571,-3.2571,-3.2571,0.0,-3.2495,-3.2556,-3.2161,-3.1861,-3.1861,-3.1589,-3.1367,-3.1205,-3.1308,-3.1338,-3.1205,-3.157,-3.1892,-3.2029,-3.2322,-3.2576,-3.275,-3.262,-3.2539,-3.2582,-3.3209,0.0,0.0,0.0,0.0,0.0,0.0,0.0,0.0,0.0,0.0,0.0,0.0,0.0,0.0,0.0,0.0,0.0,0.0,0.0,0.0,0.0,0.0,0.0,0.0,0.0,0.0,0.0,0.0,-3.6633,-3.6524,0.0,-3.6413,-3.6278,-3.6391,-3.6853,-3.7128,-3.7531,-3.8047,-3.8083,-3.798,-3.7739,-3.7468,-3.7225,-3.6989,-3.7007,-3.7007,-3.7007,-3.7007,-3.7007,-3.7007,-3.6888,-3.6471,-3.589,-3.5776,-3.5407,-3.4899,-3.4899,-3.4899,-3.4899,-3.4899,-3.4899,-3.4899,-3.4899,-3.4899,-3.4739,-3.3588,-3.3182,-3.3013,-3.1866,-3.166,-3.1854,-3.1752,-3.1871,-3.202,-3.202,-3.1961,-3.1901,-3.1901,-3.1766,-3.163,-3.1509,-3.1403,-3.1342,-3.1295,-3.1264,-3.1264,-3.1264,-3.1598,-3.1843,-3.1843,-3.154,-3.144,-3.1986,-3.1551,-3.1202,-3.1322,-3.125,-3.1161,-3.1117,-3.1043,-3.0999,-3.1073,-3.1264,-3.1412,-3.1545,-3.1573,-3.1805,-3.2232,-3.1576,-3.1411,-3.1838,-3.164,-3.098,0.0,0.0,0.0,0.0,0.0,0.0,0.0,0.0,0.0,0.0,0.0,0.0,0.0,0.0,0.0,0.0,0.0,0.0,0.0,0.0,0.0,0.0,0.0,0.0,0.0,0.0,-3.5779,-3.5964,-3.5875,-3.5936,-3.6311,-3.6127,-3.6302,-3.7063,-3.7376,-3.7796,-3.8368,-3.8355,-3.8261,-3.8148,-3.7685,-3.7356,-3.7206,-3.7068,-3.7007,-3.7007,-3.7007,-3.7007,-3.7007,-3.7007,-3.6594,-3.5907,-3.5907,-3.5526,-3.4899,-3.4899,-3.4899,-3.4899,-3.4899,-3.4899,-3.4899,-3.4899,-3.4899,-3.4739,-3.3588,-3.296,-3.2489,-3.1739,-3.1511,-3.1511,-3.1511,-3.1467,-3.1438,-3.1438,-3.138,-3.1307,-3.1307,-3.1176,-3.1029,-3.0969,-3.091,-3.0807,-3.0791,-3.0732,-3.0672,-3.0672,-3.0946,-3.1206,-3.1206,-3.0843,-3.0773,-3.1301,-3.1009,-3.0791,-3.0925,-3.0984,-3.0984,-3.0955,-3.0851,-3.0821,-3.0925,-3.0925,-3.1014,-3.1205,-3.0881,-3.0847,-3.1299,-3.0637,-3.0457,-3.0861,-3.0306,-2.9799,-2.9306,0.0,0.0,0.0,0.0,0.0,0.0,0.0,0.0,0.0,0.0,0.0,0.0,0.0,0.0,0.0,0.0,0.0,0.0,0.0,0.0,0.0,0.0,0.0,-3.5641,-3.5897,-3.608,-3.6311,-3.5642,-3.5592,-3.6671,-3.5836,-3.5668,-3.6758,-3.7572,-3.809,-3.824,-3.8483,-3.867,-3.8789,-3.7826,-3.7393,-3.7596,-3.7186,-3.7007,-3.7007,-3.7007,-3.7007,-3.7007,-3.7007,-3.6594,-3.5907,-3.5907,-3.5526,-3.4899,-3.4899,-3.4899,-3.4899,-3.4899,-3.4899,-3.4899,-3.4899,-3.4899,-3.4699,-3.3588,-3.2477,-3.1524,-3.1511,-3.1511,-3.1511,-3.1511,-3.1409,-3.1307,-3.1307,-3.1307,-3.1307,-3.1307,-3.1409,-3.1467,-3.1322,-3.1307,-3.1263,-3.1132,-3.0955,-3.0791,-3.0791,-3.0702,-3.0598,-3.0598,-3.0598,-3.0598,-3.0598,-3.0598,0.0,-3.0598,-3.0732,-3.0762,-3.0612,-3.0732,-3.0732,-3.0598,-3.0598,-3.0732,-3.1014,-3.0251,-2.9856,-3.0011,-2.9825,-2.9654,-2.9529,-2.9304,-2.922,-2.9205,0.0,0.0,0.0,0.0,0.0,0.0,0.0,0.0,0.0,0.0,0.0,0.0,0.0,0.0,0.0,0.0,0.0,0.0,0.0,0.0,0.0,0.0,-3.4178,-3.5027,-3.4564,-3.4278,-3.4624,-3.4587,-3.4884,-3.5764,-3.5775,-3.6313,-3.7778,-3.8096,-3.8496,-3.9102,-3.9031,-3.8778,-3.8373,-3.7913,-3.7504,-3.7185,-3.7068,-3.7007,-3.7007,-3.7007,-3.7007,-3.7007,-3.7007,-3.6594,-3.5907,-3.5907,-3.5526,-3.4899,-3.4899,-3.4899,-3.4899,-3.4899,-3.4899,-3.4899,-3.4899,-3.4643,-3.4209,-3.3459,-3.2734,-3.2079,-3.164,-3.1511,-3.1511,-3.1511,-3.1467,-3.1438,-3.1438,-3.1438,-3.1438,-3.1438,-3.1409,-3.1351,-3.1307,-3.1234,-3.1132,-3.1117,-3.1043,-3.0984,-3.0821,-3.0762,-3.0702,-3.0612,-3.0598,-3.0642,-3.0732,-3.0672,0.0,-3.0925,-3.0791,-3.0672,-3.0732,-3.0702,-3.0538,-3.0251,-3.0672,-3.0657,-2.9964,-3.0085,-3.019,-3.0206,-2.9012,-2.8026,-2.7364,-2.7283,-2.728,0.0,0.0,0.0,0.0,0.0,0.0,0.0,0.0,0.0,0.0,0.0,0.0,0.0,0.0,0.0,0.0,0.0,0.0,0.0,0.0,0.0,0.0,-3.3615,-3.3931,-3.4552,-3.4144,-3.3858,-3.4099,-3.464,-3.5299,-3.6091,-3.6628,-3.7437,-3.8751,-3.8845,-3.9045,-3.9476,-3.9269,-3.8923,-3.8468,-3.8132,-3.7739,-3.7262,-3.7164,-3.7085,-3.7007,-3.7007,-3.7007,-3.7007,-3.7007,-3.6594,-3.5907,-3.5907,-3.5526,-3.4899,-3.4899,-3.4899,0.0,0.0,0.0,0.0,0.0,-3.4546,-3.4009,-3.3407,-3.2841,-3.2315,-3.1697,-3.1511,-3.1511,-3.1511,-3.1511,-3.1511,-3.1511,-3.1511,-3.1511,-3.1511,-3.1438,-3.138,-3.138,-3.1336,-3.1278,-3.1278,-3.122,-3.1161,-3.1029,-3.0969,0.0,-3.0821,-3.0732,-3.0702,-3.0791,-3.0791,-3.0821,-3.0895,-3.0821,-3.0791,-3.0791,-3.0791,-3.0702,-3.0417,-3.0568,0.0,0.0,0.0,-2.9435,-2.9341,-2.8352,0.0,0.0,0.0,-2.6782,-2.6499,0.0,0.0,0.0,-2.7507,-2.7595,0.0,0.0,0.0,0.0,0.0,0.0,0.0,0.0,0.0,0.0,0.0,0.0,0.0,0.0,0.0,0.0,-3.3726,-3.3855,-3.4245,-3.4409,-3.4477,-3.4477,-3.5319,-3.6254,-3.7148,-3.7887,-3.8657,-3.9533,-3.9589,-3.9564,-3.9508,0.0,0.0,0.0,0.0,-3.7998,-3.7596,-3.7393,-3.7201,-3.7029,-3.7007,-3.7007,-3.7007,-3.7007,-3.6594,-3.5907,-3.5907,-3.5526,-3.4899,-3.4899,-3.4899,-3.4899,-3.4899,-3.4899,-3.4899,-3.4899,-3.4594,-3.4084,-3.3433,0.0,0.0,-3.1726,-3.1511,-3.1511,-3.1511,-3.1511,-3.1511,-3.1511,-3.1511,-3.1511,-3.1511,-3.1511,-3.1511,-3.1511,-3.1511,-3.1511,-3.1511,-3.1409,-3.1322,-3.1307,-3.1205,-3.1102,-3.1102,-3.0955,-3.0821,-3.0851,-3.0955,-3.0955,-3.0732,-3.0851,-3.0925,-3.0851,0.0,0.0,-3.0642,-3.0251,-2.9931,-2.9808,-2.8853,-2.8189,-2.7941,-2.7875,-2.7743,-2.7417,-2.7417,-2.7095,-2.6499,-2.6499,-2.6499,-2.6499,-2.7002,-2.7228,0.0,0.0,0.0,0.0,0.0,0.0,0.0,0.0,0.0,0.0,0.0,0.0,0.0,0.0,0.0,-3.3657,-3.3847,-3.4023,-3.4269,-3.5037,-3.5578,-3.5578,-3.5762,-3.6479,-3.7925,-3.8206,-3.8657,-3.9533,-3.9589,-3.9589,-3.9577,-3.9335,-3.9027,-3.8655,-3.8344,-3.8017,-3.7595,-3.741,-3.7278,-3.7239,0.0,0.0,-3.7007,-3.7007,-3.6594,-3.5907,-3.5907,-3.5526,-3.4899,-3.4899,-3.4899,-3.4899,-3.4899,-3.4899,-3.4899,-3.4899,-3.4828,-3.4594,-3.3563,-3.3145,-3.2879,-3.1853,-3.1511,-3.1511,-3.1511,-3.1511,0.0,-3.1511,-3.1511,-3.1511,-3.1511,-3.1511,-3.1511,-3.1511,-3.1511,-3.1511,-3.1511,-3.1467,-3.1438,-3.1322,-3.1292,-3.1263,-3.1263,-3.0999,-3.0881,-3.1161,-3.0896,-3.0851,-3.1263,-3.0583,-3.0342,-3.1131,-3.016,-2.9512,-2.9591,-2.9529,-2.9044,-2.8072,-2.8287,-2.8157,-2.7469,-2.7941,-2.7762,-2.6871,-2.685,-2.6748,-2.6499,-2.6499,-2.6499,-2.6499,-2.66,-2.665,0.0,0.0,0.0,0.0,0.0,0.0,0.0,0.0,0.0,0.0,0.0,-3.3393,0.0,0.0,-3.3509,-3.3807,-3.3934,-3.4111,-3.4416,-3.5297,-3.5897,-3.5897,-3.661,-3.7418,-3.8225,-3.8694,-3.9138,-3.957,-3.9589,-3.9589,-3.9589,-3.947,-3.9137,-3.8609,-3.8569,-3.8201,-3.7466,-3.7447,-3.7353,-3.7143,-3.7046,-3.7007,-3.7007,-3.7007,-3.6594,-3.5907,-3.5907,-3.5526,-3.4899,-3.4899,-3.4899,-3.4899,-3.4899,-3.4899,-3.4899,-3.4899,-3.4899,-3.4739,-3.3588,-3.3182,-3.3013,-3.1866,-3.1511,-3.1511,-3.1511,-3.1511,-3.1511,-3.1511,-3.1511,-3.1511,-3.1511,-3.1511,-3.1511,-3.1511,-3.1511,-3.1511,-3.1511,-3.1511,-3.1467,-3.1409,-3.1409,-3.1409,-3.1409,-3.1205,-3.0984,-3.0836,-3.0358,-3.0101,-3.0282,-2.9917,-2.9811,-3.0267,-2.9701,-2.931,-2.931,-2.8719,-2.7971,-2.7171,-2.7418,-2.7386,-2.6887,-2.7366,-2.7356,-2.6714,-2.6624,-2.6555,-2.6499,-2.6499,-2.6499,-2.6499,-2.6499,-2.6499,0.0,0.0,0.0,0.0,0.0,0.0,0.0,0.0,-3.3393,-3.3393,-3.3393,-3.3393,-3.3393,-3.3437,-3.3577,-3.3934,-3.4036,-3.4241,-3.4783,-3.5597,-3.6197,-3.6348,-3.7512,-3.8375,-3.8544,-3.9195,-3.9589,-3.9589,-3.9589,-3.9589,-3.9589,-3.9589,-3.9309,-3.8673,-3.8833,-3.843,-3.7428,-3.7576,-3.7484,-3.7124,-3.7085,-3.7066,-3.7066,-3.7027,-3.6594,-3.589,-3.5754,-3.5391,-3.4899,-3.4899,-3.4899,-3.4899,-3.4899,-3.4899,-3.4899,-3.4899,-3.4828,-3.4594,-3.3563,-3.3145,-3.2879,-3.1853,-3.1511,-3.1511,-3.1511,-3.1511,-3.1511,-3.1511,-3.1511,-3.1511,-3.1511,-3.1511,-3.1511,-3.1511,-3.1511,-3.1511,-3.1511,-3.1511,-3.1511,-3.1511,-3.1511,-3.1511,-3.1511,-3.1307,-3.1014,-3.0583,-3.0131,-2.9749,-2.9588,-2.9515,-2.9501,-2.9515,-2.9202,-2.8858,-2.865,-2.7665,-2.6937,-2.6536,-2.6549,-2.6505,-2.646,-2.6768,-2.6896,-2.6829,-2.6692,-2.6636,-2.6521,-2.6521,-2.6521,-2.6499,-2.6499,-2.6499,-3.322,-3.3896,-3.4247,-3.3512,-3.39,-3.428,0.0,0.0,-3.3393,-3.3393,-3.3393,-3.3393,-3.3393,-3.3549,-3.3739,-3.3959,-3.4148,-3.4619,-3.5601,-3.6453,-3.7242,-3.7943,-3.8188,-3.8601,-3.9383,-3.9533,-3.9589,-3.9589,-3.9589,-3.9589,-3.9589,-3.9589,-3.9367,-3.8877,-3.8877,-3.8559,-3.7846,-3.7864,-3.7739,-3.7522,-3.7353,-3.7259,-3.7259,-3.7085,-3.6594,-3.5864,-3.527,-3.4954,-3.4899,-3.4899,-3.4899,-3.4899,-3.4899,-3.4899,-3.4899,-3.4899,-3.4594,-3.4084,-3.3433,-3.2895,-3.2382,-3.1726,-3.1511,-3.1511,-3.1511,-3.1511,-3.1511,-3.1511,-3.1511,-3.1511,-3.1511,-3.1511,-3.1511,-3.1511,-3.1511,-3.1511,-3.1511,-3.1511,-3.1511,-3.1511,-3.1511,-3.1511,-3.1511,-3.0999,-3.0777,-3.1292,-3.1117,-3.1014,-3.1205,-3.0101,-2.9608,-3.0283,-2.8359,-2.678,-2.6235,-2.608,-2.5947,-2.5884,-2.5884,-2.6151,-2.6661,-2.6707,-2.6882,-2.7222,-2.7201,-2.7032,-2.6692,-2.6692,-2.6624,-2.6499,-2.6499,-2.6499,-3.3882,-3.4338,0.0,0.0,-3.4353,-3.4389,-3.3592,-3.3393,-3.3393,-3.3393,-3.3393,-3.3393,-3.3393,-3.3563,-3.3766,0.0,-3.4173,-3.4661,-3.5762,-3.6603,-3.7411,-3.8206,-3.8751,-3.9195,-3.9552,-3.9589,-3.9589,-3.9589,-3.9589,-3.9589,-3.9589,-3.9589,-3.938,-3.8906,-3.891,-3.8575,-3.7899,-3.7899,-3.7811,-3.7613,-3.7391,-3.7297,-3.7297,-3.7085,-3.6594,-3.5864,-3.5195,-3.4899,-3.4899,-3.4899,-3.4899,-3.4899,-3.4899,-3.4899,-3.4899,-3.4899,-3.4546,-3.4009,-3.3407,-3.2841,-3.2315,-3.1697,-3.1511,-3.1511,-3.1511,-3.1511,-3.1511,-3.1511,-3.1511,-3.1511,-3.1511,-3.1511,-3.1511,-3.1511,-3.1511,-3.1511,-3.1511,-3.1511,-3.1511,-3.1511,-3.1511,-3.1511,-3.1511,-3.1278,-3.1029,-3.0925,-3.0494,-3.007,-2.9794,-2.8959,-2.8195,-2.7807,-2.68,-2.6073,-2.5806,-2.5511,-2.5328,-2.5328,-2.5328,-2.5589,-2.6151,-2.6407,-2.6752,-2.7302,-2.718,-2.7045,-2.6863,-2.6863,-2.6794,-2.6624,-2.6624,-2.6555,-3.4191,0.0,0.0,-3.4722,-3.4674,-3.4389,-3.3592,-3.3393,-3.3393,-3.3393,-3.3393,-3.3393,-3.3393,-3.3563,-3.3766,-3.3972,-3.4358,-3.5016,-3.6081,-3.6911,-3.7737,-3.8563,-3.9214,-3.9589,-3.9589,-3.9589,-3.9589,-3.9589,-3.9589,-3.9589,-3.9589,-3.9589,-3.938,-3.8906,-3.891,-3.8575,-3.7899,-3.7969,-3.7881,-3.7685,-3.7484,-3.7372,-3.7372,-3.6913,-3.6392,-3.5864,-3.5195,-3.4899,-3.4899,-3.4899,-3.4899,-3.4899,-3.4899,-3.4899,-3.4899,-3.4899,-3.4546,-3.4009,-3.3407,-3.2841,-3.2315,-3.1697,-3.1511,-3.1511,-3.1511,-3.1511,-3.1511,-3.1511,-3.1511,-3.1511,-3.1511,-3.1511,-3.1511,-3.1511,-3.1511,-3.1511,-3.1511,-3.1511,-3.1511,-3.1511,-3.1511,-3.1511,-3.1511,-3.1511,-3.1218,-3.0351,-2.9965,-2.9527,-2.8844,-2.8147,-2.7145,-2.5734,-2.5589,-2.5524,-2.5336,-2.4975,-2.4756,-2.4756,-2.4756,-2.4988,-2.5563,-2.6011,-2.6518,-2.7122,-2.7124,-2.7113,-2.7079,-2.7079,-2.693,-2.6679,-2.6679,-2.6624,0.0,0.0,-3.4692,-3.4993,-3.4826,-3.4389,-3.3592,-3.3393,-3.3393,-3.3393,-3.3393,-3.3393,-3.3393,-3.3563,-3.3766,-3.3972,-3.4822,-3.5837,-3.6906,-3.7756,-3.8582,-3.9458,-3.957,-3.9589,0.0,-3.9589,-3.9589,-3.9589,-3.9589,-3.9589,-3.9589,-3.9589,-3.938,-3.8906,-3.891,-3.8575,-3.7899,-3.8089,-3.809,-3.7881,-3.7685,-3.7577,-3.7558,-3.6457,-3.5912,-3.5864,-3.5195,-3.4899,-3.4899,-3.4899,-3.4899,-3.4899,-3.4899,-3.4899,-3.4899,-3.4899,-3.4546,-3.4009,-3.3407,-3.2841,-3.2315,-3.1697,-3.1511,-3.1511,-3.1511,-3.1511,-3.1511,-3.1511,-3.1511,-3.1511,-3.1511,-3.1511,-3.1511,-3.1511,-3.1511,-3.1511,-3.1511,-3.1511,-3.1511,-3.1511,-3.1511,-3.1511,-3.1511,-3.1511,-3.1041,-2.9726,-3.007,-3.0241,-2.9566,-2.8438,-2.7014,-2.5222,-2.5018,-2.4796,-2.4187,-2.4122,-2.4122,-2.4122,-2.4122,-2.44,-2.5005,-2.555,-2.608,-2.6719,-2.7216,-2.7436,-2.7302,-2.7302,-2.71,-2.6679,-2.6679,-2.6624,0.0,0.0,-3.4282,-3.4665,-3.4677,-3.4389,-3.3592,-3.3393,-3.3393,-3.3393,-3.3393,-3.3393,-3.3393,-3.3563,-3.3931,-3.4674,-3.5194,-3.6061,-3.7676,-3.8131,-3.8619,-3.9495,-3.9589,0.0,0.0,0.0,0.0,-3.9589,-3.9589,-3.9589,-3.9589,-3.9589,-3.938,-3.8906,-3.891,-3.8637,-3.8089,-3.8175,-3.8107,-3.7917,-3.7558,-3.7203,-3.6851,-3.6203,-3.5776,-3.5526,-3.5078,-3.4899,-3.4899,-3.4899,-3.4899,-3.4899,-3.4899,-3.4899,-3.4899,-3.4899,-3.4546,-3.4009,-3.3407,-3.2841,-3.2315,-3.1697,-3.1511,-3.1511,-3.1511,-3.1511,-3.1511,-3.1511,-3.1511,-3.1511,-3.1511,-3.1511,-3.1511,-3.1511,-3.1511,-3.1511,-3.1511,-3.1511,-3.1511,-3.1511,-3.1511,-3.1511,-3.1511,-3.1122,-3.0393,-2.9102,-2.9086,-2.9022,-2.8404,-2.7948,-2.7018,-2.5185,-2.5001,-2.4747,-2.4154,-2.4083,-2.4083,-2.4083,-2.4083,-2.4374,-2.4979,-2.5524,-2.6086,-2.6693,-2.7236,-2.7503,-2.7436,-2.7436,-2.7335,-2.71,-2.71,-2.693,0.0,-3.3526,-3.3749,-3.4439,-3.4389,-3.4045,-3.352,-3.3393,-3.3393,-3.3393,-3.3393,-3.3393,-3.3393,-3.3728,-3.4288,-3.5066,-3.5816,-3.6758,-3.8114,-3.8563,-3.8957,-3.9533,-3.9589,-3.9589,0.0,0.0,0.0,-3.9589,-3.9589,-3.9589,-3.9589,-3.9589,-3.938,-3.8906,-3.891,-3.8667,-3.8209,-3.8209,-3.8055,-3.7793,-3.7539,-3.7087,-3.6502,-3.6075,-3.5727,-3.5379,-3.5048,-3.4899,-3.4899,-3.4899,-3.4899,-3.4899,-3.4899,-3.4899,-3.4899,-3.4899,-3.4546,-3.4009,-3.3407,-3.2841,-3.2315,-3.1697,-3.1511,-3.1511,-3.1511,-3.1511,-3.1511,-3.1511,-3.1511,-3.1511,-3.1511,-3.1511,-3.1511,-3.1511,-3.1511,-3.1511,-3.1511,-3.1511,-3.1511,-3.1511,-3.1511,-3.1421,-3.1182,-3.0417,-2.9535,-2.8727,-2.8206,-2.7768,-2.7389,-2.7142,-2.6494,-2.5145,-2.4806,-2.4534,-2.4112,-2.4083,-2.4083,-2.4083,-2.4083,-2.4282,-2.4648,-2.521,-2.5785,-2.636,-2.6935,-2.7327,-2.749,-2.749,-2.7436,-2.7302,-2.7302,-2.71,-3.3125,-3.3136,-3.3071,-3.4243,-3.3973,-3.3393,-3.3393,-3.3393,-3.3393,-3.3393,-3.3393,-3.3411,0.0,0.0,-3.4772,-3.5242,-3.6666,-3.7872,-3.8296,-3.9082,-3.9589,0.0,0.0,0.0,0.0,0.0,0.0,-3.9589,0.0,-3.9589,-3.9589,-3.9596,-3.9367,-3.8906,-3.8896,-3.867,-3.8209,-3.8192,-3.7986,-3.7595,-3.7594,-3.7166,-3.6461,-3.6075,-3.5727,-3.5356,-3.5048,-3.4899,-3.4899,-3.4899,-3.4899,-3.4899,-3.4899,-3.4899,-3.4899,-3.4899,-3.4546,-3.3958,-3.3397,-3.2841,-3.2315,-3.1697,-3.1511,-3.1511,-3.1511,-3.1511,-3.1511,-3.1511,-3.1511,-3.1511,-3.1511,-3.1511,-3.1511,-3.1511,-3.1511,-3.1511,-3.1511,-3.1511,-3.1511,-3.1511,-3.1481,-3.1241,-3.0567,-2.9415,-2.8592,-2.8547,-2.7512,-2.6721,-2.6709,-2.6176,-2.5577,-2.5061,-2.4476,-2.4112,-2.4083,-2.4083,-2.4083,-2.4083,-2.4083,-2.4083,-2.4083,-2.4661,-2.5254,-2.5741,-2.6373,-2.6935,-2.7451,-2.7477,-2.7436,-2.7302,-2.7302,-2.71,-3.2424,-3.2694,-3.2945,-3.3539,-3.3556,-3.3393,-3.3393,-3.3393,-3.3393,-3.3393,-3.3393,-3.3592,0.0,0.0,0.0,-3.6814,-3.7561,0.0,-3.9139,-3.9458,0.0,-3.9589,0.0,-3.9589,-3.9589,-3.9589,0.0,0.0,-3.9589,-3.9589,-3.9589,-3.9419,-3.9188,-3.8925,-3.8713,-3.8481,-3.8209,-3.7898,-3.7703,-3.7613,-3.7298,-3.6756,-3.6054,-3.595,-3.5594,-3.5024,-3.4947,-3.4899,-3.4899,-3.4899,-3.4899,-3.4899,-3.4899,-3.4899,-3.4899,-3.4899,-3.4292,-3.3423,-3.3235,-3.2841,-3.2315,-3.1697,-3.1511,-3.1511,-3.1511,-3.1511,-3.1511,-3.1511,-3.1511,-3.1511,-3.1511,-3.1511,-3.1511,-3.1511,-3.1511,-3.1511,-3.1511,-3.1511,-3.1511,-3.1511,-3.1092,-3.0567,-2.9924,-2.9146,-2.8427,-2.7944,-2.7578,-2.7203,-2.6762,-2.6176,-2.5577,-2.5061,-2.4863,-2.4591,-2.4141,-2.4083,-2.4083,-2.4083,-2.4083,-2.4083,-2.4083,-2.4661,-2.507,-2.5214,-2.6196,-2.6771,-2.6896,-2.7327,-2.7503,-2.7469,-2.7469,-2.7335,-3.1985,-3.2299,-3.2684,-3.3052,-3.3147,-3.3178,-3.3364,-3.3393,-3.3502,-3.3846,-3.3936,0.0,0.0,0.0,0.0,0.0,0.0,0.0,-3.9496,-3.9589,-3.9589,0.0,-3.9589,0.0,-3.9589,-3.9589,-3.9589,0.0,-3.9589,-3.9589,-3.9589,-3.9349,-3.912,-3.891,-3.8634,-3.8401,-3.8209,-3.7986,-3.7775,-3.7613,-3.7373,-3.6779,-3.5907,-3.5907,-3.5526,-3.4899,0.0,-3.4899,-3.4899,-3.4899,-3.4899,-3.4899,-3.4899,-3.4899,-3.4899,-3.4899,-3.4341,-3.3553,-3.3303,-3.2841,-3.2315,-3.1697,-3.1511,-3.1511,-3.1511,-3.1511,-3.1511,-3.1511,-3.1511,-3.1511,-3.1511,-3.1511,-3.1511,-3.1511,-3.1511,-3.1511,-3.1511,-3.1511,-3.1406,-3.1122,-3.0552,-2.9894,-2.9265,-2.8618,-2.8034,-2.766,-2.7382,-2.7086,-2.6747,-2.6404,-2.5987,-2.5398,-2.5342,-2.502,-2.4171,-2.4345,-2.4476,-2.4476,-2.4476,-2.4607,-2.485,-2.516,-2.534,-2.5342,-2.5993,-2.6435,-2.6706,-2.7,-2.7288,-2.749,-2.749,-2.7436,-3.1694,-3.2073,-3.2526,-3.2875,-3.3077,-3.3277,-3.3641,-3.3719,-3.3918,-3.4609,0.0,-3.5007,-3.582,-3.659,-3.7268,-3.7778,0.0,-3.9152,-3.954,-3.9589,-3.9589,-3.9589,-3.9589,-3.9589,-3.9589,-3.9589,-3.9589,-3.9589,-3.9589,-3.9589,-3.9589,-3.9322,-3.9045,-3.8803,-3.8572,-3.8368,-3.8209,-3.8175,-3.7986,-3.7649,-3.7613,-3.7034,-3.5972,-3.5972,-3.5594,-3.4923,-3.4923,0.0,-3.4899,-3.4899,-3.4899,-3.4899,-3.4899,-3.4899,-3.4899,-3.4899,-3.4546,-3.4009,-3.3407,-3.2841,-3.2315,-3.1697,-3.1511,-3.1511,-3.1511,-3.1511,-3.1511,-3.1511,-3.1511,-3.1511,-3.1511,-3.1511,-3.1511,-3.1511,-3.1511,-3.1511,-3.1511,-3.1436,-3.1197,-3.0612,-2.9939,-2.9265,-2.8697,-2.8049,-2.76,-2.76,-2.7152,-2.6814,-2.6814,-2.6669,-2.6377,-2.5864,-2.5783,-2.5412,-2.4419,-2.4806,-2.5118,-2.5118,-2.5033,-2.5216,-2.5687,-2.5632,-2.5562,-2.5578,-2.5659,-2.5955,-2.6484,-2.6562,-2.6857,-2.7385,-2.7385,-2.7358,-3.162,-3.2474,-3.3354,-3.371,-3.4541,-3.5307,-3.5372,-3.5369,0.0,0.0,0.0,-3.5838,-3.6651,-3.7214,0.0,-3.8563,0.0,0.0,0.0,0.0,-3.9589,0.0,0.0,0.0,0.0,0.0,0.0,0.0,0.0,-3.9589,-3.9589,-3.9188,-3.8758,-3.834,-3.8274,-3.8241,-3.8209,-3.8056,-3.7916,-3.7846,-3.7685,-3.7148,-3.6312,-3.6312,-3.5859,-3.5065,-3.5065,0.0,-3.4899,-3.4899,-3.4899,-3.4899,-3.4899,-3.4899,-3.4899,-3.4899,-3.4546,-3.4009,-3.3407,-3.2841,-3.2315,-3.1697,-3.1511,-3.1511,-3.1511,-3.1511,-3.1511,-3.1511,-3.1511,-3.1511,-3.1511,-3.1511,-3.1511,-3.1511,-3.1511,-3.1511,-3.1511,-3.1062,-3.0657,-3.0522,-2.9564,-2.8742,-2.8622,-2.8049,-2.76,-2.76,-2.7524,-2.7433,-2.7433,-2.6575,-2.5933,-2.581,-2.5783,-2.5728,-2.5522,-2.5605,-2.566,-2.566,-2.5244,-2.5033,-2.5132,-2.4664,-2.4371,-2.4389,-2.4892,-2.5205,-2.5293,-2.5746,-2.6269,-2.685,-2.685,-2.7079,-3.2528,-3.3162,-3.3838,-3.4217,-3.49,-3.5539,-3.5754,0.0,0.0,0.0,-3.6417,-3.6671,-3.7484,0.0,0.0,0.0,0.0,0.0,0.0,0.0,0.0,0.0,0.0,0.0,0.0,0.0,0.0,0.0,0.0,-3.954,-3.9406,-3.8946,-3.8544,-3.8209,-3.8209,-3.8209,-3.8209,-3.8089,-3.8003,-3.7917,-3.7541,-3.7054,-3.6374,-3.6178,-3.5739,-3.5088,-3.5088,0.0,-3.4899,-3.4899,-3.4899,-3.4899,-3.4899,-3.4899,-3.4899,-3.4899,-3.4739,-3.4448,-3.3866,-3.3293,-3.2707,-3.2132,-3.1754,-3.1511,-3.1511,-3.1511,-3.1511,-3.1511,-3.1511,-3.1511,-3.1511,-3.1511,-3.1511,-3.1511,-3.1511,-3.1511,-3.1511,-3.0957,-3.0417,-3.0088,-2.925,-2.8487,-2.8128,-2.7809,-2.76,-2.76,-2.76,-2.76,-2.76,-2.7086,-2.6628,-2.631,-2.6549,-2.6481,-2.5837,-2.6095,-2.6256,-2.6256,-2.6028,-2.6028,-2.6336,-2.6095,-2.5769,-2.5453,-2.5743,-2.5863,-2.5889,-2.6145,-2.6425,-2.672,-2.672,-2.6678,-3.3406,-3.3806,-3.4332,-3.4639,-3.5153,-3.5668,-3.6061,-3.6161,0.0,0.0,-3.7267,-3.7448,-3.8082,0.0,0.0,0.0,0.0,0.0,0.0,0.0,0.0,0.0,0.0,0.0,0.0,0.0,0.0,0.0,0.0,0.0,-3.9161,-3.8722,-3.8417,-3.8209,-3.8209,-3.8209,-3.8209,-3.8209,-3.8124,-3.7951,-3.7486,-3.6997,-3.6478,-3.6088,-3.5639,-3.5198,-3.5198,0.0,0.0,-3.4947,-3.4923,-3.4899,-3.4899,-3.4899,-3.4899,-3.4899,-3.4899,-3.4828,-3.43,-3.379,-3.3303,-3.2749,-3.2092,-3.1511,-3.1511,-3.1511,-3.1511,-3.1511,-3.1511,-3.1511,-3.1511,-3.1511,-3.1511,-3.1511,-3.1511,-3.1511,-3.1511,-3.0853,-3.0163,-2.9696,-2.8921,-2.8203,-2.769,-2.76,-2.76,-2.76,-2.76,-2.76,-2.76,-2.76,-2.7408,-2.6945,-2.7331,-2.7229,-2.6283,-2.6616,-2.6893,-2.6893,-2.6774,-2.6904,-2.7382,-2.728,-2.6982,-2.651,-2.651,-2.6499,-2.6512,-2.6512,-2.6577,-2.6685,-2.6685,-2.6526,-3.3406,-3.4237,-3.5103,-3.5143,-3.5946,-3.6863,-3.7255,0.0,0.0,-3.7997,-3.81,-3.8118,-3.8191,-3.8354,-3.8572,0.0,0.0,-3.9283,0.0,0.0,0.0,0.0,0.0,0.0,0.0,0.0,0.0,0.0,0.0,0.0,-3.8958,-3.8649,-3.8417,-3.8209,-3.8209,-3.8209,-3.8209,-3.8209,-3.8192,-3.8175,-3.7703,-3.7265,-3.6841,-3.6451,-3.5954,-3.5469,-3.5469,0.0,0.0,-3.5065,-3.4994,-3.4899,-3.4899,-3.4899,-3.4899,-3.4899,-3.4899,-3.4828,-3.43,-3.4059,-3.3933,-3.3319,-3.2394,-3.1511,-3.1511,-3.1511,-3.1511,-3.1511,-3.1511,-3.1511,-3.1511,-3.1511,-3.1511,-3.1511,-3.1511,-3.1511,-3.1511,-3.0552,-2.9681,-2.9621,-2.8573,-2.7675,-2.76,-2.76,-2.76,-2.76,-2.76,-2.76,-2.76,-2.76,-2.7575,-2.7524,-2.7575,-2.7575,-2.7433,-2.7484,-2.7524,-2.7524,-2.6982,-2.6721,-2.6788,-2.6256,-2.5946,-2.5864,-2.5864,-2.5865,-2.5867,-2.5867,-2.6162,-2.6707,-2.6707,-2.6957,-3.4721,-3.5275,-3.5856,-3.5856,-3.6554,-3.7302,-3.7469,0.0,-3.7967,-3.8157,-3.8209,-3.8209,-3.8209,-3.8274,-3.8613,-3.9475,0.0,0.0,0.0,0.0,0.0,0.0,0.0,0.0,0.0,0.0,0.0,0.0,0.0,0.0,-3.8947,-3.8528,-3.8272,-3.8209,-3.8209,-3.8209,-3.8209,-3.8209,-3.8209,-3.8192,-3.7468,-3.7038,-3.688,-3.6199,-3.5734,-3.5492,-3.5492,0.0,0.0,-3.5222,-3.5198,-3.5152,-3.5152,-3.5088,-3.5018,-3.5018,-3.497,-3.4875,-3.4659,-3.4374,-3.4009,-3.3397,-3.268,-3.2051,-3.2051,-3.1783,-3.1511,-3.1511,-3.1511,-3.1511,-3.1511,-3.1511,-3.1511,-3.1511,-3.1511,-3.1511,-3.1511,-3.0507,-2.9606,-2.9606,-2.8528,-2.76,-2.76,-2.76,-2.76,-2.76,-2.76,-2.76,-2.76,-2.76,-2.76,-2.76,-2.76,-2.76,-2.76,-2.76,-2.76,-2.76,-2.7382,-2.7229,-2.7229,-2.7008,-2.6864,-2.6864,-2.6864,-2.6864,-2.6864,-2.6864,-2.6811,-2.6681,-2.6681,-2.6619,-3.56,-3.5827,-3.6131,-3.628,-3.6739,-3.7208,0.0,0.0,-3.8037,-3.8157,-3.8209,-3.8209,-3.8209,-3.839,-3.8867,-3.9829,0.0,-4.0793,0.0,0.0,0.0,0.0,0.0,0.0,0.0,0.0,0.0,0.0,0.0,0.0,-3.8756,-3.8389,-3.8209,-3.8209,-3.8209,-3.8209,-3.8209,-3.8209,-3.8209,-3.8192,-3.732,-3.69,-3.686,-3.6006,-3.5571,-3.552,-3.552,0.0,0.0,-3.5377,-3.5354,-3.5291,-3.5291,-3.5245,-3.5175,-3.5175,-3.5088,-3.5018,-3.497,-3.4715,-3.4308,-3.386,-3.3345,-3.29,-3.29,-3.2259,-3.1511,-3.1511,-3.1511,-3.1511,-3.1511,-3.1511,-3.1511,-3.1511,-3.1511,-3.1511,-3.1511,-3.0657,-2.9804,-2.9636,-2.8678,-2.7839,-2.763,-2.76,-2.76,-2.76,-2.76,-2.76,-2.76,-2.76,-2.76,-2.76,-2.76,-2.76,-2.76,-2.76,-2.76,-2.76,-2.76,-2.76,-2.76,-2.76,-2.76,-2.76,-2.76,-2.76,-2.76,-2.76,-2.7382,-2.6971,-2.6971,-2.6747,-3.56,-3.56,-3.5734,-3.6174,-3.6301,-3.6533,0.0,0.0,-3.7632,-3.8106,-3.8209,-3.8209,-3.8209,-3.8861,-3.9455,-3.9668,-4.0586,0.0,0.0,0.0,0.0,0.0,0.0,0.0,0.0,0.0,0.0,0.0,0.0,0.0,-3.8315,-3.8209,-3.8209,-3.8209,-3.8209,-3.8209,-3.8209,-3.8209,-3.8209,-3.8192,-3.732,-3.69,-3.686,-3.6006,-3.56,0.0,0.0,0.0,0.0,-3.5492,-3.5423,-3.5291,-3.5291,-3.5291,-3.5291,-3.5291,-3.5291,-3.5268,-3.5135,-3.5088,-3.5065,-3.4923,-3.4521,-3.4075,-3.4075,-3.2873,-3.1511,-3.1511,-3.1511,-3.1511,-3.1511,-3.1511,-3.1511,-3.1511,-3.1511,-3.1511,-3.1511,-3.0957,-3.0313,-2.9726,-2.9041,-2.8368,-2.7705,-2.76,-2.76,-2.76,-2.76,-2.76,-2.76,-2.76,-2.76,-2.76,-2.76,-2.76,-2.76,-2.76,-2.76,-2.76,-2.76,-2.76,-2.76,-2.76,-2.76,-2.76,-2.76,-2.76,-2.76,-2.76,-2.76,-2.76,-2.76,-2.76,-3.6417,-3.6258,-3.611,-3.6259,-3.6701,-3.7189,-3.745,0.0,-3.8182,-3.8881,-3.9024,-3.917,-3.9677,-3.9985,-4.0417,-4.122,-4.1631,0.0,0.0,0.0,0.0,0.0,0.0,0.0,0.0,0.0,0.0,0.0,0.0,0.0,-3.849,-3.8256,-3.8209,-3.8209,-3.8209,-3.8209,-3.8209,-3.8209,-3.8209,-3.8192,-3.732,-3.69,-3.686,-3.6006,-3.56,0.0,0.0,0.0,0.0,-3.5571,-3.5549,-3.5503,-3.5503,-3.5498,-3.5446,-3.5446,-3.5377,-3.5291,-3.5245,-3.5245,-3.5152,-3.461,-3.4301,-3.4077,-3.363,-3.2841,-3.2035,-3.1611,-3.1511,-3.1511,-3.1511,-3.1511,-3.1511,-3.1511,-3.1511,-3.1511,-3.1511,-3.0957,-3.0447,-3.0253,-2.934,-2.8532,-2.8308,-2.7899,-2.76,-2.76,-2.76,-2.76,-2.76,-2.76,-2.76,-2.76,-2.76,-2.76,-2.76,-2.76,-2.76,-2.76,-2.76,-2.76,-2.76,-2.76,-2.76,-2.76,-2.76,-2.76,-2.76,-2.76,-2.76,-2.76,-2.76,-2.76,0.0,-3.7188,-3.721,-3.7363,-3.7899,0.0,0.0,0.0,-3.9206,-3.9713,-3.9822,-3.9967,-4.042,-4.0745,-4.118,-4.1831,-4.2282,0.0,0.0,0.0,0.0,0.0,0.0,0.0,0.0,0.0,0.0,0.0,0.0,0.0,-3.8458,-3.8274,-3.8209,-3.8209,-3.8209,-3.8209,-3.8209,-3.8209,-3.8209,-3.8192,-3.732,-3.69,-3.686,-3.6006,-3.56,0.0,0.0,0.0,0.0,-3.56,-3.56,-3.56,-3.56,-3.5571,-3.5543,-3.5543,-3.5498,-3.5412,-3.5383,-3.5377,-3.5291,-3.4706,-3.4513,-3.435,-3.3732,-3.3018,-3.2315,-3.1938,-3.1668,-3.1511,-3.1511,-3.1511,-3.1511,-3.1511,-3.1511,-3.1511,-3.1511,-3.1167,-3.0806,-3.0552,-2.9684,-2.8891,-2.8637,-2.8049,-2.76,-2.76,-2.76,-2.76,-2.76,-2.76,-2.76,-2.76,-2.76,-2.76,-2.76,-2.76,-2.76,-2.76,-2.76,-2.76,-2.76,-2.76,-2.76,-2.76,-2.76,-2.76,-2.76,-2.76,-2.76,-2.76,-2.76,-2.76,0.0,0.0,0.0,0.0,0.0,0.0,0.0,0.0,0.0,0.0,0.0,-4.0601,-4.0655,-4.127,-4.1795,-4.1795,0.0,0.0,0.0,0.0,0.0,0.0,0.0,0.0,0.0,0.0,0.0,0.0,0.0,0.0,-3.8262,-3.8209,-3.8209,-3.8209,-3.8209,-3.8209,-3.8209,-3.8209,-3.8209,-3.8192,-3.7339,-3.6919,-3.686,-3.6032,-3.5644,0.0,0.0,0.0,0.0,-3.56,-3.56,-3.56,-3.56,-3.56,-3.56,-3.56,-3.56,-3.5577,-3.552,-3.5514,-3.5452,-3.5198,-3.5018,-3.4828,-3.4325,-3.3403,-3.2492,-3.2465,-3.2035,-3.1553,-3.1553,-3.1524,-3.1511,-3.1511,-3.1511,-3.1511,-3.1511,-3.1511,-3.1316,-3.0702,-3.0073,-2.9445,-2.8786,-2.8124,-2.7645,-2.76,-2.76,-2.76,-2.76,-2.76,-2.76,-2.76,-2.76,-2.76,-2.76,-2.76,-2.76,-2.76,-2.76,-2.76,-2.76,-2.76,-2.76,-2.76,-2.76,-2.76,-2.76,-2.76,-2.76,-2.76,-2.76,-2.76,0.0,0.0,0.0,0.0,0.0,0.0,0.0,0.0,0.0,0.0,0.0,0.0,0.0,0.0,0.0,0.0,0.0,0.0,0.0,0.0,0.0,0.0,0.0,0.0,0.0,0.0,0.0,0.0,0.0,-3.911,-3.8245,-3.8209,-3.8209,-3.8209,-3.8209,-3.8209,-3.8209,-3.8209,-3.8209,-3.8192,-3.7632,-3.7208,-3.688,-3.6367,-3.5937,0.0,0.0,0.0,-3.56,-3.56,-3.56,-3.56,-3.56,-3.56,-3.56,-3.56,-3.56,-3.56,-3.5577,-3.5594,-3.5549,-3.5337,-3.5222,-3.5135,-3.4811,-3.4234,-3.361,-3.3135,-3.2614,-3.2176,-3.2176,-3.1853,-3.1511,-3.1511,-3.1511,-3.1511,-3.1511,-3.1511,-3.1451,-3.1301,-3.0746,-3.0088,-2.9487,-2.8801,-2.8173,-2.7675,-2.76,-2.76,-2.76,-2.76,-2.76,-2.76,-2.76,-2.76,-2.76,-2.76,-2.76,-2.76,-2.76,-2.76,-2.76,-2.76,-2.76,-2.76,-2.76,-2.76,-2.76,-2.76,-2.76,-2.76,-2.76,-2.76,-4.0377,-4.0343,0.0,0.0,0.0,0.0,0.0,0.0,0.0,0.0,0.0,0.0,0.0,0.0,0.0,0.0,0.0,0.0,0.0,0.0,0.0,0.0,0.0,0.0,0.0,0.0,0.0,0.0,0.0,-3.8662,-3.8227,-3.8209,-3.8209,-3.8209,-3.8209,-3.8209,-3.8209,-3.8209,-3.8209,-3.8192,-3.7703,-3.7302,-3.688,-3.6492,-3.6045,0.0,0.0,0.0,-3.56,-3.56,-3.56,-3.56,-3.56,-3.56,-3.56,-3.56,-3.56,-3.56,-3.56,-3.5594,-3.5543,-3.5429,-3.5337,-3.5268,-3.5128,-3.4875,-3.4521,-3.3799,-3.3188,-3.2776,-3.2776,-3.2355,-3.191,-3.191,-3.1697,-3.1511,-3.1511,-3.1511,-3.1511,-3.1511,-3.0943,-3.0402,-3.0058,-2.922,-2.8472,-2.8124,-2.7809,-2.76,-2.76,-2.76,-2.76,-2.76,-2.76,-2.76,-2.76,-2.76,-2.76,-2.76,-2.76,-2.76,-2.76,-2.76,-2.76,-2.76,-2.76,-2.76,-2.76,-2.76,-2.76,-2.76,-2.76,-2.76,-4.0659,-4.1139,-4.1503,-4.1591,0.0,0.0,0.0,0.0,0.0,0.0,0.0,0.0,0.0,0.0,0.0,0.0,0.0,0.0,0.0,0.0,0.0,0.0,0.0,0.0,0.0,0.0,0.0,0.0,0.0,-3.8209,-3.8209,-3.8209,-3.8209,-3.8209,-3.8209,-3.8209,-3.8209,-3.8209,-3.8209,-3.8192,-3.7703,-3.7302,-3.688,-3.6492,-3.6045,-3.56,0.0,0.0,-3.56,-3.56,-3.56,-3.56,-3.56,-3.56,-3.56,-3.56,-3.56,-3.56,-3.56,-3.5571,-3.5514,-3.5492,-3.5429,-3.5337,-3.5314,-3.5314,-3.5182,-3.4472,-3.3825,-3.3339,-3.3339,-3.2949,-3.2492,-3.2425,-3.2023,-3.1611,-3.1524,-3.1511,-3.1511,-3.1511,-3.1032,-3.0627,-3.0522,-2.9535,-2.8712,-2.8622,-2.8034,-2.76,-2.76,-2.76,-2.76,-2.76,-2.76,-2.76,-2.76,-2.76,-2.76,-2.76,-2.76,-2.76,-2.76,-2.76,-2.76,-2.76,-2.76,-2.76,-2.76,-2.76,-2.76,-2.76,-2.76,-2.76,-4.0659,-4.1139,-4.1609,-4.1994,0.0,0.0,0.0,0.0,0.0,0.0,0.0,0.0,0.0,0.0,0.0,0.0,0.0,0.0,0.0,0.0,0.0,0.0,0.0,0.0,0.0,0.0,0.0,0.0,0.0,-3.8209,-3.8209,-3.8209,-3.8209,-3.8209,-3.8209,-3.8209,-3.8209,-3.8209,-3.8209,-3.8192,-3.7703,-3.7302,-3.688,-3.6492,-3.6045,-3.56,0.0,-3.56,-3.56,-3.56,-3.56,-3.56,-3.56,-3.56,-3.56,-3.56,-3.56,-3.56,-3.56,-3.56,-3.5594,-3.5537,-3.552,-3.5509,-3.536,-3.5377,-3.5423,-3.5175,-3.461,-3.4045,-3.4045,-3.3563,-3.296,-3.252,-3.2342,-3.212,-3.1611,-3.1511,-3.1511,-3.1511,-3.1421,-3.1167,-3.0612,-2.9909,-2.9235,-2.8682,-2.8034,-2.76,-2.76,-2.76,-2.76,-2.76,-2.76,-2.76,-2.76,-2.76,-2.76,-2.76,-2.76,-2.76,-2.76,-2.76,-2.76,-2.76,-2.76,-2.76,-2.76,-2.76,-2.76,-2.76,-2.76,-2.76,-4.0659,-4.1139,-4.1613,-4.2095,0.0,0.0,0.0,0.0,0.0,0.0,0.0,0.0,0.0,0.0,0.0,0.0,0.0,0.0,0.0,0.0,0.0,0.0,0.0,0.0,0.0,0.0,0.0,0.0,0.0,0.0,-3.8209,-3.8209,-3.8209,-3.8209,-3.8209,-3.8209,-3.8209,-3.795,-3.7827,-3.7827,-3.7614,-3.7189,-3.6557,-3.6367,-3.6045,-3.56,0.0,-3.56,-3.56,-3.56,-3.56,-3.56,-3.56,-3.56,-3.56,-3.56,-3.56,-3.56,-3.56,-3.56,-3.56,-3.5571,-3.5571,-3.5577,-3.5503,-3.5503,-3.5526,-3.5481,-3.5142,-3.4794,-3.4794,-3.4309,-3.3767,-3.3433,-3.2922,-3.241,-3.2064,-3.1811,-3.1626,-3.1511,-3.1597,-3.1536,-3.112,-3.0507,-2.9864,-2.922,-2.8562,-2.8019,-2.7645,-2.76,-2.76,-2.76,-2.76,-2.76,-2.76,-2.76,-2.76,-2.76,-2.76,-2.76,-2.76,-2.76,-2.76,-2.76,-2.76,-2.76,-2.76,-2.76,-2.76,-2.76,-2.76,-2.76,-4.0659,-4.1139,-4.1613,-4.2115,0.0,0.0,0.0,0.0,0.0,0.0,0.0,0.0,0.0,0.0,0.0,0.0,0.0,0.0,0.0,0.0,0.0,0.0,0.0,0.0,0.0,0.0,0.0,0.0,0.0,0.0,-3.8209,-3.8209,-3.8209,-3.8209,-3.8209,-3.8209,-3.8209,-3.7845,-3.7614,-3.7505,-3.7321,-3.69,-3.6301,-3.6195,-3.5937,-3.56,-3.56,-3.56,-3.56,-3.56,-3.56,-3.56,-3.56,-3.56,-3.56,-3.56,-3.56,-3.56,-3.56,-3.56,-3.56,-3.56,-3.56,-3.56,-3.56,-3.56,-3.56,-3.56,-3.5503,-3.536,-3.5337,-3.4961,-3.4545,-3.4309,-3.3614,-3.2949,-3.2722,-3.2437,-3.2191,-3.202,-3.2092,-3.2135,-3.1979,-3.1374,-3.0752,-3.0281,-2.9629,-2.8961,-2.8303,-2.8212,-2.8101,-2.78,-2.776,-2.771,-2.7625,-2.76,-2.76,-2.76,-2.76,-2.76,-2.76,-2.76,-2.76,-2.76,-2.76,-2.76,-2.76,-2.76,-2.76,-2.76,-2.76,-2.76,-4.0659,-4.1139,-4.1635,-4.2236,-4.2634,0.0,-4.2901,-4.2994,0.0,0.0,0.0,0.0,0.0,0.0,0.0,0.0,0.0,0.0,0.0,0.0,0.0,0.0,0.0,0.0,0.0,0.0,0.0,0.0,0.0,0.0,-3.8209,-3.8209,-3.8209,-3.8209,-3.8209,-3.8209,-3.8209,-3.8175,-3.7933,-3.7487,-3.6741,-3.6364,-3.628,-3.5849,-3.5644,-3.56,-3.56,-3.56,-3.56,-3.56,-3.56,-3.56,-3.56,-3.56,-3.56,-3.56,-3.56,-3.56,-3.56,-3.56,-3.56,-3.56,-3.56,-3.56,-3.56,-3.56,-3.56,-3.56,-3.56,-3.5554,-3.5498,-3.536,-3.5071,-3.4504,-3.4333,-3.4119,-3.3624,-3.3479,-3.3469,-3.3453,-3.3365,-3.3287,-3.3261,-3.2613,-3.2063,-3.2016,-3.1442,-3.0788,-3.0101,-3.0006,-2.9563,-2.8365,-2.8255,-2.8061,-2.765,-2.76,-2.76,-2.76,-2.76,-2.76,-2.76,-2.76,-2.76,-2.76,-2.76,-2.76,-2.76,-2.76,-2.76,-2.76,-2.76,-2.76,-4.0659,-4.0926,-4.1276,-4.2195,-4.2496,0.0,0.0,-4.3123,0.0,0.0,0.0,0.0,0.0,0.0,0.0,0.0,0.0,0.0,0.0,0.0,0.0,0.0,0.0,0.0,0.0,0.0,0.0,0.0,0.0,0.0,-3.8209,-3.8209,-3.8209,-3.8209,-3.8209,-3.8209,-3.8209,-3.7667,-3.7301,-3.7132,-3.6821,-3.6392,-3.5849,-3.5689,-3.56,-3.56,-3.56,-3.56,-3.56,-3.56,-3.56,-3.56,-3.56,-3.56,-3.56,-3.56,-3.56,-3.56,-3.56,-3.56,-3.56,-3.56,-3.56,-3.56,-3.56,-3.56,-3.56,-3.56,-3.56,-3.56,-3.5571,-3.5526,-3.5435,-3.5142,-3.4809,-3.4447,-3.4169,-3.3903,-3.371,-3.3624,-3.3633,-3.3608,-3.3531,-3.3195,-3.28,-3.2396,-3.2035,-3.1598,-3.0901,-3.0458,-3.0022,-2.954,-2.9069,-2.8724,-2.8559,-2.8575,-2.8583,-2.8583,-2.7978,-2.76,-2.76,-2.76,-2.76,-2.76,-2.76,-2.76,-2.76,-2.76,-2.76,-2.76,-2.7675,-2.7715,-4.0483,-4.07,-4.1019,0.0,0.0,0.0,0.0,0.0,0.0,0.0,0.0,0.0,0.0,0.0,0.0,0.0,0.0,0.0,0.0,0.0,0.0,0.0,0.0,0.0,0.0,0.0,0.0,0.0,0.0,0.0,0.0,-3.8209,-3.8209,-3.8209,-3.8209,-3.8209,-3.8209,-3.7595,-3.7245,-3.7094,-3.7094,-3.658,-3.56,-3.56,-3.56,-3.5622,-3.5756,-3.5805,-3.5827,-3.5963,-3.5941,-3.5805,-3.5805,-3.5734,-3.56,-3.56,-3.56,-3.56,-3.56,-3.56,-3.56,-3.56,-3.56,-3.56,-3.56,-3.56,-3.56,-3.56,-3.56,-3.56,-3.56,-3.56,-3.5577,-3.5543,-3.5201,-3.4894,-3.4793,-3.456,-3.435,-3.4252,-3.4276,-3.4317,-3.4219,-3.4045,-3.3808,-3.3372,-3.3193,-3.2861,-3.2224,-3.1763,-3.1225,-3.0573,-2.9717,-2.9196,-2.9196,-2.9248,-2.9262,-2.9262,-2.8575,-2.8174,-2.8174,-2.8174,-2.81,-2.7944,-2.7944,-2.7885,-2.774,-2.774,-2.774,-2.774,-2.7815,-2.7855,-4.0096,-4.0434,0.0,0.0,0.0,0.0,0.0,0.0,0.0,0.0,0.0,0.0,0.0,0.0,0.0,0.0,0.0,0.0,0.0,0.0,0.0,0.0,0.0,0.0,0.0,0.0,0.0,0.0,0.0,0.0,0.0,-3.8192,-3.8192,-3.8209,-3.8192,-3.8192,-3.8191,-3.8192,-3.7967,-3.7487,-3.7505,-3.6825,-3.5622,-3.5622,-3.5622,-3.5644,-3.611,-3.6301,-3.6343,-3.6739,-3.6658,-3.6301,-3.6301,-3.6023,-3.56,-3.56,-3.56,-3.56,-3.56,-3.56,-3.56,-3.56,-3.56,-3.56,-3.56,-3.56,-3.56,-3.56,-3.56,-3.56,-3.56,-3.56,-3.56,-3.56,-3.56,-3.56,-3.56,-3.56,-3.56,-3.56,-3.5543,-3.5492,-3.5492,-3.5268,-3.5152,-3.5268,-3.5198,-3.4868,-3.427,-3.4209,-3.3428,-3.1424,-3.0138,-2.9422,-2.9422,-2.9406,-2.9406,-2.9406,-2.9406,-2.9406,-2.9406,-2.9406,-2.918,-2.8709,-2.8709,-2.8479,-2.8005,-2.8005,-2.8005,-2.8005,-2.8005,-2.802,-4.0096,0.0,0.0,0.0,0.0,0.0,0.0,0.0,0.0,0.0,0.0,0.0,0.0,0.0,0.0,0.0,0.0,0.0,0.0,0.0,0.0,0.0,0.0,0.0,0.0,0.0,0.0,0.0,0.0,0.0,0.0,-3.788,-3.7862,-3.8192,-3.788,-3.7593,-3.7357,-3.7575,-3.7345,-3.6649,-3.6943,-3.688,-3.6519,-3.6519,-3.6519,-3.6519,-3.6661,-3.6719,-3.6739,-3.6841,-3.6821,-3.6698,-3.6409,-3.6216,-3.6045,-3.5717,-3.56,-3.56,-3.56,-3.56,-3.56,-3.56,-3.56,-3.56,-3.56,-3.56,-3.56,-3.56,-3.56,-3.56,-3.56,-3.56,-3.56,-3.56,-3.56,-3.56,-3.56,-3.56,-3.56,-3.56,-3.5577,-3.5571,-3.5571,-3.5475,-3.54,-3.5446,-3.5331,-3.5,-3.4292,-3.4209,-3.3779,-3.2662,-3.1745,-3.1229,-3.1229,-3.0791,-3.0535,-3.0535,-3.0617,-3.0293,-2.9429,-2.9406,-2.9339,-2.9203,-2.918,-2.9111,-2.8989,-2.8989,-2.8989,-2.8989,-2.9081,-2.9127,-4.0096,0.0,0.0,0.0,0.0,0.0,0.0,0.0,0.0,0.0,0.0,0.0,0.0,0.0,0.0,0.0,0.0,0.0,0.0,0.0,0.0,0.0,0.0,0.0,0.0,0.0,0.0,0.0,0.0,0.0,0.0,-3.7578,-3.7632,-3.7897,-3.765,-3.7327,-3.6995,-3.7212,-3.7056,-3.6589,-3.6809,-3.711,-3.7394,-3.7055,-3.69,-3.69,-3.7075,-3.7246,-3.7431,-3.7431,-3.732,-3.7113,-3.6698,-3.643,-3.6237,-3.5761,-3.56,-3.56,-3.56,-3.56,-3.56,-3.56,-3.56,-3.56,-3.56,-3.56,-3.56,-3.56,-3.56,-3.56,-3.56,-3.56,-3.56,-3.56,-3.56,-3.56,-3.56,-3.56,-3.56,-3.56,-3.56,-3.56,-3.56,-3.5543,-3.5514,-3.5543,-3.5458,-3.5261,-3.4813,-3.451,-3.414,-3.3708,-3.2728,-3.2122,-3.2122,-3.1473,-3.1092,-3.1092,-3.1151,-3.0878,-3.0145,-3.0123,-3.0038,-2.9848,-2.9848,-2.9755,-2.9556,-2.9556,-2.9556,-2.9556,-2.9645,-2.9689,0.0,0.0,0.0,0.0,0.0,0.0,0.0,0.0,0.0,0.0,0.0,0.0,0.0,0.0,0.0,0.0,0.0,0.0,0.0,0.0,0.0,0.0,0.0,0.0,0.0,0.0,0.0,0.0,0.0,0.0,0.0,-3.7209,-3.7414,-3.7505,-3.7397,-3.7184,-3.6904,-3.6886,-3.6886,-3.6886,-3.6959,-3.743,-3.8157,-3.7376,-3.7017,-3.7036,-3.7395,-3.781,-3.8209,-3.8209,-3.795,-3.7523,-3.7113,-3.6739,-3.6346,-3.5893,-3.5717,-3.5717,-3.5689,-3.565,-3.5667,-3.5622,-3.56,-3.56,-3.56,-3.56,-3.56,-3.56,-3.56,-3.56,-3.56,-3.56,-3.56,-3.56,-3.56,-3.56,-3.56,-3.56,-3.56,-3.56,-3.56,-3.56,-3.56,-3.5566,-3.552,-3.5577,-3.56,-3.56,-3.56,-3.5013,-3.459,-3.459,-3.3343,-3.2462,-3.2412,-3.1735,-3.1258,-3.119,-3.119,-3.119,-3.119,-3.119,-3.0995,-3.0559,-3.0559,-3.0351,-2.9941,-2.9941,-2.9941,-2.9941,-2.9941,-2.9941,0.0,0.0,0.0,0.0,0.0,0.0,0.0,0.0,0.0,0.0,0.0,0.0,0.0,0.0,0.0,0.0,0.0,0.0,0.0,0.0,0.0,0.0,0.0,0.0,0.0,0.0,0.0,0.0,0.0,0.0,-3.69,-3.6678,-3.6841,-3.7487,-3.6588,-3.6078,-3.6057,-3.6073,-3.6073,0.0,-3.6705,-3.743,-3.8192,-3.8003,-3.7915,-3.7933,-3.802,-3.8106,-3.8209,-3.8209,-3.814,-3.7984,-3.7559,-3.7321,-3.719,-3.6781,-3.662,-3.6597,-3.6262,-3.6152,-3.6088,-3.5734,-3.56,-3.56,-3.56,-3.56,-3.56,-3.56,-3.56,-3.56,-3.56,-3.56,-3.56,-3.56,-3.56,-3.56,-3.56,-3.56,-3.56,-3.56,-3.56,-3.56,-3.56,-3.5577,-3.5577,-3.56,-3.56,-3.56,-3.56,-3.5447,-3.5346,-3.5346,-3.4556,-3.3778,-3.322,-3.2496,-3.1819,-3.1241,-3.119,-3.119,-3.119,-3.119,-3.1151,-3.1055,-3.1055,-3.0995,-3.0915,-3.0915,-3.0915,-3.0915,-3.0915,-3.0915,0.0,0.0,0.0,0.0,0.0,0.0,0.0,0.0,0.0,0.0,0.0,0.0,0.0,0.0,0.0,0.0,0.0,0.0,0.0,0.0,0.0,0.0,0.0,0.0,0.0,0.0,0.0,0.0,0.0,-3.6516,-3.6287,-3.6284,-3.6577,-3.719,-3.6068,-3.5576,-3.5804,-3.5227,-3.5029,-3.524,-3.6037,-3.7051,-3.8209,-3.8209,-3.8209,-3.8209,-3.8209,-3.8209,-3.8209,-3.8209,-3.8209,-3.814,-3.7667,-3.7505,-3.745,-3.7055,-3.69,-3.6841,-3.643,-3.6301,-3.6216,-3.5739,-3.56,-3.56,-3.56,-3.56,-3.56,-3.56,-3.56,-3.56,-3.56,-3.56,-3.56,-3.56,-3.56,-3.56,-3.56,-3.56,-3.56,-3.56,-3.56,-3.56,-3.56,-3.56,-3.56,-3.56,-3.56,-3.56,-3.56,-3.56,-3.56,-3.56,-3.4945,-3.4336,-3.3964,-3.3254,-3.251,-3.1769,-3.1735,-3.1582,-3.1207,-3.119,-3.119,-3.119,-3.119,-3.119,-3.119,-3.119,-3.119,-3.119,-3.119,-3.119,0.0,0.0,0.0,0.0,0.0,0.0,0.0,0.0,0.0,0.0,0.0,0.0,0.0,0.0,0.0,0.0,0.0,0.0,0.0,0.0,0.0,0.0,0.0,0.0,0.0,0.0,0.0,0.0,0.0,-3.6002,-3.5622,-3.5958,-3.6409,-3.688,-3.5769,-3.5352,-3.569,-3.4567,-3.4173,-3.4496,-3.5517,-3.6779,-3.8209,-3.8209,-3.8209,-3.8209,-3.8209,-3.8209,-3.8209,-3.8209,-3.8209,-3.8157,-3.7774,-3.7614,-3.7596,-3.7264,-3.7113,-3.7073,-3.6638,-3.6471,-3.6326,-3.5871,-3.5667,-3.56,-3.56,-3.56,-3.56,-3.56,-3.56,-3.56,-3.56,-3.56,-3.56,-3.56,-3.56,-3.56,-3.56,-3.56,-3.56,-3.56,-3.56,-3.56,-3.56,-3.56,-3.56,-3.56,-3.56,-3.56,-3.56,-3.56,-3.56,-3.56,-3.5064,-3.4641,-3.4506,-3.3931,-3.3271,-3.2547,-3.2496,-3.2175,-3.141,-3.1396,-3.1326,-3.119,-3.119,-3.119,-3.119,-3.119,-3.119,-3.119,-3.119,-3.119,0.0,0.0,0.0,0.0,0.0,0.0,0.0,0.0,0.0,0.0,0.0,0.0,0.0,0.0,0.0,0.0,0.0,0.0,0.0,0.0,0.0,0.0,0.0,0.0,0.0,0.0,0.0,0.0,-3.5963,-3.5667,-3.56,-3.5667,-3.6054,-3.688,-3.5746,-3.518,-3.5271,-3.4436,-3.4044,-3.409,-3.5963,-3.7321,-3.8209,-3.8209,-3.8209,-3.8209,-3.8209,-3.8209,-3.8209,-3.8209,-3.8209,-3.8192,-3.8123,-3.8106,-3.8106,-3.8037,-3.8038,-3.7968,-3.7505,-3.7113,-3.6741,-3.6346,-3.5937,-3.56,-3.56,-3.56,-3.56,-3.56,-3.56,-3.56,-3.56,-3.56,-3.56,-3.56,-3.56,-3.56,-3.56,-3.56,-3.56,-3.56,-3.56,-3.56,-3.56,-3.56,-3.56,-3.56,-3.56,-3.56,-3.56,-3.56,-3.56,-3.56,-3.5498,-3.5199,-3.4539,-3.4404,-3.4032,-3.3305,-3.3254,-3.2916,-3.2192,-3.2158,-3.1853,-3.1207,-3.119,-3.119,-3.119,-3.119,-3.119,-3.119,-3.119,-3.119,0.0,0.0,0.0,0.0,0.0,0.0,0.0,0.0,0.0,0.0,0.0,0.0,0.0,0.0,0.0,0.0,0.0,0.0,0.0,0.0,0.0,0.0,0.0,0.0,0.0,0.0,0.0,0.0,-3.5958,-3.58,-3.5728,-3.5711,-3.598,-3.6536,-3.5397,-3.4889,-3.5133,-3.4163,-3.4106,-3.5019,-3.5919,-3.6979,-3.8209,-3.8209,-3.8209,-3.8209,-3.8209,-3.8209,-3.8209,-3.8209,-3.8209,-3.8209,-3.8209,-3.8209,-3.8209,-3.8209,-3.8209,-3.814,-3.765,-3.7377,-3.7132,-3.6512,-3.6152,-3.5937,-3.5689,-3.56,-3.56,-3.56,-3.56,-3.56,-3.56,-3.56,-3.56,-3.56,-3.56,-3.56,-3.56,-3.56,-3.56,-3.56,-3.56,-3.56,-3.56,-3.56,-3.56,-3.56,-3.56,-3.56,-3.56,-3.56,-3.56,-3.56,-3.56,-3.5464,-3.5148,-3.5131,-3.481,-3.4066,-3.4015,-3.3677,-3.2949,-3.253,-3.2158,-3.1819,-3.1413,-3.119,-3.119,-3.119,-3.119,-3.119,-3.119,-3.119,0.0,0.0,0.0,0.0,0.0,0.0,0.0,0.0,0.0,0.0,0.0,0.0,0.0,0.0,0.0,0.0,0.0,0.0,0.0,0.0,0.0,0.0,0.0,0.0,0.0,0.0,0.0,0.0,-3.6019,-3.5971,-3.5861,-3.5817,-3.6019,-3.6471,-3.5518,-3.5106,-3.5436,-3.4376,-3.4619,-3.6125,-3.6109,-3.685,-3.8207,-3.8209,-3.8209,-3.8209,-3.8209,-3.8209,-3.8209,-3.8209,-3.8209,-3.8209,-3.8209,-3.8209,-3.8209,-3.8209,-3.8209,-3.814,-3.7792,-3.7614,-3.7414,-3.6801,-3.6471,-3.6237,-3.5871,-3.5694,-3.56,-3.56,-3.56,-3.56,-3.56,-3.56,-3.56,-3.56,-3.56,-3.56,-3.56,-3.56,-3.56,-3.56,-3.56,-3.56,-3.56,-3.56,-3.56,-3.56,-3.56,-3.56,-3.56,-3.56,-3.56,-3.56,-3.56,-3.56,-3.56,-3.56,-3.5363,-3.481,-3.4776,-3.4455,-3.3711,-3.3136,-3.2682,-3.231,-3.1769,-3.1396,-3.119,-3.119,-3.119,-3.119,-3.119,-3.119,0.0,0.0,0.0,0.0,0.0,0.0,0.0,0.0,0.0,0.0,0.0,0.0,0.0,0.0,0.0,0.0,0.0,0.0,0.0,0.0,0.0,0.0,0.0,0.0,0.0,0.0,0.0,0.0,-3.6062,-3.5997,-3.5997,-3.5883,-3.6191,-3.7013,-3.6498,-3.626,-3.6345,-3.5524,-3.5762,-3.7035,-3.6973,-3.7408,-3.829,-3.8242,-3.8209,-3.8209,-3.8209,-3.8209,-3.8209,-3.8209,-3.8209,-3.8209,-3.8209,-3.8209,-3.8209,-3.8209,-3.8209,-3.8192,-3.8157,-3.7862,-3.7505,-3.745,-3.6919,-3.6301,-3.628,-3.5958,-3.56,-3.56,-3.56,-3.56,-3.56,-3.56,-3.56,-3.56,-3.56,-3.56,-3.56,-3.56,-3.56,-3.56,-3.56,-3.56,-3.56,-3.56,-3.56,-3.56,-3.56,-3.56,-3.56,-3.56,-3.56,-3.56,-3.56,-3.56,-3.56,-3.56,-3.5583,-3.5549,-3.5532,-3.5216,-3.4472,-3.4404,-3.3732,-3.2327,-3.2259,-3.1904,-3.119,-3.119,-3.119,-3.119,-3.119,-3.119,0.0,0.0,0.0,0.0,0.0,0.0,0.0,0.0,0.0,0.0,0.0,0.0,0.0,0.0,0.0,0.0,0.0,0.0,0.0,0.0,0.0,0.0,0.0,0.0,0.0,0.0,0.0,0.0,0.0,-3.617,-3.6122,-3.6079,-3.6148,-3.6385,-3.6471,-3.6512,-3.6538,-3.5981,-3.6191,-3.7169,-3.7137,-3.7556,-3.8352,-3.8336,-3.832,-3.8338,-3.8272,-3.8241,-3.8209,-3.8209,-3.8209,-3.8209,-3.8209,-3.8209,-3.8209,-3.8209,-3.8209,-3.8209,-3.8209,-3.8088,-3.7915,-3.7596,-3.7321,-3.7017,-3.6761,-3.6388,-3.6045,-3.6045,-3.5827,-3.56,-3.56,-3.56,-3.56,-3.56,-3.56,-3.56,-3.56,-3.56,-3.56,-3.56,-3.56,-3.56,-3.56,-3.56,-3.56,-3.56,-3.56,-3.56,-3.56,-3.56,-3.56,-3.56,-3.56,-3.56,-3.56,-3.56,-3.56,-3.56,-3.56,-3.5481,-3.5211,-3.4742,-3.4235,-3.3732,-3.2784,-3.1938,-3.119,-3.119,-3.119,-3.119,-3.119,-3.119,0.0,0.0,0.0,0.0,0.0,0.0,0.0,0.0,0.0,0.0,0.0,0.0,0.0,0.0,0.0,0.0,0.0,0.0,0.0,0.0,0.0,0.0,0.0,0.0,0.0,0.0,0.0,0.0,0.0,0.0,-3.6251,-3.6208,-3.6255,-3.6392,-3.6801,-3.7055,-3.7205,-3.6942,-3.7085,-3.7645,-3.7614,-3.7888,-3.843,-3.8415,-3.8399,-3.8399,-3.8336,-3.8307,-3.8224,-3.8209,-3.8209,-3.8209,-3.8209,-3.8209,-3.8209,-3.8209,-3.8209,-3.8209,-3.8209,-3.8209,-3.814,-3.7845,-3.7632,-3.745,-3.7189,-3.6821,-3.6512,-3.6512,-3.6284,-3.6049,-3.6049,-3.5941,-3.58,-3.5644,-3.56,-3.56,-3.56,-3.56,-3.56,-3.56,-3.56,-3.56,-3.56,-3.56,-3.56,-3.56,-3.56,-3.56,-3.56,-3.56,-3.56,-3.56,-3.56,-3.56,-3.56,-3.56,-3.56,-3.56,-3.56,-3.56,-3.56,-3.5131,-3.4742,-3.4489,-3.3546,-3.2564,-3.1582,-3.1309,-3.119,-3.119,-3.119,-3.119,0.0,0.0,0.0,0.0,0.0,0.0,0.0,0.0,0.0,0.0,0.0,0.0,0.0,0.0,0.0,0.0,0.0,0.0,0.0,0.0,0.0,0.0,0.0,0.0,0.0,0.0,0.0,0.0,-3.6301,-3.6301,-3.6301,-3.6251,-3.6512,-3.7209,-3.7614,-3.8,-3.8399,-3.8399,-3.8446,-3.851,-3.843,-3.8446,-3.851,-3.843,-3.8399,-3.8399,-3.8399,-3.8368,-3.8307,-3.8224,-3.8209,-3.8209,-3.8209,-3.8209,-3.8209,-3.8209,-3.8209,-3.8209,-3.8209,-3.8209,-3.8209,-3.8209,-3.788,-3.7523,-3.7523,-3.7246,-3.6919,-3.6919,-3.69,-3.69,-3.69,-3.6597,-3.6195,-3.5717,-3.5622,-3.5622,-3.56,-3.56,-3.56,-3.56,-3.56,-3.56,-3.56,-3.56,-3.56,-3.56,-3.56,-3.56,-3.56,-3.56,-3.56,-3.56,-3.56,-3.56,-3.56,-3.56,-3.56,-3.5622,-3.56,-3.56,-3.56,-3.56,-3.5245,-3.4539,-3.4506,-3.38,-3.2361,-3.1616,-3.1207,-3.119,-3.119,-3.119,-4.2537,0.0,0.0,0.0,0.0,0.0,0.0,0.0,0.0,0.0,0.0,0.0,0.0,0.0,0.0,0.0,0.0,0.0,0.0,0.0,0.0,0.0,0.0,0.0,0.0,0.0,0.0,0.0,-3.6301,-3.6301,-3.6301,-3.6574,-3.7055,-3.7844,-3.7948,-3.8219,-3.8611,-3.8627,-3.8627,-3.864,-3.8627,-3.8627,-3.864,-3.8627,-3.8627,-3.8611,-3.851,-3.8462,-3.8449,-3.8322,-3.8274,-3.8257,-3.8225,-3.8209,-3.8209,-3.8209,-3.8209,-3.8209,-3.8209,-3.8209,-3.8209,-3.8209,-3.8123,-3.802,-3.802,-3.7685,-3.7322,-3.7322,-3.7114,-3.69,-3.69,-3.6821,-3.6638,-3.6199,-3.611,-3.6023,-3.5672,-3.56,-3.56,-3.56,-3.56,-3.56,-3.56,-3.56,-3.56,-3.56,-3.56,-3.56,-3.56,-3.56,-3.56,-3.56,-3.56,-3.5644,-3.5751,-3.5734,-3.5795,-3.5888,-3.5817,-3.5734,-3.5734,-3.5644,-3.5498,-3.5295,-3.4864,-3.4389,-3.3901,-3.2632,-3.1718,-3.119,-3.119,-3.119,0.0,0.0,0.0,0.0,0.0,0.0,-4.1948,-4.1692,0.0,0.0,0.0,0.0,0.0,0.0,0.0,0.0,0.0,0.0,0.0,0.0,0.0,0.0,0.0,0.0,0.0,-3.6301,-3.6301,-3.6301,-3.6301,-3.6301,-3.6301,-3.6678,-3.7189,-3.7826,-3.7999,-3.8285,-3.8692,-3.8707,-3.8707,-3.8707,-3.8707,-3.8707,-3.8707,-3.8707,-3.8707,-3.8692,-3.8624,-3.8575,-3.8575,-3.8433,-3.837,-3.8338,-3.8305,-3.8274,-3.8241,-3.8241,-3.8207,-3.8209,-3.8209,-3.8209,-3.8209,-3.8209,-3.8209,-3.8209,-3.8209,-3.802,-3.7792,-3.7792,-3.7632,-3.7394,-3.7264,-3.7189,-3.7055,-3.6638,-3.6433,-3.6284,-3.6006,-3.5849,-3.5734,-3.5622,-3.56,-3.5622,-3.5667,-3.5689,-3.5689,-3.5756,-3.5778,-3.5778,-3.5778,-3.5778,-3.5778,-3.5778,-3.5778,-3.58,-3.5883,-3.5866,-3.5927,-3.5997,-3.5927,-3.5866,-3.5866,-3.58,-3.5778,-3.5778,-3.5419,-3.5066,-3.4657,-3.3443,-3.2435,-3.1667,-3.1326,-3.119,0.0,0.0,0.0,0.0,0.0,0.0,-4.1821,-4.1692,-4.1539,0.0,0.0,0.0,0.0,0.0,0.0,0.0,0.0,0.0,0.0,0.0,0.0,0.0,0.0,0.0,-3.6387,-3.6301,-3.6301,-3.6301,-3.6301,-3.6343,-3.643,-3.6761,-3.717,-3.7614,-3.7965,-3.8352,-3.8692,-3.8707,-3.8707,-3.8707,-3.8707,-3.8707,-3.8707,-3.8707,-3.8707,-3.8707,-3.8707,-3.8707,-3.8692,-3.8575,-3.8478,-3.8415,-3.8399,-3.8352,-3.8323,-3.8323,-3.8274,-3.8224,-3.8224,-3.8224,-3.8224,-3.8224,-3.8224,-3.8224,-3.8224,-3.8224,-3.8224,-3.8224,-3.8224,-3.8157,-3.7863,-3.7685,-3.7505,-3.7113,-3.6764,-3.6542,-3.6498,-3.6287,-3.6067,-3.581,-3.5694,-3.5689,-3.5795,-3.5817,-3.5861,-3.5975,-3.5997,-3.5997,-3.5997,-3.5997,-3.5997,-3.5997,-3.5997,-3.5997,-3.6019,-3.6019,-3.6019,-3.6041,-3.6019,-3.6019,-3.6019,-3.6083,-3.6117,-3.6117,-3.6117,-3.5775,-3.5044,-3.4082,-3.3179,-3.2334,-3.1653,-3.1314,0.0,0.0,0.0,0.0,0.0,0.0,-4.3142,-4.2846,-4.2614,0.0,0.0,0.0,0.0,0.0,0.0,0.0,0.0,0.0,0.0,0.0,0.0,0.0,0.0,0.0,-3.6439,-3.6301,-3.6301,-3.6301,-3.6301,-3.6577,-3.7228,-3.7339,-3.7721,-3.8433,-3.853,-3.8627,-3.8707,-3.8707,-3.8707,-3.8707,-3.8707,-3.8707,-3.8707,-3.8707,-3.8707,-3.8707,-3.8707,-3.8707,-3.8707,-3.8673,-3.8593,-3.8478,-3.8415,-3.8382,-3.8385,-3.8385,-3.8385,-3.8368,-3.8368,-3.8368,-3.8368,-3.8368,-3.8368,-3.8368,-3.8368,-3.8368,-3.8368,-3.8368,-3.8368,-3.8352,-3.8285,-3.8234,-3.8117,-3.772,-3.7578,-3.7451,-3.7097,-3.7001,-3.696,-3.6902,-3.6354,-3.5932,-3.5954,-3.5954,-3.5975,-3.5997,-3.5997,-3.5997,-3.5997,-3.5997,-3.5997,-3.5997,-3.5997,-3.6041,-3.6144,-3.6144,-3.6187,-3.6237,-3.6191,-3.6144,-3.6144,-3.6618,-3.6898,-3.6898,-3.6898,-3.6566,-3.5938,-3.448,-3.3339,-3.2531,-3.2378,-3.2003,0.0,0.0,0.0,-4.2304,0.0,0.0,0.0,-4.1814,-4.1614,0.0,0.0,0.0,0.0,0.0,0.0,0.0,0.0,0.0,0.0,0.0,0.0,0.0,0.0,0.0,-3.6404,-3.6301,-3.6301,-3.6301,-3.6492,-3.6779,-3.7189,-3.7578,-3.7982,-3.8385,-3.8596,-3.8707,-3.8707,-3.8707,-3.8707,-3.8707,-3.8707,-3.8707,-3.8707,-3.8707,-3.8707,-3.8707,-3.8707,-3.8707,-3.8707,-3.8707,-3.8658,-3.8609,-3.8562,-3.8512,-3.8446,-3.8446,-3.843,-3.8399,-3.8399,-3.8399,-3.8399,-3.8399,-3.8399,-3.8399,-3.8399,-3.8399,-3.8399,-3.8446,-3.843,-3.8399,-3.8446,-3.843,-3.835,-3.8152,-3.7999,-3.7844,-3.7632,-3.7469,-3.734,-3.734,-3.7018,-3.6661,-3.6412,-3.6216,-3.6122,-3.6131,-3.6152,-3.6152,-3.6152,-3.6152,-3.6152,-3.6152,-3.6152,-3.6191,-3.6233,-3.6255,-3.6255,-3.6301,-3.6276,-3.6255,-3.6255,-3.6947,-3.747,-3.7847,-3.7847,-3.7531,-3.6857,-3.6036,-3.4991,-3.3738,-3.3362,-3.2798,0.0,0.0,0.0,0.0,0.0,-4.1011,0.0,0.0,0.0,0.0,0.0,0.0,0.0,0.0,0.0,0.0,0.0,0.0,0.0,0.0,0.0,0.0,0.0,0.0,0.0,-3.6301,-3.6301,-3.6301,-3.6678,-3.6939,-3.7017,-3.7703,-3.8135,-3.8219,-3.853,-3.8707,-3.8707,-3.8707,-3.8707,-3.8707,-3.8707,-3.8707,-3.8707,-3.8707,-3.8707,-3.8707,-3.8707,-3.8707,-3.8707,-3.8707,-3.8707,-3.8707,-3.8707,-3.8624,-3.8525,-3.8525,-3.8494,-3.8465,-3.8465,-3.8465,-3.8465,-3.8465,-3.8465,-3.8465,-3.8465,-3.8465,-3.8481,-3.851,-3.8512,-3.8481,-3.851,-3.8512,-3.8465,-3.8465,-3.8303,-3.8119,-3.8119,-3.7931,-3.7721,-3.7721,-3.7667,-3.7433,-3.6845,-3.6495,-3.6339,-3.6301,-3.6301,-3.6301,-3.6301,-3.6301,-3.6301,-3.6301,-3.6301,-3.6301,-3.6301,-3.6301,-3.6301,-3.6301,-3.6301,-3.6301,-3.6301,-3.7198,-3.7996,-3.8599,-3.8732,-3.8439,-3.7719,-3.7581,-3.6633,-3.4949,-3.435,-3.3665,0.0,0.0,0.0,0.0,-4.1095,0.0,0.0,0.0,0.0,0.0,0.0,0.0,0.0,0.0,0.0,0.0,0.0,0.0,0.0,0.0,0.0,0.0,0.0,0.0,0.0,-3.6301,-3.6301,-3.6301,-3.6678,-3.7055,-3.7414,-3.7861,-3.8252,-3.8627,-3.8692,-3.8707,-3.8707,-3.8707,-3.8707,-3.8707,-3.8707,-3.8707,-3.8707,-3.8707,-3.8707,-3.8707,-3.8707,-3.8707,-3.8707,-3.8707,-3.8707,-3.8707,-3.8707,-3.8692,-3.8673,-3.8673,-3.8658,-3.8676,-3.8676,-3.8676,-3.8676,-3.8676,-3.8676,-3.8676,-3.8676,-3.8676,-3.8658,-3.8692,-3.8658,-3.8658,-3.8692,-3.8658,-3.8676,-3.8676,-3.8643,-3.8611,-3.8611,-3.8596,-3.8546,-3.8546,-3.8269,-3.7791,-3.7017,-3.6841,-3.6698,-3.6364,-3.6301,-3.6301,-3.6301,-3.6301,-3.6301,-3.6301,-3.6301,-3.6301,-3.6301,-3.6301,-3.6301,-3.6301,-3.6301,-3.6301,-3.6301,-3.7698,-3.8491,-3.8594,-3.9232,-3.9198,-3.8456,-3.7823,-3.6697,-3.5156,-3.509,-3.4642,0.0,0.0,0.0,0.0,0.0,0.0,-3.9701,0.0,-3.9701,0.0,0.0,0.0,0.0,0.0,0.0,0.0,0.0,0.0,0.0,0.0,0.0,0.0,0.0,0.0,0.0,0.0,0.0,0.0,-3.7377,-3.7667,-3.7844,-3.8236,-3.8515,-3.8692,-3.8707,-3.8707,-3.8707,-3.8707,-3.8707,-3.8707,-3.8707,-3.8707,-3.8707,-3.8707,-3.8707,-3.8707,-3.8707,-3.8707,-3.8707,-3.8707,-3.8707,-3.8707,-3.8707,-3.8707,-3.8707,-3.8707,-3.8707,-3.8707,-3.8707,-3.8707,-3.8707,-3.8707,-3.8707,-3.8707,-3.8707,-3.8707,-3.8707,-3.8707,-3.8707,-3.8707,-3.8707,-3.8707,-3.8707,-3.8707,-3.8707,-3.8707,-3.8707,-3.8707,-3.8707,-3.8707,-3.8546,-3.8269,-3.7685,-3.7208,-3.6761,-3.6364,-3.6301,-3.6301,-3.6301,-3.6301,-3.6301,-3.6301,-3.6301,-3.6301,-3.6301,-3.6301,-3.6301,-3.6301,-3.6301,-3.6508,-3.6973,-3.7633,-3.8168,-3.8577,-3.9319,-3.9336,-3.8594,-3.8738,-3.8215,-3.7146,-3.6249,-3.5439,-3.8854,0.0,0.0,0.0,0.0,0.0,0.0,0.0,0.0,0.0,0.0,0.0,0.0,0.0,0.0,0.0,0.0,0.0,0.0,0.0,0.0,0.0,0.0,0.0,0.0,0.0,0.0,-3.7487,-3.7879,-3.8101,-3.8101,-3.8483,-3.8707,-3.8707,-3.8707,-3.8707,-3.8707,-3.8707,-3.8707,-3.8707,-3.8707,-3.8707,-3.8707,-3.8707,-3.8707,-3.8707,-3.8707,-3.8707,-3.8707,-3.8707,-3.8707,-3.8707,-3.8707,-3.8707,-3.8707,-3.8707,-3.8707,-3.8707,-3.8707,-3.8707,-3.8707,-3.8707,-3.8707,-3.8707,-3.8707,-3.8707,-3.8707,-3.8707,-3.8707,-3.8707,-3.8707,-3.8707,-3.8707,-3.8707,-3.8707,-3.8707,-3.8707,-3.8707,-3.8707,-3.8707,-3.8707,-3.853,-3.8016,-3.7542,-3.7038,-3.6536,-3.6471,-3.643,-3.6322,-3.6301,-3.6301,-3.6301,-3.6301,-3.6301,-3.6301,-3.6301,-3.6301,-3.6301,-3.6301,-3.6559,-3.715,-3.7392,-3.7754,-3.8306,-3.9008,-3.9129,-3.8594,-3.8922,-3.8819,-3.8272,-3.7146,-3.6335,0.0,0.0,0.0,-3.8707,0.0,0.0,0.0,0.0,-3.8707,0.0,0.0,0.0,0.0,0.0,0.0,0.0,0.0,0.0,0.0,0.0,0.0,0.0,0.0,0.0,0.0,0.0,0.0,-3.7505,-3.7879,-3.8101,-3.8101,-3.8483,-3.8707,-3.8707,-3.8707,-3.8707,-3.8707,-3.8707,-3.8707,-3.8707,-3.8707,-3.8707,-3.8707,-3.8707,-3.8707,-3.8707,-3.8707,-3.8707,-3.8707,-3.8707,-3.8707,-3.8707,-3.8707,-3.8707,-3.8707,-3.8707,-3.8707,-3.8707,-3.8707,-3.8707,-3.8707,-3.8707,-3.8707,-3.8707,-3.8707,-3.8707,-3.8707,-3.8707,-3.8707,-3.8707,-3.8707,-3.8707,-3.8707,-3.8707,-3.8707,-3.8707,-3.8707,-3.8707,-3.8707,-3.8707,-3.8707,-3.8451,-3.765,-3.7826,-3.7791,-3.6997,-3.688,-3.6739,-3.6364,-3.6301,-3.6301,-3.6301,-3.6301,-3.6301,-3.6301,-3.6301,-3.6301,-3.6301,-3.6301,-3.6318,-3.6335,-3.7098,-3.7512,-3.753,-3.8272,-3.8612,-3.8594,-3.7909,-3.7564,-3.753,-3.7478,-3.7461,0.0,0.0,-3.8707,-3.8707,0.0,0.0,0.0,0.0,0.0,0.0,0.0,0.0,0.0,0.0,0.0,0.0,0.0,0.0,0.0,0.0,0.0,0.0,0.0,0.0,0.0,0.0,0.0,-3.8269,-3.8417,-3.8499,-3.8499,-3.8627,-3.8707,-3.8707,-3.8707,-3.8707,-3.8707,-3.8707,-3.8707,-3.8707,-3.8707,-3.8707,-3.8707,-3.8707,-3.8707,-3.8707,-3.8707,-3.8707,-3.8707,-3.8707,-3.8707,-3.8707,-3.8707,-3.8707,-3.8707,-3.8707,-3.8707,-3.8707,-3.8707,-3.8707,-3.8707,-3.8707,-3.8707,-3.8707,-3.8707,-3.8707,-3.8707,-3.8707,-3.8707,-3.8707,-3.8707,-3.8707,-3.8707,-3.8707,-3.8707,-3.8707,-3.8707,-3.8707,-3.8707,-3.8707,-3.8707,-3.8611,-3.8352,-3.8401,-3.8051,-3.6701,-3.6512,-3.6451,-3.6322,-3.6301,-3.6301,-3.6301,-3.6301,-3.6301,-3.6301,-3.6301,-3.6301,-3.6301,-3.6301,-3.6301,-3.6301,-3.6559,-3.6697,-3.6697,-3.7456,-3.7875,-3.7875,-3.8116,-3.8237,-3.8237,-3.7737,-3.7198,-3.8765,-3.875,0.0,-3.8765,-3.8765,0.0,-3.8735,0.0,0.0,0.0,0.0,0.0,0.0,0.0,0.0,0.0,0.0,0.0,0.0,0.0,0.0,0.0,0.0,0.0,0.0,0.0,-3.8417,-3.8692,-3.8707,-3.8707,0.0,0.0,-3.8707,-3.8707,-3.8707,-3.8707,-3.8707,-3.8707,-3.8707,-3.8707,-3.8707,-3.8707,-3.8707,-3.8707,-3.8707,-3.8707,-3.8707,-3.8707,-3.8707,-3.8707,-3.8707,-3.8707,-3.8707,-3.8707,-3.8707,-3.8707,-3.8707,-3.8707,-3.8707,-3.8707,-3.8707,-3.8707,-3.8707,-3.8707,-3.8707,-3.8707,-3.8707,-3.8707,-3.8707,-3.8707,-3.8707,-3.8707,-3.8707,-3.8707,-3.8707,-3.8707,-3.8707,-3.8707,-3.8707,-3.8707,-3.8707,-3.8643,-3.8515,-3.8483,-3.8085,-3.69,-3.6739,-3.6618,-3.6343,-3.6301,-3.6301,-3.6301,-3.6301,-3.6301,-3.6301,-3.6301,-3.6301,-3.6301,-3.6301,-3.6301,-3.6301,-3.6301,-3.6559,-3.7111,-3.7077,-3.7335,-3.7892,-3.7818,-3.7767,-3.7767,-3.7284,-3.6801]},{"header":{"parameterUnit":"m.s-1","parameterCategory":1,"la1":30.6,"la2":29.2853,"lo1":-89.7004,"lo2":-87.6739,"dy":0.0162,"dx":0.0183,"nx":112,"ny":82,"refTime":"2023-03-02T06:00:00:Z","depth":0,"parameterNumber":3,"parameterNumberName":"V-component_of_WINDS"},"data":[0.0,0.0,0.0,0.0,0.0,0.0,0.0,0.0,0.0,0.0,0.0,0.0,0.0,0.0,0.0,0.0,0.0,0.0,0.0,0.0,0.0,0.0,0.0,0.0,0.0,0.0,0.0,0.0,0.0,0.0,0.0,0.0,0.0,0.0,0.0,0.0,0.0,0.0,0.0,0.0,0.0,0.0,0.0,0.0,0.0,0.0,0.0,0.0,0.0,0.0,0.0,0.0,0.0,0.0,0.0,0.0,0.0,0.0,0.0,0.0,0.0,0.0,0.0,0.0,0.0,0.0,0.0,0.0,0.0,0.0,0.0,0.0,0.0,0.0,0.0,0.0,0.0,0.0,0.0,0.0,0.0,0.0,0.0,0.0,0.0,0.0,0.0,0.0,0.0,0.0,-2.8819,-2.8139,-2.7464,-2.7138,-2.719,-2.7301,-2.7586,-2.8179,0.0,0.0,0.0,0.0,0.0,0.0,0.0,0.0,0.0,0.0,0.0,0.0,0.0,0.0,0.0,0.0,0.0,0.0,0.0,0.0,0.0,0.0,0.0,0.0,0.0,0.0,0.0,0.0,0.0,0.0,0.0,0.0,0.0,0.0,0.0,0.0,0.0,0.0,0.0,0.0,0.0,0.0,0.0,0.0,0.0,0.0,0.0,0.0,0.0,0.0,0.0,0.0,0.0,0.0,0.0,0.0,0.0,0.0,0.0,0.0,0.0,0.0,0.0,0.0,0.0,0.0,0.0,0.0,0.0,0.0,0.0,0.0,0.0,0.0,0.0,0.0,0.0,0.0,0.0,0.0,0.0,0.0,0.0,0.0,0.0,0.0,0.0,0.0,0.0,0.0,0.0,0.0,0.0,0.0,0.0,0.0,0.0,0.0,0.0,0.0,0.0,0.0,0.0,0.0,-2.8661,-2.7464,-2.691,-2.6745,-2.719,-2.7696,-2.8099,-2.8179,0.0,0.0,0.0,0.0,0.0,0.0,0.0,0.0,0.0,0.0,0.0,0.0,0.0,0.0,0.0,0.0,0.0,0.0,0.0,0.0,0.0,0.0,0.0,0.0,0.0,0.0,0.0,0.0,0.0,0.0,0.0,0.0,0.0,0.0,0.0,0.0,0.0,0.0,0.0,0.0,0.0,0.0,0.0,0.0,0.0,0.0,0.0,0.0,0.0,0.0,0.0,0.0,0.0,0.0,0.0,0.0,0.0,0.0,0.0,0.0,0.0,0.0,0.0,0.0,0.0,0.0,0.0,0.0,0.0,0.0,0.0,0.0,0.0,0.0,0.0,0.0,0.0,0.0,0.0,0.0,0.0,0.0,0.0,0.0,0.0,0.0,0.0,0.0,0.0,0.0,0.0,0.0,0.0,0.0,0.0,0.0,0.0,0.0,0.0,0.0,0.0,0.0,0.0,-2.8597,-2.7891,-2.691,-2.6622,-2.6704,-2.7149,-2.7817,-2.8327,-2.8673,-3.0134,0.0,0.0,0.0,0.0,0.0,0.0,0.0,0.0,0.0,0.0,0.0,0.0,0.0,0.0,0.0,0.0,0.0,0.0,0.0,0.0,0.0,0.0,0.0,0.0,0.0,0.0,0.0,0.0,0.0,0.0,0.0,0.0,0.0,0.0,0.0,0.0,0.0,0.0,0.0,0.0,0.0,0.0,0.0,0.0,0.0,0.0,0.0,0.0,0.0,0.0,0.0,0.0,0.0,0.0,0.0,0.0,0.0,0.0,0.0,0.0,0.0,0.0,0.0,0.0,0.0,0.0,0.0,0.0,0.0,0.0,0.0,0.0,0.0,0.0,0.0,0.0,0.0,0.0,0.0,0.0,0.0,0.0,0.0,0.0,0.0,0.0,0.0,0.0,0.0,0.0,0.0,0.0,0.0,0.0,0.0,0.0,0.0,0.0,0.0,0.0,0.0,0.0,-2.8028,-2.7395,-2.6745,-2.6569,-2.6704,-2.7149,-2.7938,-2.8593,-2.9081,-3.0931,0.0,0.0,0.0,0.0,0.0,0.0,0.0,0.0,0.0,0.0,0.0,0.0,0.0,0.0,0.0,0.0,0.0,0.0,0.0,0.0,0.0,0.0,0.0,0.0,0.0,0.0,0.0,0.0,0.0,0.0,0.0,0.0,0.0,0.0,0.0,0.0,0.0,0.0,0.0,0.0,0.0,0.0,0.0,0.0,0.0,0.0,0.0,0.0,0.0,0.0,0.0,0.0,0.0,0.0,0.0,0.0,0.0,0.0,0.0,0.0,0.0,0.0,0.0,0.0,0.0,0.0,0.0,0.0,0.0,0.0,0.0,0.0,0.0,0.0,0.0,0.0,0.0,0.0,0.0,0.0,0.0,0.0,0.0,0.0,0.0,0.0,0.0,0.0,0.0,0.0,0.0,0.0,0.0,0.0,0.0,0.0,0.0,0.0,0.0,0.0,0.0,0.0,-2.8466,-2.7827,-2.7219,-2.6745,-2.6704,-2.7149,-2.8315,-2.9042,-2.9081,-3.1327,0.0,0.0,0.0,0.0,0.0,0.0,0.0,0.0,0.0,0.0,0.0,0.0,0.0,0.0,0.0,0.0,0.0,0.0,0.0,0.0,0.0,0.0,0.0,0.0,0.0,0.0,0.0,0.0,0.0,0.0,0.0,0.0,0.0,0.0,0.0,0.0,0.0,0.0,0.0,0.0,0.0,0.0,0.0,0.0,0.0,0.0,0.0,0.0,0.0,0.0,0.0,0.0,0.0,0.0,0.0,0.0,0.0,0.0,0.0,0.0,0.0,0.0,0.0,0.0,0.0,0.0,0.0,0.0,0.0,0.0,0.0,0.0,0.0,0.0,0.0,0.0,0.0,0.0,0.0,0.0,0.0,0.0,0.0,0.0,0.0,0.0,0.0,0.0,0.0,0.0,0.0,0.0,0.0,0.0,0.0,0.0,0.0,0.0,0.0,0.0,0.0,0.0,-2.8573,-2.7815,0.0,-2.6928,-2.7062,-2.7377,-2.845,-2.925,-2.9639,0.0,0.0,0.0,0.0,0.0,0.0,0.0,0.0,0.0,0.0,0.0,0.0,0.0,0.0,0.0,0.0,0.0,0.0,0.0,0.0,0.0,0.0,0.0,0.0,0.0,0.0,0.0,0.0,0.0,0.0,0.0,0.0,0.0,0.0,0.0,0.0,0.0,0.0,0.0,0.0,0.0,0.0,0.0,0.0,0.0,0.0,0.0,0.0,0.0,0.0,0.0,0.0,0.0,0.0,0.0,0.0,0.0,0.0,0.0,0.0,0.0,0.0,0.0,0.0,0.0,0.0,0.0,0.0,0.0,0.0,0.0,0.0,0.0,0.0,0.0,0.0,0.0,0.0,0.0,0.0,0.0,0.0,0.0,0.0,0.0,0.0,0.0,0.0,0.0,0.0,0.0,0.0,0.0,0.0,0.0,0.0,0.0,0.0,0.0,0.0,0.0,0.0,-2.9537,-2.8939,-2.8227,0.0,-2.7649,-2.7851,-2.7999,-2.8834,-2.9561,-2.996,0.0,0.0,0.0,0.0,0.0,0.0,0.0,0.0,0.0,0.0,0.0,0.0,0.0,0.0,0.0,0.0,0.0,0.0,0.0,0.0,0.0,0.0,0.0,0.0,0.0,0.0,0.0,0.0,0.0,0.0,0.0,0.0,0.0,0.0,0.0,0.0,0.0,0.0,0.0,0.0,0.0,0.0,0.0,0.0,0.0,0.0,0.0,0.0,0.0,0.0,0.0,0.0,0.0,0.0,0.0,0.0,0.0,0.0,0.0,0.0,0.0,0.0,0.0,0.0,0.0,0.0,0.0,0.0,0.0,0.0,0.0,0.0,0.0,0.0,0.0,0.0,0.0,0.0,0.0,0.0,0.0,0.0,0.0,0.0,0.0,0.0,0.0,0.0,0.0,0.0,0.0,0.0,0.0,0.0,0.0,0.0,0.0,0.0,0.0,0.0,0.0,0.0,-2.9781,-2.9523,-2.9263,-2.8831,-2.8976,-2.9081,-2.9081,-2.9639,-2.9999,0.0,0.0,0.0,0.0,0.0,0.0,0.0,0.0,0.0,0.0,0.0,0.0,0.0,0.0,0.0,0.0,0.0,0.0,0.0,0.0,0.0,0.0,0.0,0.0,0.0,0.0,0.0,0.0,0.0,0.0,0.0,0.0,0.0,0.0,0.0,0.0,0.0,0.0,0.0,0.0,0.0,0.0,0.0,0.0,0.0,0.0,0.0,0.0,0.0,0.0,0.0,0.0,0.0,0.0,0.0,0.0,0.0,0.0,0.0,0.0,0.0,0.0,0.0,0.0,0.0,0.0,0.0,0.0,0.0,0.0,0.0,0.0,0.0,0.0,0.0,0.0,0.0,0.0,0.0,0.0,0.0,0.0,0.0,0.0,0.0,0.0,0.0,0.0,0.0,0.0,0.0,0.0,0.0,0.0,0.0,0.0,0.0,0.0,0.0,0.0,0.0,0.0,0.0,-3.0621,-3.0317,-2.9806,-2.9094,-2.9172,-2.925,-2.9121,-2.9639,-3.019,-3.0672,0.0,0.0,0.0,0.0,0.0,0.0,0.0,0.0,0.0,0.0,0.0,0.0,0.0,0.0,0.0,0.0,0.0,0.0,0.0,0.0,0.0,0.0,0.0,0.0,0.0,0.0,0.0,0.0,0.0,0.0,0.0,0.0,0.0,0.0,0.0,0.0,0.0,0.0,0.0,0.0,0.0,0.0,0.0,0.0,0.0,0.0,0.0,0.0,0.0,0.0,0.0,0.0,0.0,0.0,0.0,0.0,0.0,0.0,0.0,0.0,0.0,0.0,0.0,0.0,0.0,0.0,0.0,0.0,0.0,0.0,0.0,0.0,0.0,0.0,0.0,0.0,0.0,0.0,0.0,0.0,0.0,0.0,0.0,0.0,0.0,0.0,0.0,0.0,0.0,0.0,0.0,0.0,0.0,0.0,0.0,0.0,0.0,0.0,0.0,0.0,0.0,0.0,-3.0874,-3.0596,-3.0241,-2.9806,-2.9922,-2.9999,-2.9871,-3.019,-3.0583,-3.0986,0.0,0.0,0.0,0.0,0.0,0.0,0.0,0.0,0.0,0.0,0.0,0.0,0.0,0.0,0.0,0.0,0.0,0.0,0.0,0.0,0.0,0.0,0.0,0.0,0.0,0.0,0.0,0.0,0.0,0.0,0.0,0.0,0.0,0.0,0.0,0.0,0.0,0.0,0.0,0.0,0.0,0.0,0.0,0.0,0.0,0.0,0.0,0.0,0.0,0.0,0.0,0.0,0.0,0.0,0.0,0.0,0.0,0.0,0.0,0.0,0.0,0.0,0.0,0.0,0.0,0.0,0.0,0.0,0.0,0.0,0.0,0.0,0.0,0.0,0.0,0.0,0.0,0.0,0.0,0.0,0.0,0.0,0.0,0.0,0.0,0.0,0.0,0.0,0.0,0.0,0.0,0.0,0.0,0.0,0.0,0.0,0.0,0.0,0.0,0.0,0.0,0.0,-3.0698,-3.0571,-3.0482,-3.0698,-3.0836,-3.0986,-3.0986,-3.0986,-3.0986,-3.0986,0.0,0.0,0.0,0.0,0.0,0.0,0.0,0.0,0.0,0.0,0.0,0.0,0.0,0.0,0.0,0.0,0.0,0.0,0.0,0.0,0.0,0.0,0.0,0.0,0.0,0.0,0.0,0.0,0.0,0.0,0.0,0.0,0.0,0.0,0.0,0.0,0.0,0.0,0.0,0.0,0.0,0.0,0.0,0.0,0.0,0.0,0.0,0.0,0.0,0.0,0.0,0.0,0.0,0.0,0.0,0.0,0.0,0.0,0.0,0.0,-2.3667,0.0,0.0,0.0,0.0,0.0,0.0,0.0,0.0,0.0,0.0,0.0,0.0,0.0,0.0,0.0,0.0,0.0,0.0,0.0,0.0,0.0,0.0,0.0,0.0,0.0,0.0,0.0,0.0,0.0,0.0,0.0,0.0,0.0,0.0,0.0,0.0,0.0,0.0,0.0,0.0,0.0,-3.0911,-3.0773,-3.066,-3.0698,-3.0736,-3.0773,-3.0773,-3.0911,-3.0986,-3.0986,-3.0986,0.0,0.0,0.0,0.0,0.0,0.0,0.0,0.0,0.0,0.0,0.0,0.0,0.0,0.0,0.0,0.0,0.0,0.0,0.0,0.0,0.0,0.0,0.0,0.0,0.0,0.0,0.0,0.0,0.0,0.0,0.0,0.0,0.0,0.0,0.0,0.0,0.0,0.0,0.0,0.0,0.0,0.0,0.0,0.0,0.0,0.0,0.0,0.0,0.0,0.0,0.0,0.0,0.0,0.0,0.0,0.0,0.0,0.0,0.0,0.0,-2.3764,0.0,0.0,0.0,0.0,0.0,0.0,0.0,0.0,0.0,0.0,0.0,0.0,0.0,0.0,0.0,0.0,0.0,0.0,0.0,0.0,0.0,0.0,0.0,0.0,0.0,0.0,0.0,0.0,0.0,0.0,0.0,0.0,0.0,0.0,0.0,0.0,0.0,0.0,0.0,0.0,-3.0986,-3.0761,-3.0571,-3.0698,-3.0698,-3.0698,-3.0698,-3.0874,-3.0986,-3.0986,-3.0986,0.0,0.0,0.0,0.0,0.0,0.0,0.0,0.0,0.0,0.0,0.0,0.0,0.0,0.0,0.0,0.0,0.0,0.0,0.0,0.0,0.0,0.0,0.0,0.0,0.0,0.0,0.0,0.0,0.0,0.0,0.0,0.0,0.0,0.0,0.0,0.0,0.0,0.0,0.0,0.0,0.0,0.0,0.0,0.0,0.0,0.0,0.0,0.0,0.0,0.0,0.0,0.0,0.0,-1.8973,-1.8973,-1.9058,-2.0384,-2.0765,-2.0493,-2.2201,-2.2987,-2.3101,-2.3567,0.0,0.0,0.0,0.0,0.0,0.0,0.0,0.0,0.0,0.0,0.0,0.0,0.0,0.0,0.0,0.0,0.0,0.0,0.0,0.0,0.0,0.0,0.0,0.0,-3.0986,-3.0986,0.0,0.0,0.0,0.0,0.0,0.0,0.0,0.0,0.0,0.0,0.0,0.0,-3.0755,-3.0401,-3.0162,-3.0325,-3.0363,-3.0363,-3.0363,-3.0628,-3.0792,-3.0792,-3.0921,-3.0986,0.0,0.0,0.0,0.0,0.0,0.0,0.0,0.0,0.0,0.0,0.0,0.0,0.0,0.0,0.0,0.0,0.0,0.0,0.0,0.0,0.0,0.0,0.0,0.0,0.0,0.0,0.0,0.0,0.0,0.0,0.0,0.0,-1.6126,-1.6417,0.0,0.0,0.0,0.0,0.0,0.0,0.0,0.0,0.0,0.0,0.0,0.0,0.0,-1.8104,-1.8145,-1.8145,-1.8145,-1.8145,-1.8145,-1.8145,-1.8186,-1.9479,-2.0036,-2.0068,-2.1403,0.0,-2.2625,-2.3091,0.0,0.0,0.0,0.0,0.0,0.0,0.0,0.0,0.0,0.0,0.0,0.0,0.0,0.0,0.0,0.0,0.0,0.0,0.0,0.0,0.0,0.0,-3.0736,-3.0736,-3.0874,-3.0986,0.0,-3.0986,-3.0986,-3.0986,-3.0986,0.0,0.0,0.0,0.0,0.0,0.0,0.0,-2.9958,-2.9361,-2.8944,-2.8957,-2.8944,-2.8944,-2.8944,-2.9563,-2.9958,-2.9958,-3.0624,-3.0986,-3.0986,-3.0986,0.0,0.0,0.0,0.0,0.0,0.0,0.0,0.0,0.0,0.0,0.0,0.0,0.0,0.0,0.0,0.0,0.0,0.0,0.0,0.0,0.0,0.0,0.0,0.0,0.0,0.0,0.0,0.0,0.0,-1.5707,-1.5472,-1.568,-1.5514,-1.5472,0.0,0.0,0.0,0.0,0.0,0.0,0.0,0.0,0.0,-1.74,-1.7554,-1.7757,-1.8,-1.8,-1.8,-1.8,-1.8,-1.8,-1.8031,-1.8984,-1.9559,-1.9933,-2.0895,-2.1604,-2.2149,-2.2604,-2.2801,-2.2822,0.0,0.0,0.0,0.0,-2.3184,-2.3416,-2.5015,-2.5597,0.0,-2.757,0.0,0.0,0.0,0.0,0.0,0.0,0.0,0.0,0.0,0.0,-2.9923,-2.9923,-2.9996,-3.0019,-3.0019,-3.0019,-3.0124,0.0,-3.0503,-3.0503,-3.0503,0.0,0.0,0.0,0.0,-2.9303,-2.9194,-2.8794,-2.8533,-2.8533,-2.8641,-2.869,-2.869,-2.9088,-2.9339,-2.9339,-2.9681,-3.0004,-3.0329,-3.0429,-3.066,0.0,0.0,0.0,0.0,0.0,0.0,0.0,0.0,0.0,0.0,0.0,0.0,0.0,0.0,0.0,0.0,0.0,0.0,0.0,0.0,0.0,0.0,0.0,0.0,0.0,0.0,0.0,0.0,-1.5389,-1.5382,-1.5333,-1.5309,-1.5258,0.0,0.0,0.0,0.0,0.0,0.0,-1.5927,-1.6257,-1.6681,-1.7131,-1.7432,-1.7716,-1.8,-1.8,-1.8,-1.8,-1.8,-1.8,-1.804,-1.8674,-1.9341,-1.9943,-2.0624,-2.1252,-2.1828,-2.218,-2.2325,-2.2356,-2.2697,-2.2832,-2.2832,-2.2832,-2.2832,-2.306,-2.4646,-2.5207,-2.5472,-2.7151,-2.777,-2.7896,-2.7968,0.0,0.0,0.0,0.0,-2.8928,-2.8928,-2.9012,-2.9097,-2.9203,-2.9239,-2.9239,-2.9274,-2.931,-2.9405,0.0,-2.9915,-2.9915,-2.9915,0.0,0.0,0.0,0.0,-2.8708,-2.8579,-2.8201,-2.798,-2.8028,-2.8148,-2.8219,-2.8267,-2.856,-2.8744,-2.8708,-2.8957,-2.923,-2.9572,-2.9793,-3.0124,-3.0542,0.0,0.0,0.0,0.0,0.0,0.0,0.0,0.0,0.0,0.0,0.0,0.0,0.0,0.0,0.0,0.0,0.0,0.0,0.0,0.0,0.0,0.0,0.0,0.0,0.0,0.0,0.0,0.0,0.0,-1.5144,-1.5015,0.0,0.0,0.0,0.0,-1.3754,-1.389,-1.396,-1.3858,-1.508,-1.5992,-1.6445,-1.7448,-1.8,-1.8,-1.8,-1.8,-1.8,-1.8,-1.8,-1.804,-1.8674,-1.9341,-1.9943,-2.0624,-2.1252,-2.1807,-2.1828,-2.1849,-2.1849,-2.1869,-2.188,-2.188,-2.188,-2.188,-2.2098,-2.3652,-2.4189,-2.4442,-2.6064,-2.6939,-2.7389,-2.7554,-2.8112,0.0,0.0,-2.8726,-2.8726,-2.8726,-2.8569,-2.8556,-2.8928,-2.9035,-2.9084,-2.9274,-2.931,-2.9323,0.0,-2.9327,-2.9327,-2.9327,0.0,-2.9323,-2.9314,-2.8642,-2.8127,-2.8127,-2.7339,-2.6849,-2.7067,-2.6918,-2.6883,-2.7067,-2.7748,-2.8092,-2.7965,-2.8785,-2.9203,-2.9038,-2.9243,-2.9362,-2.9401,-2.9902,0.0,0.0,0.0,0.0,0.0,0.0,0.0,0.0,0.0,0.0,0.0,0.0,0.0,0.0,0.0,0.0,0.0,0.0,0.0,0.0,0.0,0.0,0.0,0.0,0.0,0.0,0.0,0.0,-1.4754,-1.4341,0.0,-1.3978,-1.3564,-1.3426,-1.3641,-1.3743,-1.3892,-1.413,-1.4858,-1.5538,-1.6214,-1.6829,-1.7408,-1.7991,-1.8,-1.8,-1.8,-1.8,-1.8,-1.8,-1.8241,-1.8935,-1.9894,-2.0138,-2.0857,-2.1807,-2.1807,-2.1807,-2.1807,-2.1807,-2.1807,-2.1807,-2.1807,-2.1807,-2.2025,-2.3573,-2.4108,-2.4373,-2.5978,-2.6625,-2.6788,-2.688,-2.7101,-2.7288,-2.7288,-2.7357,-2.7427,-2.7427,-2.7553,-2.7739,-2.7877,-2.7967,-2.8035,-2.8116,-2.815,-2.815,-2.815,-2.8451,-2.8734,-2.8734,-2.8399,-2.8247,-2.8486,-2.7976,-2.7545,-2.7408,-2.7105,-2.6909,-2.699,-2.7045,-2.7066,-2.7011,-2.7237,-2.7306,-2.7121,-2.7567,-2.7954,-2.8267,-2.8998,-2.9548,-2.995,-3.0554,-3.1388,0.0,0.0,0.0,0.0,0.0,0.0,0.0,0.0,0.0,0.0,0.0,0.0,0.0,0.0,0.0,0.0,0.0,0.0,0.0,0.0,0.0,0.0,0.0,0.0,0.0,0.0,-1.4365,-1.3895,-1.3413,-1.308,-1.2903,-1.266,-1.2633,-1.2943,-1.3052,-1.3153,-1.3352,-1.4197,-1.4831,-1.5171,-1.6337,-1.7123,-1.7448,-1.7829,-1.8,-1.8,-1.8,-1.8,-1.8,-1.8,-1.8696,-1.9904,-1.9904,-2.0615,-2.1807,-2.1807,-2.1807,-2.1807,-2.1807,-2.1807,-2.1807,-2.1807,-2.1807,-2.2025,-2.3573,-2.4445,-2.5099,-2.6164,-2.6499,-2.6499,-2.6499,-2.6521,-2.6555,-2.6555,-2.6624,-2.6679,-2.6679,-2.6863,-2.7032,-2.71,-2.7167,-2.7255,-2.7302,-2.7369,-2.7436,-2.7436,-2.7803,-2.8098,-2.8098,-2.7771,-2.7587,-2.7876,-2.7616,-2.7302,-2.718,-2.7113,-2.7113,-2.7146,-2.7235,-2.7268,-2.718,-2.718,-2.7079,-2.6829,-2.7201,-2.7592,-2.7936,-2.8632,-2.922,-2.9673,-3.0571,-3.147,-3.2405,0.0,0.0,0.0,0.0,0.0,0.0,0.0,0.0,0.0,0.0,0.0,0.0,0.0,0.0,0.0,0.0,0.0,0.0,0.0,0.0,0.0,0.0,0.0,-1.4445,-1.3959,-1.3311,-1.2547,-1.2272,-1.1995,-1.1518,-1.1817,-1.1891,-1.1502,-1.1711,-1.1691,-1.1327,-1.3016,-1.3789,-1.3451,-1.6008,-1.709,-1.6445,-1.7489,-1.8,-1.8,-1.8,-1.8,-1.8,-1.8,-1.8696,-1.9904,-1.9904,-2.0615,-2.1807,-2.1807,-2.1807,-2.1807,-2.1807,-2.1807,-2.1807,-2.1807,-2.1807,-2.2052,-2.3573,-2.5146,-2.6452,-2.6499,-2.6499,-2.6499,-2.6499,-2.6589,-2.6679,-2.6679,-2.6679,-2.6679,-2.6679,-2.6589,-2.6521,-2.6692,-2.6679,-2.676,-2.6943,-2.7146,-2.7302,-2.7302,-2.7403,-2.749,-2.749,-2.749,-2.749,-2.749,-2.749,0.0,-2.749,-2.7369,-2.7335,-2.7503,-2.7369,-2.7369,-2.749,-2.749,-2.7369,-2.7079,-2.7842,-2.8208,-2.7986,-2.8241,-2.8449,-2.8578,-2.9885,-3.113,-3.2365,0.0,0.0,0.0,0.0,0.0,0.0,0.0,0.0,0.0,0.0,0.0,0.0,0.0,0.0,0.0,0.0,0.0,0.0,0.0,0.0,0.0,0.0,-1.3205,-1.3446,-1.3398,-1.2944,-1.2049,-1.1489,-1.1208,-1.1276,-1.098,-1.0886,-1.1101,-1.1194,-1.1357,-1.1582,-1.2541,-1.3542,-1.4538,-1.5801,-1.6796,-1.7538,-1.7829,-1.8,-1.8,-1.8,-1.8,-1.8,-1.8,-1.8696,-1.9904,-1.9904,-2.0615,-2.1807,-2.1807,-2.1807,-2.1807,-2.1807,-2.1807,-2.1807,-2.1807,-2.2176,-2.2804,-2.3756,-2.4779,-2.5746,-2.6314,-2.6499,-2.6499,-2.6499,-2.6521,-2.6555,-2.6555,-2.6555,-2.6555,-2.6555,-2.6589,-2.6658,-2.6679,-2.6794,-2.6943,-2.699,-2.7045,-2.7113,-2.7268,-2.7335,-2.7403,-2.7503,-2.749,-2.7469,-2.7369,-2.7436,0.0,-2.718,-2.7302,-2.7436,-2.7369,-2.7403,-2.7556,-2.7842,-2.7436,-2.7423,-2.8065,-2.7993,-2.7908,-2.7861,-2.9075,-3.0054,-3.0658,-3.1042,-3.1382,0.0,0.0,0.0,0.0,0.0,0.0,0.0,0.0,0.0,0.0,0.0,0.0,0.0,0.0,0.0,0.0,0.0,0.0,0.0,0.0,0.0,0.0,-1.282,-1.2476,-1.2193,-1.2175,-1.199,-1.1409,-1.088,-1.0666,-1.0948,-1.0719,-1.0735,-1.1112,-1.1139,-1.1288,-1.1693,-1.224,-1.3118,-1.4287,-1.5213,-1.6214,-1.7326,-1.7627,-1.7838,-1.8,-1.8,-1.8,-1.8,-1.8,-1.8696,-1.9904,-1.9904,-2.0615,-2.1807,-2.1807,-2.1807,0.0,0.0,0.0,0.0,0.0,-2.2327,-2.3102,-2.3829,-2.4636,-2.5418,-2.6245,-2.6499,-2.6499,-2.6499,-2.6499,-2.6499,-2.6499,-2.6499,-2.6499,-2.6499,-2.6555,-2.6624,-2.6624,-2.6705,-2.6773,-2.6773,-2.6841,-2.6909,-2.7032,-2.71,0.0,-2.7268,-2.7369,-2.7403,-2.7302,-2.7302,-2.7268,-2.7214,-2.7268,-2.7302,-2.7302,-2.7302,-2.7403,-2.7689,-2.7523,0.0,0.0,0.0,-2.8675,-2.8771,-2.9747,0.0,0.0,0.0,-3.1219,-3.1511,0.0,0.0,0.0,-3.2781,-3.2886,0.0,0.0,0.0,0.0,0.0,0.0,0.0,0.0,0.0,0.0,0.0,0.0,0.0,0.0,0.0,0.0,-1.2526,-1.2114,-1.0962,-1.0767,-1.0747,-1.0747,-1.0462,-1.0396,-1.0608,-1.0864,-1.1085,-1.1289,-1.1305,-1.1392,-1.1656,0.0,0.0,0.0,0.0,-1.5545,-1.6445,-1.709,-1.7595,-1.791,-1.8,-1.8,-1.8,-1.8,-1.8696,-1.9904,-1.9904,-2.0615,-2.1807,-2.1807,-2.1807,-2.1807,-2.1807,-2.1807,-2.1807,-2.1807,-2.2252,-2.299,-2.3793,0.0,0.0,-2.6211,-2.6499,-2.6499,-2.6499,-2.6499,-2.6499,-2.6499,-2.6499,-2.6499,-2.6499,-2.6499,-2.6499,-2.6499,-2.6499,-2.6499,-2.6499,-2.6589,-2.6692,-2.6679,-2.6829,-2.6977,-2.6977,-2.7146,-2.7268,-2.7235,-2.7146,-2.7146,-2.7369,-2.7235,-2.718,-2.7235,0.0,0.0,-2.7469,-2.7842,-2.8157,-2.8287,-2.9233,-2.9901,-3.016,-3.0221,-3.0342,-3.0584,-3.0584,-3.0896,-3.1511,-3.1511,-3.1511,-3.1511,-3.2108,-3.2378,0.0,0.0,0.0,0.0,0.0,0.0,0.0,0.0,0.0,0.0,0.0,0.0,0.0,0.0,0.0,-1.2709,-1.2194,-1.1632,-1.0887,-1.0587,-1.0412,-1.0412,-1.0339,-1.046,-1.0875,-1.0955,-1.1085,-1.1289,-1.1305,-1.1305,-1.1348,-1.2026,-1.2869,-1.3831,-1.4671,-1.5602,-1.664,-1.7147,-1.7432,-1.7514,0.0,0.0,-1.8,-1.8,-1.8696,-1.9904,-1.9904,-2.0615,-2.1807,-2.1807,-2.1807,-2.1807,-2.1807,-2.1807,-2.1807,-2.1807,-2.1921,-2.2252,-2.361,-2.4192,-2.4552,-2.6025,-2.6499,-2.6499,-2.6499,-2.6499,0.0,-2.6499,-2.6499,-2.6499,-2.6499,-2.6499,-2.6499,-2.6499,-2.6499,-2.6499,-2.6499,-2.6521,-2.6555,-2.6692,-2.6726,-2.676,-2.676,-2.7066,-2.7201,-2.685,-2.7154,-2.7235,-2.676,-2.7477,-2.7743,-2.6884,-2.7941,-2.8624,-2.8514,-2.8578,-2.9044,-3.0038,-2.9808,-2.9931,-3.0642,-3.016,-3.0297,-3.1117,-3.1161,-3.1248,-3.1511,-3.1511,-3.1511,-3.1511,-3.163,-3.169,0.0,0.0,0.0,0.0,0.0,0.0,0.0,0.0,0.0,0.0,0.0,-1.3492,0.0,0.0,-1.32,-1.2305,-1.1892,-1.1372,-1.0481,-1.033,-1.0293,-1.0293,-1.0498,-1.0729,-1.0961,-1.1095,-1.1177,-1.13,-1.1305,-1.1305,-1.1305,-1.1645,-1.2528,-1.3957,-1.4181,-1.5144,-1.7025,-1.7066,-1.727,-1.7716,-1.7919,-1.8,-1.8,-1.8,-1.8696,-1.9904,-1.9904,-2.0615,-2.1807,-2.1807,-2.1807,-2.1807,-2.1807,-2.1807,-2.1807,-2.1807,-2.1807,-2.2025,-2.3573,-2.4108,-2.4373,-2.5978,-2.6499,-2.6499,-2.6499,-2.6499,-2.6499,-2.6499,-2.6499,-2.6499,-2.6499,-2.6499,-2.6499,-2.6499,-2.6499,-2.6499,-2.6499,-2.6499,-2.6521,-2.6589,-2.6589,-2.6589,-2.6589,-2.6829,-2.7053,-2.7222,-2.7696,-2.7947,-2.7809,-2.8143,-2.8228,-2.7796,-2.8371,-2.8803,-2.8803,-2.8844,-2.9219,-3.0044,-2.9791,-2.9821,-3.0324,-3.0393,-3.0717,-3.1278,-3.138,-3.1438,-3.1511,-3.1511,-3.1511,-3.1511,-3.1511,-3.1511,0.0,0.0,0.0,0.0,0.0,0.0,0.0,0.0,-1.3492,-1.3492,-1.3492,-1.3492,-1.3492,-1.3382,-1.2973,-1.1892,-1.1595,-1.1167,-1.0138,-1.0207,-1.0379,-1.0423,-1.0756,-1.1004,-1.1052,-1.1193,-1.1305,-1.1305,-1.1305,-1.1305,-1.1305,-1.1305,-1.2112,-1.3837,-1.3561,-1.4608,-1.7106,-1.6779,-1.6984,-1.7757,-1.7838,-1.7878,-1.7878,-1.7959,-1.8696,-1.9894,-2.0177,-2.0847,-2.1807,-2.1807,-2.1807,-2.1807,-2.1807,-2.1807,-2.1807,-2.1807,-2.1921,-2.2252,-2.361,-2.4192,-2.4552,-2.6025,-2.6499,-2.6499,-2.6499,-2.6499,-2.6499,-2.6499,-2.6499,-2.6499,-2.6499,-2.6499,-2.6499,-2.6499,-2.6499,-2.6499,-2.6499,-2.6499,-2.6499,-2.6499,-2.6499,-2.6499,-2.6499,-2.6679,-2.7019,-2.7477,-2.7914,-2.8293,-2.8573,-2.8565,-2.8551,-2.8565,-2.8634,-2.8732,-2.8775,-2.8836,-2.9013,-2.9407,-2.9421,-2.9566,-2.9842,-3.0456,-3.094,-3.1205,-3.1322,-3.1395,-3.1467,-3.1467,-3.1467,-3.1511,-3.1511,-3.1511,-1.918,-1.8165,-1.6842,-1.6345,-1.5049,-1.385,0.0,0.0,-1.3492,-1.3492,-1.3492,-1.3492,-1.3492,-1.3046,-1.2489,-1.1818,-1.126,-1.075,-1.0334,-1.041,-1.0635,-1.088,-1.095,-1.1069,-1.1246,-1.1289,-1.1305,-1.1305,-1.1305,-1.1305,-1.1305,-1.1305,-1.1989,-1.3434,-1.3434,-1.4321,-1.6211,-1.617,-1.6409,-1.6853,-1.727,-1.7473,-1.7473,-1.7838,-1.8696,-1.9982,-2.1088,-2.1683,-2.1807,-2.1807,-2.1807,-2.1807,-2.1807,-2.1807,-2.1807,-2.1807,-2.2252,-2.299,-2.3793,-2.4564,-2.53,-2.6211,-2.6499,-2.6499,-2.6499,-2.6499,-2.6499,-2.6499,-2.6499,-2.6499,-2.6499,-2.6499,-2.6499,-2.6499,-2.6499,-2.6499,-2.6499,-2.6499,-2.6499,-2.6499,-2.6499,-2.6499,-2.6499,-2.7007,-2.7229,-2.6726,-2.693,-2.7079,-2.6829,-2.7947,-2.8468,-2.7749,-2.8733,-2.929,-2.8756,-2.8712,-2.8754,-2.8811,-2.8811,-2.9044,-2.961,-2.9726,-3.0119,-3.0836,-3.0881,-3.1029,-3.1322,-3.1322,-3.138,-3.1511,-3.1511,-3.1511,-1.811,-1.7402,0.0,0.0,-1.4494,-1.3894,-1.3572,-1.3492,-1.3492,-1.3492,-1.3492,-1.3492,-1.3492,-1.301,-1.2415,0.0,-1.1186,-1.068,-1.0339,-1.0453,-1.0683,-1.0955,-1.1112,-1.1193,-1.1295,-1.1305,-1.1305,-1.1305,-1.1305,-1.1305,-1.1305,-1.1305,-1.1946,-1.3349,-1.3398,-1.4279,-1.6087,-1.6087,-1.6294,-1.6697,-1.7188,-1.7392,-1.7392,-1.7838,-1.8696,-1.9982,-2.1252,-2.1807,-2.1807,-2.1807,-2.1807,-2.1807,-2.1807,-2.1807,-2.1807,-2.1807,-2.2327,-2.3102,-2.3829,-2.4636,-2.5418,-2.6245,-2.6499,-2.6499,-2.6499,-2.6499,-2.6499,-2.6499,-2.6499,-2.6499,-2.6499,-2.6499,-2.6499,-2.6499,-2.6499,-2.6499,-2.6499,-2.6499,-2.6499,-2.6499,-2.6499,-2.6499,-2.6499,-2.6714,-2.6973,-2.7061,-2.7517,-2.798,-2.8274,-2.852,-2.8566,-2.8235,-2.874,-2.8956,-2.8723,-2.8332,-2.8129,-2.8129,-2.8129,-2.8419,-2.9044,-2.9522,-3.0105,-3.0791,-3.0925,-3.1043,-3.1176,-3.1176,-3.1234,-3.138,-3.138,-3.1438,-1.7562,0.0,0.0,-1.4873,-1.423,-1.3894,-1.3572,-1.3492,-1.3492,-1.3492,-1.3492,-1.3492,-1.3492,-1.301,-1.2415,-1.1781,-1.1247,-1.0789,-1.0431,-1.0584,-1.0821,-1.1058,-1.1198,-1.1305,-1.1305,-1.1305,-1.1305,-1.1305,-1.1305,-1.1305,-1.1305,-1.1305,-1.1946,-1.3349,-1.3398,-1.4279,-1.6087,-1.5971,-1.6128,-1.6533,-1.6984,-1.7229,-1.7229,-1.8103,-1.9045,-1.9982,-2.1252,-2.1807,-2.1807,-2.1807,-2.1807,-2.1807,-2.1807,-2.1807,-2.1807,-2.1807,-2.2327,-2.3102,-2.3829,-2.4636,-2.5418,-2.6245,-2.6499,-2.6499,-2.6499,-2.6499,-2.6499,-2.6499,-2.6499,-2.6499,-2.6499,-2.6499,-2.6499,-2.6499,-2.6499,-2.6499,-2.6499,-2.6499,-2.6499,-2.6499,-2.6499,-2.6499,-2.6499,-2.6499,-2.6663,-2.7209,-2.7518,-2.7959,-2.8719,-2.8393,-2.8171,-2.8393,-2.8419,-2.8347,-2.82,-2.7737,-2.7434,-2.7434,-2.7434,-2.7752,-2.839,-2.9143,-2.9842,-3.0455,-3.0793,-3.0984,-3.1014,-3.1014,-3.1117,-3.1307,-3.1307,-3.138,0.0,0.0,-1.6687,-1.5855,-1.4828,-1.3894,-1.3572,-1.3492,-1.3492,-1.3492,-1.3492,-1.3492,-1.3492,-1.301,-1.2415,-1.1781,-1.1399,-1.1042,-1.067,-1.0826,-1.1063,-1.1268,-1.13,-1.1305,0.0,-1.1305,-1.1305,-1.1305,-1.1305,-1.1305,-1.1305,-1.1305,-1.1946,-1.3349,-1.3398,-1.4279,-1.6087,-1.5631,-1.568,-1.6128,-1.6533,-1.673,-1.6771,-1.8877,-1.9855,-1.9982,-2.1252,-2.1807,-2.1807,-2.1807,-2.1807,-2.1807,-2.1807,-2.1807,-2.1807,-2.1807,-2.2327,-2.3102,-2.3829,-2.4636,-2.5418,-2.6245,-2.6499,-2.6499,-2.6499,-2.6499,-2.6499,-2.6499,-2.6499,-2.6499,-2.6499,-2.6499,-2.6499,-2.6499,-2.6499,-2.6499,-2.6499,-2.6499,-2.6499,-2.6499,-2.6499,-2.6499,-2.6499,-2.6499,-2.657,-2.6707,-2.614,-2.5942,-2.668,-2.6752,-2.7014,-2.7645,-2.7724,-2.7478,-2.6922,-2.6849,-2.6849,-2.6849,-2.6849,-2.7099,-2.771,-2.8376,-2.9028,-2.961,-3.0292,-3.0672,-3.0791,-3.0791,-3.0969,-3.1307,-3.1307,-3.138,0.0,0.0,-1.5533,-1.4759,-1.4275,-1.3894,-1.3572,-1.3492,-1.3492,-1.3492,-1.3492,-1.3492,-1.3492,-1.301,-1.2476,-1.2024,-1.152,-1.1111,-1.0892,-1.0934,-1.1074,-1.1278,-1.1305,0.0,0.0,0.0,0.0,-1.1305,-1.1305,-1.1305,-1.1305,-1.1305,-1.1946,-1.3349,-1.3398,-1.411,-1.5631,-1.5472,-1.5639,-1.6095,-1.682,-1.7546,-1.8273,-1.9402,-2.0138,-2.0615,-2.1443,-2.1807,-2.1807,-2.1807,-2.1807,-2.1807,-2.1807,-2.1807,-2.1807,-2.1807,-2.2327,-2.3102,-2.3829,-2.4636,-2.5418,-2.6245,-2.6499,-2.6499,-2.6499,-2.6499,-2.6499,-2.6499,-2.6499,-2.6499,-2.6499,-2.6499,-2.6499,-2.6499,-2.6499,-2.6499,-2.6499,-2.6499,-2.6499,-2.6499,-2.6499,-2.6499,-2.6499,-2.6172,-2.5673,-2.502,-2.5396,-2.5676,-2.5519,-2.5498,-2.5751,-2.6424,-2.6518,-2.6596,-2.6767,-2.6806,-2.6806,-2.6806,-2.6806,-2.707,-2.7681,-2.8347,-2.8971,-2.9581,-3.0248,-3.0612,-3.0672,-3.0672,-3.0762,-3.0969,-3.0969,-3.1117,0.0,-1.5589,-1.4762,-1.4133,-1.3894,-1.3755,-1.3543,-1.3492,-1.3492,-1.3492,-1.3492,-1.3492,-1.3492,-1.3286,-1.2862,-1.2203,-1.194,-1.1634,-1.1064,-1.1058,-1.1171,-1.1289,-1.1305,-1.1305,0.0,0.0,0.0,-1.1305,-1.1305,-1.1305,-1.1305,-1.1305,-1.1946,-1.3349,-1.3398,-1.4026,-1.5389,-1.5389,-1.5714,-1.6335,-1.6861,-1.7789,-1.9002,-1.9638,-2.0265,-2.0944,-2.153,-2.1807,-2.1807,-2.1807,-2.1807,-2.1807,-2.1807,-2.1807,-2.1807,-2.1807,-2.2327,-2.3102,-2.3829,-2.4636,-2.5418,-2.6245,-2.6499,-2.6499,-2.6499,-2.6499,-2.6499,-2.6499,-2.6499,-2.6499,-2.6499,-2.6499,-2.6499,-2.6499,-2.6499,-2.6499,-2.6499,-2.6499,-2.6499,-2.6499,-2.6499,-2.6424,-2.6223,-2.5523,-2.4782,-2.4104,-2.4682,-2.5057,-2.4661,-2.4817,-2.5197,-2.5812,-2.6084,-2.6367,-2.6779,-2.6806,-2.6806,-2.6806,-2.6806,-2.6968,-2.7374,-2.7998,-2.8637,-2.9276,-2.9914,-3.035,-3.0598,-3.0598,-3.0672,-3.0791,-3.0791,-3.0969,-1.6291,-1.5408,-1.4508,-1.4097,-1.3726,-1.3492,-1.3492,-1.3492,-1.3492,-1.3492,-1.3492,-1.3499,0.0,0.0,-1.3566,-1.235,-1.2536,-1.2442,-1.1208,-1.116,-1.1305,0.0,0.0,0.0,0.0,0.0,0.0,-1.1305,0.0,-1.1305,-1.1305,-1.1354,-1.1989,-1.3349,-1.344,-1.4075,-1.5389,-1.5431,-1.588,-1.6689,-1.6738,-1.7578,-1.9082,-1.9638,-2.0265,-2.0982,-2.153,-2.1807,-2.1807,-2.1807,-2.1807,-2.1807,-2.1807,-2.1807,-2.1807,-2.1807,-2.2327,-2.3176,-2.3877,-2.4636,-2.5418,-2.6245,-2.6499,-2.6499,-2.6499,-2.6499,-2.6499,-2.6499,-2.6499,-2.6499,-2.6499,-2.6499,-2.6499,-2.6499,-2.6499,-2.6499,-2.6499,-2.6499,-2.6499,-2.6499,-2.6474,-2.6273,-2.5649,-2.4682,-2.3991,-2.3954,-2.4022,-2.406,-2.4102,-2.4624,-2.5245,-2.5839,-2.642,-2.6779,-2.6806,-2.6806,-2.6806,-2.6806,-2.6806,-2.6806,-2.6806,-2.7389,-2.7985,-2.8651,-2.929,-2.9914,-3.0554,-3.0583,-3.0672,-3.0791,-3.0791,-3.0969,-1.6034,-1.5246,-1.4453,-1.3807,-1.3558,-1.3492,-1.3492,-1.3492,-1.3492,-1.3492,-1.3492,-1.3572,0.0,0.0,0.0,-1.2766,-1.2386,0.0,-1.1315,-1.1268,0.0,-1.1305,0.0,-1.1305,-1.1305,-1.1305,0.0,0.0,-1.1305,-1.1305,-1.1305,-1.1817,-1.2497,-1.3355,-1.3899,-1.4531,-1.5389,-1.6038,-1.6492,-1.6697,-1.7343,-1.8376,-1.9678,-1.9825,-2.0498,-2.1568,-2.1731,-2.1807,-2.1807,-2.1807,-2.1807,-2.1807,-2.1807,-2.1807,-2.1807,-2.1807,-2.2644,-2.3841,-2.4036,-2.4636,-2.5418,-2.6245,-2.6499,-2.6499,-2.6499,-2.6499,-2.6499,-2.6499,-2.6499,-2.6499,-2.6499,-2.6499,-2.6499,-2.6499,-2.6499,-2.6499,-2.6499,-2.6499,-2.6499,-2.6499,-2.6147,-2.5649,-2.5109,-2.4456,-2.3853,-2.3396,-2.3346,-2.3543,-2.4044,-2.4624,-2.5245,-2.5839,-2.6029,-2.6313,-2.6753,-2.6806,-2.6806,-2.6806,-2.6806,-2.6806,-2.6806,-2.7389,-2.7782,-2.7942,-2.9029,-2.9668,-2.9871,-3.035,-3.0612,-3.0642,-3.0642,-3.0762,-1.6341,-1.5666,-1.4895,-1.4158,-1.3985,-1.3912,-1.3564,-1.3492,-1.3536,-1.3675,-1.3711,0.0,0.0,0.0,0.0,0.0,0.0,0.0,-1.1419,-1.1305,-1.1305,0.0,-1.1305,0.0,-1.1305,-1.1305,-1.1305,0.0,-1.1305,-1.1305,-1.1305,-1.1983,-1.2711,-1.3398,-1.4062,-1.4741,-1.5389,-1.588,-1.6327,-1.6697,-1.718,-1.8287,-1.9904,-1.9904,-2.0615,-2.1807,0.0,-2.1807,-2.1807,-2.1807,-2.1807,-2.1807,-2.1807,-2.1807,-2.1807,-2.1807,-2.2569,-2.3658,-2.3975,-2.4636,-2.5418,-2.6245,-2.6499,-2.6499,-2.6499,-2.6499,-2.6499,-2.6499,-2.6499,-2.6499,-2.6499,-2.6499,-2.6499,-2.6499,-2.6499,-2.6499,-2.6499,-2.6499,-2.6411,-2.6172,-2.5636,-2.5084,-2.4556,-2.396,-2.3471,-2.3158,-2.3335,-2.3649,-2.4031,-2.4408,-2.4823,-2.5453,-2.5508,-2.5852,-2.6727,-2.6568,-2.642,-2.642,-2.642,-2.6272,-2.6015,-2.634,-2.6762,-2.7295,-2.7997,-2.8785,-2.9595,-2.9987,-3.0306,-3.0598,-3.0598,-3.0672,-1.6941,-1.6342,-1.5601,-1.4852,-1.464,-1.4426,-1.3763,-1.3623,-1.3704,-1.4027,0.0,-1.4188,-1.4472,-1.4598,-1.4259,-1.3146,0.0,-1.2674,-1.1478,-1.1305,-1.1305,-1.1305,-1.1305,-1.1305,-1.1305,-1.1305,-1.1305,-1.1305,-1.1305,-1.1305,-1.1305,-1.2069,-1.2875,-1.3646,-1.423,-1.4824,-1.5389,-1.5472,-1.588,-1.6615,-1.6648,-1.7764,-1.9786,-1.9786,-2.0498,-2.1769,-2.1769,0.0,-2.1807,-2.1807,-2.1807,-2.1807,-2.1807,-2.1807,-2.1807,-2.1807,-2.2327,-2.3102,-2.3829,-2.4636,-2.5418,-2.6245,-2.6499,-2.6499,-2.6499,-2.6499,-2.6499,-2.6499,-2.6499,-2.6499,-2.6499,-2.6499,-2.6499,-2.6499,-2.6499,-2.6499,-2.6499,-2.6436,-2.6235,-2.5686,-2.5121,-2.4556,-2.4079,-2.3484,-2.3108,-2.3108,-2.3603,-2.3985,-2.3985,-2.4118,-2.4436,-2.4922,-2.5007,-2.5412,-2.6474,-2.6084,-2.5784,-2.5784,-2.5866,-2.566,-2.5133,-2.5189,-2.573,-2.6778,-2.6863,-2.7712,-2.9349,-2.9436,-2.9827,-3.0481,-3.0481,-3.0585,-1.7079,-1.6502,-1.5953,-1.5185,-1.4751,-1.4489,-1.4381,-1.4335,0.0,0.0,0.0,-1.4479,-1.4761,-1.396,0.0,-1.3325,0.0,0.0,0.0,0.0,-1.1305,0.0,0.0,0.0,0.0,0.0,0.0,0.0,0.0,-1.1305,-1.1305,-1.2497,-1.3773,-1.5006,-1.5173,-1.5257,-1.5389,-1.5763,-1.6046,-1.6211,-1.6533,-1.757,-1.9155,-1.9155,-2.0031,-2.154,-2.154,0.0,-2.1807,-2.1807,-2.1807,-2.1807,-2.1807,-2.1807,-2.1807,-2.1807,-2.2327,-2.3102,-2.3829,-2.4636,-2.5418,-2.6245,-2.6499,-2.6499,-2.6499,-2.6499,-2.6499,-2.6499,-2.6499,-2.6499,-2.6499,-2.6499,-2.6499,-2.6499,-2.6499,-2.6499,-2.6499,-2.6122,-2.5724,-2.5611,-2.4808,-2.4117,-2.4017,-2.3484,-2.3108,-2.3108,-2.3198,-2.3275,-2.3275,-2.4192,-2.4879,-2.4979,-2.5007,-2.5063,-2.53,-2.5217,-2.5161,-2.5161,-2.5633,-2.5866,-2.5743,-2.6218,-2.6597,-2.6792,-2.7285,-2.7687,-2.8029,-2.8594,-2.9174,-2.9755,-2.9755,-3.0074,-1.8263,-1.7633,-1.6963,-1.6229,-1.5539,-1.4948,-1.4582,0.0,0.0,0.0,-1.4714,-1.4816,-1.5097,0.0,0.0,0.0,0.0,0.0,0.0,0.0,0.0,0.0,0.0,0.0,0.0,0.0,0.0,0.0,0.0,-1.1478,-1.186,-1.3173,-1.4363,-1.5389,-1.5389,-1.5389,-1.5389,-1.5631,-1.5839,-1.6095,-1.6763,-1.7723,-1.9036,-1.949,-2.0323,-2.1502,-2.1502,0.0,-2.1807,-2.1807,-2.1807,-2.1807,-2.1807,-2.1807,-2.1807,-2.1807,-2.2025,-2.2478,-2.3276,-2.4022,-2.4814,-2.5616,-2.6176,-2.6499,-2.6499,-2.6499,-2.6499,-2.6499,-2.6499,-2.6499,-2.6499,-2.6499,-2.6499,-2.6499,-2.6499,-2.6499,-2.6499,-2.6034,-2.5523,-2.5247,-2.4544,-2.3904,-2.3602,-2.3283,-2.3108,-2.3108,-2.3108,-2.3108,-2.3108,-2.3649,-2.4134,-2.4481,-2.4221,-2.4266,-2.4951,-2.4709,-2.4538,-2.4538,-2.4808,-2.4808,-2.4452,-2.4709,-2.5049,-2.5398,-2.5687,-2.6147,-2.675,-2.7074,-2.7725,-2.8654,-2.8654,-2.8986,-1.9287,-1.8739,-1.7968,-1.7412,-1.6673,-1.5927,-1.5168,-1.4978,0.0,0.0,-1.5009,-1.5082,-1.5338,0.0,0.0,0.0,0.0,0.0,0.0,0.0,0.0,0.0,0.0,0.0,0.0,0.0,0.0,0.0,0.0,0.0,-1.2583,-1.376,-1.4699,-1.5389,-1.5389,-1.5389,-1.5389,-1.5389,-1.5597,-1.5963,-1.6837,-1.7796,-1.8838,-1.9696,-2.0576,-2.1359,-2.1359,0.0,0.0,-2.1731,-2.1769,-2.1807,-2.1807,-2.1807,-2.1807,-2.1807,-2.1807,-2.1921,-2.2703,-2.3386,-2.3975,-2.4791,-2.5699,-2.6499,-2.6499,-2.6499,-2.6499,-2.6499,-2.6499,-2.6499,-2.6499,-2.6499,-2.6499,-2.6499,-2.6499,-2.6499,-2.6499,-2.5946,-2.531,-2.4863,-2.4268,-2.3665,-2.3183,-2.3108,-2.3108,-2.3108,-2.3108,-2.3108,-2.3108,-2.3108,-2.3305,-2.3839,-2.3395,-2.3514,-2.4509,-2.4176,-2.3897,-2.3897,-2.4002,-2.3855,-2.3335,-2.3454,-2.3767,-2.4292,-2.4292,-2.4765,-2.5714,-2.5714,-2.6289,-2.7393,-2.7393,-2.7709,-1.9287,-1.8929,-1.8517,-1.8441,-1.8118,-1.7533,-1.6684,0.0,0.0,-1.5496,-1.5345,-1.5352,-1.5382,-1.4915,-1.423,0.0,0.0,-1.2198,0.0,0.0,0.0,0.0,0.0,0.0,0.0,0.0,0.0,0.0,0.0,0.0,-1.3319,-1.4019,-1.4699,-1.5389,-1.5389,-1.5389,-1.5389,-1.5389,-1.5431,-1.5472,-1.6345,-1.7229,-1.8118,-1.8975,-1.9981,-2.0945,-2.0945,0.0,0.0,-2.154,-2.1655,-2.1807,-2.1807,-2.1807,-2.1807,-2.1807,-2.1807,-2.1921,-2.2703,-2.3027,-2.3213,-2.3986,-2.5252,-2.6499,-2.6499,-2.6499,-2.6499,-2.6499,-2.6499,-2.6499,-2.6499,-2.6499,-2.6499,-2.6499,-2.6499,-2.6499,-2.6499,-2.5636,-2.485,-2.48,-2.3923,-2.317,-2.3108,-2.3108,-2.3108,-2.3108,-2.3108,-2.3108,-2.3108,-2.3108,-2.3138,-2.3198,-2.3138,-2.3138,-2.3275,-2.3215,-2.3198,-2.3198,-2.3767,-2.406,-2.4015,-2.4538,-2.4838,-2.4922,-2.4922,-2.4978,-2.5089,-2.5089,-2.543,-2.6074,-2.6074,-2.6433,-2.0096,-1.9553,-1.9015,-1.9015,-1.8125,-1.7147,-1.678,0.0,-1.5824,-1.5465,-1.5389,-1.5389,-1.5389,-1.5173,-1.4677,-1.3737,0.0,0.0,0.0,0.0,0.0,0.0,0.0,0.0,0.0,0.0,0.0,0.0,0.0,0.0,-1.3411,-1.4405,-1.5124,-1.5389,-1.5389,-1.5389,-1.5389,-1.5389,-1.5389,-1.5431,-1.6829,-1.7666,-1.8037,-1.945,-2.0372,-2.0906,-2.0906,0.0,0.0,-2.132,-2.1359,-2.1436,-2.1436,-2.1502,-2.1617,-2.1617,-2.1693,-2.1845,-2.2187,-2.259,-2.3102,-2.3877,-2.485,-2.5781,-2.5781,-2.6141,-2.6499,-2.6499,-2.6499,-2.6499,-2.6499,-2.6499,-2.6499,-2.6499,-2.6499,-2.6499,-2.6499,-2.5598,-2.4788,-2.4788,-2.3885,-2.3108,-2.3108,-2.3108,-2.3108,-2.3108,-2.3108,-2.3108,-2.3108,-2.3108,-2.3108,-2.3108,-2.3108,-2.3108,-2.3108,-2.3108,-2.3108,-2.3108,-2.3335,-2.3514,-2.3514,-2.3738,-2.3872,-2.3872,-2.3872,-2.3872,-2.3872,-2.3872,-2.4194,-2.4826,-2.4826,-2.515,-2.0605,-2.0167,-1.9618,-1.9341,-1.8367,-1.735,0.0,0.0,-1.5707,-1.5465,-1.5389,-1.5389,-1.5389,-1.5462,-1.5212,-1.4202,0.0,-1.3501,0.0,0.0,0.0,0.0,0.0,0.0,0.0,0.0,0.0,0.0,0.0,0.0,-1.401,-1.488,-1.5389,-1.5389,-1.5389,-1.5389,-1.5389,-1.5389,-1.5389,-1.5431,-1.7155,-1.7997,-1.8078,-1.9805,-2.0693,-2.0819,-2.0819,0.0,0.0,-2.1099,-2.1138,-2.1205,-2.1205,-2.1282,-2.1397,-2.1397,-2.1502,-2.1617,-2.1693,-2.2063,-2.2654,-2.3217,-2.395,-2.4623,-2.4623,-2.5488,-2.6499,-2.6499,-2.6499,-2.6499,-2.6499,-2.6499,-2.6499,-2.6499,-2.6499,-2.6499,-2.6499,-2.5724,-2.5008,-2.4813,-2.401,-2.3308,-2.3133,-2.3108,-2.3108,-2.3108,-2.3108,-2.3108,-2.3108,-2.3108,-2.3108,-2.3108,-2.3108,-2.3108,-2.3108,-2.3108,-2.3108,-2.3108,-2.3108,-2.3108,-2.3108,-2.3108,-2.3108,-2.3108,-2.3108,-2.3108,-2.3108,-2.3108,-2.3335,-2.3809,-2.3809,-2.4031,-2.0605,-2.0605,-2.0372,-1.9539,-1.9301,-1.8816,0.0,0.0,-1.646,-1.559,-1.5389,-1.5389,-1.5389,-1.5652,-1.5691,-1.4979,-1.4522,0.0,0.0,0.0,0.0,0.0,0.0,0.0,0.0,0.0,0.0,0.0,0.0,0.0,-1.5335,-1.5389,-1.5389,-1.5389,-1.5389,-1.5389,-1.5389,-1.5389,-1.5389,-1.5431,-1.7155,-1.7997,-1.8078,-1.9805,-2.0605,0.0,0.0,0.0,0.0,-2.0906,-2.1022,-2.1205,-2.1205,-2.1205,-2.1205,-2.1205,-2.1205,-2.1244,-2.1425,-2.1502,-2.154,-2.1769,-2.2365,-2.3038,-2.3038,-2.4659,-2.6499,-2.6499,-2.6499,-2.6499,-2.6499,-2.6499,-2.6499,-2.6499,-2.6499,-2.6499,-2.6499,-2.6034,-2.5435,-2.4888,-2.4368,-2.3803,-2.3195,-2.3108,-2.3108,-2.3108,-2.3108,-2.3108,-2.3108,-2.3108,-2.3108,-2.3108,-2.3108,-2.3108,-2.3108,-2.3108,-2.3108,-2.3108,-2.3108,-2.3108,-2.3108,-2.3108,-2.3108,-2.3108,-2.3108,-2.3108,-2.3108,-2.3108,-2.3108,-2.3108,-2.3108,-2.3108,-2.1025,-2.0357,-1.9657,-1.9381,-1.8399,-1.7391,-1.6821,0.0,-1.5816,-1.5758,-1.5717,-1.5826,-1.603,-1.6155,-1.6074,-1.5514,-1.5307,0.0,0.0,0.0,0.0,0.0,0.0,0.0,0.0,0.0,0.0,0.0,0.0,0.0,-1.4727,-1.5166,-1.5389,-1.5389,-1.5389,-1.5389,-1.5389,-1.5389,-1.5389,-1.5431,-1.7155,-1.7997,-1.8078,-1.9805,-2.0605,0.0,0.0,0.0,0.0,-2.0693,-2.0731,-2.0809,-2.0809,-2.0858,-2.0984,-2.0984,-2.1099,-2.1205,-2.1282,-2.1282,-2.1436,-2.2155,-2.2596,-2.2931,-2.3548,-2.4636,-2.5769,-2.6349,-2.6499,-2.6499,-2.6499,-2.6499,-2.6499,-2.6499,-2.6499,-2.6499,-2.6499,-2.6034,-2.5548,-2.5385,-2.4619,-2.3941,-2.3753,-2.3358,-2.3108,-2.3108,-2.3108,-2.3108,-2.3108,-2.3108,-2.3108,-2.3108,-2.3108,-2.3108,-2.3108,-2.3108,-2.3108,-2.3108,-2.3108,-2.3108,-2.3108,-2.3108,-2.3108,-2.3108,-2.3108,-2.3108,-2.3108,-2.3108,-2.3108,-2.3108,-2.3108,-2.3108,0.0,-2.0614,-1.9629,-1.9295,-1.8128,0.0,0.0,0.0,-1.584,-1.6045,-1.6089,-1.6148,-1.6382,-1.6514,-1.6481,-1.6215,-1.6019,0.0,0.0,0.0,0.0,0.0,0.0,0.0,0.0,0.0,0.0,0.0,0.0,0.0,-1.4811,-1.5173,-1.5389,-1.5389,-1.5389,-1.5389,-1.5389,-1.5389,-1.5389,-1.5431,-1.7155,-1.7997,-1.8078,-1.9805,-2.0605,0.0,0.0,0.0,0.0,-2.0605,-2.0605,-2.0605,-2.0605,-2.0693,-2.078,-2.078,-2.0858,-2.0964,-2.1051,-2.1099,-2.1205,-2.2004,-2.2306,-2.2521,-2.3401,-2.4432,-2.5418,-2.5921,-2.628,-2.6499,-2.6499,-2.6499,-2.6499,-2.6499,-2.6499,-2.6499,-2.6499,-2.621,-2.585,-2.5636,-2.4908,-2.4243,-2.4029,-2.3484,-2.3108,-2.3108,-2.3108,-2.3108,-2.3108,-2.3108,-2.3108,-2.3108,-2.3108,-2.3108,-2.3108,-2.3108,-2.3108,-2.3108,-2.3108,-2.3108,-2.3108,-2.3108,-2.3108,-2.3108,-2.3108,-2.3108,-2.3108,-2.3108,-2.3108,-2.3108,-2.3108,-2.3108,0.0,0.0,0.0,0.0,0.0,0.0,0.0,0.0,0.0,0.0,0.0,-1.6455,-1.6477,-1.6727,-1.6939,-1.6939,0.0,0.0,0.0,0.0,0.0,0.0,0.0,0.0,0.0,0.0,0.0,0.0,0.0,0.0,-1.5362,-1.5389,-1.5389,-1.5389,-1.5389,-1.5389,-1.5389,-1.5389,-1.5389,-1.5431,-1.7115,-1.7957,-1.8078,-1.9717,-2.0527,0.0,0.0,0.0,0.0,-2.0605,-2.0605,-2.0605,-2.0605,-2.0605,-2.0605,-2.0605,-2.0605,-2.0644,-2.0819,-2.0867,-2.0935,-2.1359,-2.1617,-2.1921,-2.2665,-2.3936,-2.5158,-2.5194,-2.5769,-2.6418,-2.6418,-2.6452,-2.6499,-2.6499,-2.6499,-2.6499,-2.6499,-2.6499,-2.6336,-2.5762,-2.5234,-2.4707,-2.4155,-2.3547,-2.3145,-2.3108,-2.3108,-2.3108,-2.3108,-2.3108,-2.3108,-2.3108,-2.3108,-2.3108,-2.3108,-2.3108,-2.3108,-2.3108,-2.3108,-2.3108,-2.3108,-2.3108,-2.3108,-2.3108,-2.3108,-2.3108,-2.3108,-2.3108,-2.3108,-2.3108,-2.3108,-2.3108,0.0,0.0,0.0,0.0,0.0,0.0,0.0,0.0,0.0,0.0,0.0,0.0,0.0,0.0,0.0,0.0,0.0,0.0,0.0,0.0,0.0,0.0,0.0,0.0,0.0,0.0,0.0,0.0,0.0,-1.5554,-1.5403,-1.5389,-1.5389,-1.5389,-1.5389,-1.5389,-1.5389,-1.5389,-1.5389,-1.5431,-1.6509,-1.735,-1.8037,-1.9134,-1.9971,0.0,0.0,0.0,-2.0605,-2.0605,-2.0605,-2.0605,-2.0605,-2.0605,-2.0605,-2.0605,-2.0605,-2.0605,-2.0644,-2.0654,-2.0731,-2.1128,-2.132,-2.1425,-2.1911,-2.2767,-2.3644,-2.424,-2.4969,-2.5594,-2.5594,-2.6025,-2.6499,-2.6499,-2.6499,-2.6499,-2.6499,-2.6499,-2.6449,-2.6323,-2.5799,-2.5247,-2.4687,-2.4167,-2.364,-2.317,-2.3108,-2.3108,-2.3108,-2.3108,-2.3108,-2.3108,-2.3108,-2.3108,-2.3108,-2.3108,-2.3108,-2.3108,-2.3108,-2.3108,-2.3108,-2.3108,-2.3108,-2.3108,-2.3108,-2.3108,-2.3108,-2.3108,-2.3108,-2.3108,-2.3108,-2.3108,-2.2555,-2.1057,0.0,0.0,0.0,0.0,0.0,0.0,0.0,0.0,0.0,0.0,0.0,0.0,0.0,0.0,0.0,0.0,0.0,0.0,0.0,0.0,0.0,0.0,0.0,0.0,0.0,0.0,0.0,-1.5571,-1.5396,-1.5389,-1.5389,-1.5389,-1.5389,-1.5389,-1.5389,-1.5389,-1.5389,-1.5431,-1.6296,-1.7147,-1.8037,-1.8895,-1.9775,0.0,0.0,0.0,-2.0605,-2.0605,-2.0605,-2.0605,-2.0605,-2.0605,-2.0605,-2.0605,-2.0605,-2.0605,-2.0605,-2.0654,-2.078,-2.0974,-2.1128,-2.1244,-2.1474,-2.1845,-2.2365,-2.3338,-2.4168,-2.4755,-2.4755,-2.5335,-2.5955,-2.5955,-2.6245,-2.6499,-2.6499,-2.6499,-2.6499,-2.6499,-2.6021,-2.5511,-2.5222,-2.4519,-2.3891,-2.3547,-2.3283,-2.3108,-2.3108,-2.3108,-2.3108,-2.3108,-2.3108,-2.3108,-2.3108,-2.3108,-2.3108,-2.3108,-2.3108,-2.3108,-2.3108,-2.3108,-2.3108,-2.3108,-2.3108,-2.3108,-2.3108,-2.3108,-2.3108,-2.3108,-2.3108,-2.3108,-2.1961,-2.0962,-2.0187,-2.0005,0.0,0.0,0.0,0.0,0.0,0.0,0.0,0.0,0.0,0.0,0.0,0.0,0.0,0.0,0.0,0.0,0.0,0.0,0.0,0.0,0.0,0.0,0.0,0.0,0.0,-1.5389,-1.5389,-1.5389,-1.5389,-1.5389,-1.5389,-1.5389,-1.5389,-1.5389,-1.5389,-1.5431,-1.6296,-1.7147,-1.8037,-1.8895,-1.9775,-2.0605,0.0,0.0,-2.0605,-2.0605,-2.0605,-2.0605,-2.0605,-2.0605,-2.0605,-2.0605,-2.0605,-2.0605,-2.0605,-2.0693,-2.0867,-2.0906,-2.0974,-2.1128,-2.1167,-2.1167,-2.1349,-2.244,-2.3302,-2.3891,-2.3891,-2.4492,-2.5158,-2.5276,-2.5816,-2.6349,-2.6452,-2.6499,-2.6499,-2.6499,-2.6097,-2.5699,-2.5611,-2.4782,-2.4092,-2.4017,-2.3471,-2.3108,-2.3108,-2.3108,-2.3108,-2.3108,-2.3108,-2.3108,-2.3108,-2.3108,-2.3108,-2.3108,-2.3108,-2.3108,-2.3108,-2.3108,-2.3108,-2.3108,-2.3108,-2.3108,-2.3108,-2.3108,-2.3108,-2.3108,-2.3108,-2.3108,-2.1961,-2.0962,-2.0014,-1.9193,0.0,0.0,0.0,0.0,0.0,0.0,0.0,0.0,0.0,0.0,0.0,0.0,0.0,0.0,0.0,0.0,0.0,0.0,0.0,0.0,0.0,0.0,0.0,0.0,0.0,-1.5389,-1.5389,-1.5389,-1.5389,-1.5389,-1.5389,-1.5389,-1.5389,-1.5389,-1.5389,-1.5431,-1.6296,-1.7147,-1.8037,-1.8895,-1.9775,-2.0605,0.0,-2.0605,-2.0605,-2.0605,-2.0605,-2.0605,-2.0605,-2.0605,-2.0605,-2.0605,-2.0605,-2.0605,-2.0605,-2.0605,-2.0654,-2.0829,-2.0819,-2.076,-2.1089,-2.1099,-2.1022,-2.1397,-2.2155,-2.2909,-2.2909,-2.361,-2.4445,-2.5123,-2.5382,-2.5664,-2.6349,-2.6499,-2.6499,-2.6499,-2.6424,-2.621,-2.5686,-2.5096,-2.4531,-2.4067,-2.3471,-2.3108,-2.3108,-2.3108,-2.3108,-2.3108,-2.3108,-2.3108,-2.3108,-2.3108,-2.3108,-2.3108,-2.3108,-2.3108,-2.3108,-2.3108,-2.3108,-2.3108,-2.3108,-2.3108,-2.3108,-2.3108,-2.3108,-2.3108,-2.3108,-2.3108,-2.1961,-2.0962,-1.996,-1.9018,0.0,0.0,0.0,0.0,0.0,0.0,0.0,0.0,0.0,0.0,0.0,0.0,0.0,0.0,0.0,0.0,0.0,0.0,0.0,0.0,0.0,0.0,0.0,0.0,0.0,0.0,-1.5389,-1.5389,-1.5389,-1.5389,-1.5389,-1.5389,-1.5389,-1.5865,-1.6105,-1.6105,-1.6501,-1.7391,-1.8727,-1.9134,-1.9775,-2.0605,0.0,-2.0605,-2.0605,-2.0605,-2.0605,-2.0605,-2.0605,-2.0605,-2.0605,-2.0605,-2.0605,-2.0605,-2.0605,-2.0605,-2.0605,-2.0693,-2.0693,-2.0644,-2.0809,-2.0809,-2.077,-2.0848,-2.1377,-2.1901,-2.1901,-2.2547,-2.3316,-2.3793,-2.4528,-2.5264,-2.5734,-2.6107,-2.6361,-2.6499,-2.6396,-2.6286,-2.6113,-2.5598,-2.5059,-2.4519,-2.3966,-2.3459,-2.3145,-2.3108,-2.3108,-2.3108,-2.3108,-2.3108,-2.3108,-2.3108,-2.3108,-2.3108,-2.3108,-2.3108,-2.3108,-2.3108,-2.3108,-2.3108,-2.3108,-2.3108,-2.3108,-2.3108,-2.3108,-2.3108,-2.3108,-2.3108,-2.1961,-2.0962,-1.996,-1.8972,0.0,0.0,0.0,0.0,0.0,0.0,0.0,0.0,0.0,0.0,0.0,0.0,0.0,0.0,0.0,0.0,0.0,0.0,0.0,0.0,0.0,0.0,0.0,0.0,0.0,0.0,-1.5389,-1.5389,-1.5389,-1.5389,-1.5389,-1.5389,-1.5389,-1.6064,-1.6501,-1.6698,-1.7107,-1.7997,-1.9301,-1.9499,-1.9971,-2.0605,-2.0605,-2.0605,-2.0605,-2.0605,-2.0605,-2.0605,-2.0605,-2.0605,-2.0605,-2.0605,-2.0605,-2.0605,-2.0605,-2.0605,-2.0605,-2.0605,-2.0605,-2.0605,-2.0605,-2.0605,-2.0605,-2.0605,-2.0809,-2.1089,-2.1128,-2.1634,-2.222,-2.2547,-2.3537,-2.4492,-2.4826,-2.5229,-2.5606,-2.5756,-2.5699,-2.5676,-2.5838,-2.5406,-2.4902,-2.4521,-2.3993,-2.3452,-2.2868,-2.2794,-2.2807,-2.2866,-2.2884,-2.2944,-2.3078,-2.3108,-2.3108,-2.3108,-2.3108,-2.3108,-2.3108,-2.3108,-2.3108,-2.3108,-2.3108,-2.3108,-2.3108,-2.3108,-2.3108,-2.3108,-2.3108,-2.3108,-2.1961,-2.0962,-1.9914,-1.875,-1.7878,0.0,-1.7279,-1.7153,0.0,0.0,0.0,0.0,0.0,0.0,0.0,0.0,0.0,0.0,0.0,0.0,0.0,0.0,0.0,0.0,0.0,0.0,0.0,0.0,0.0,0.0,-1.5389,-1.5389,-1.5389,-1.5389,-1.5389,-1.5389,-1.5389,-1.5472,-1.5906,-1.6739,-1.8318,-1.9183,-1.9341,-2.0128,-2.0527,-2.0605,-2.0605,-2.0605,-2.0605,-2.0605,-2.0605,-2.0605,-2.0605,-2.0605,-2.0605,-2.0605,-2.0605,-2.0605,-2.0605,-2.0605,-2.0605,-2.0605,-2.0605,-2.0605,-2.0605,-2.0605,-2.0605,-2.0605,-2.0605,-2.0683,-2.0858,-2.1089,-2.1492,-2.2247,-2.251,-2.2798,-2.3489,-2.3661,-2.3708,-2.3697,-2.3854,-2.3963,-2.4,-2.3695,-2.3456,-2.3421,-2.2949,-2.242,-2.197,-2.1901,-2.1975,-2.2161,-2.2175,-2.2421,-2.3047,-2.3108,-2.3108,-2.3108,-2.3108,-2.3108,-2.3108,-2.3108,-2.3108,-2.3108,-2.3108,-2.3108,-2.3108,-2.3108,-2.3108,-2.3108,-2.3108,-2.3108,-2.1961,-2.1418,-2.0692,-1.8842,-1.8203,0.0,0.0,-1.6824,0.0,0.0,0.0,0.0,0.0,0.0,0.0,0.0,0.0,0.0,0.0,0.0,0.0,0.0,0.0,0.0,0.0,0.0,0.0,0.0,0.0,0.0,-1.5389,-1.5389,-1.5389,-1.5389,-1.5389,-1.5389,-1.5389,-1.6476,-1.7196,-1.7513,-1.8158,-1.9045,-2.0128,-2.045,-2.0605,-2.0605,-2.0605,-2.0605,-2.0605,-2.0605,-2.0605,-2.0605,-2.0605,-2.0605,-2.0605,-2.0605,-2.0605,-2.0605,-2.0605,-2.0605,-2.0605,-2.0605,-2.0605,-2.0605,-2.0605,-2.0605,-2.0605,-2.0605,-2.0605,-2.0605,-2.0693,-2.077,-2.0925,-2.1377,-2.1804,-2.2264,-2.2723,-2.3084,-2.3331,-2.3489,-2.3441,-2.3478,-2.3588,-2.3623,-2.3504,-2.3161,-2.3062,-2.28,-2.2297,-2.1977,-2.1812,-2.1908,-2.1658,-2.1596,-2.1815,-2.1729,-2.1686,-2.1686,-2.2555,-2.3108,-2.3108,-2.3108,-2.3108,-2.3108,-2.3108,-2.3108,-2.3108,-2.3108,-2.3108,-2.3108,-2.3017,-2.3,-2.2325,-2.1926,-2.1239,0.0,0.0,0.0,0.0,0.0,0.0,0.0,0.0,0.0,0.0,0.0,0.0,0.0,0.0,0.0,0.0,0.0,0.0,0.0,0.0,0.0,0.0,0.0,0.0,0.0,0.0,0.0,0.0,-1.5389,-1.5389,-1.5389,-1.5389,-1.5389,-1.5389,-1.6591,-1.7318,-1.7594,-1.7594,-1.8638,-2.0605,-2.0605,-2.0605,-2.0566,-2.0333,-2.0206,-2.0167,-1.9883,-1.9923,-2.0206,-2.0206,-2.0372,-2.0605,-2.0605,-2.0605,-2.0605,-2.0605,-2.0605,-2.0605,-2.0605,-2.0605,-2.0605,-2.0605,-2.0605,-2.0605,-2.0605,-2.0605,-2.0605,-2.0605,-2.0605,-2.0644,-2.078,-2.1203,-2.1593,-2.1794,-2.2124,-2.2414,-2.2563,-2.2526,-2.2499,-2.2649,-2.2909,-2.2911,-2.251,-2.26,-2.2532,-2.1941,-2.1576,-2.136,-2.1308,-2.1099,-2.0921,-2.0921,-2.0814,-2.0728,-2.0728,-2.1729,-2.231,-2.231,-2.231,-2.2402,-2.2628,-2.2628,-2.2732,-2.2969,-2.2969,-2.2969,-2.2969,-2.2878,-2.286,-2.3091,-2.2413,0.0,0.0,0.0,0.0,0.0,0.0,0.0,0.0,0.0,0.0,0.0,0.0,0.0,0.0,0.0,0.0,0.0,0.0,0.0,0.0,0.0,0.0,0.0,0.0,0.0,0.0,0.0,0.0,0.0,-1.5431,-1.5431,-1.5389,-1.5431,-1.5431,-1.5382,-1.5431,-1.5824,-1.669,-1.6698,-1.806,-2.0566,-2.0566,-2.0566,-2.0527,-1.9657,-1.9301,-1.9222,-1.8367,-1.8527,-1.9301,-1.9301,-1.9814,-2.0605,-2.0605,-2.0605,-2.0605,-2.0605,-2.0605,-2.0605,-2.0605,-2.0605,-2.0605,-2.0605,-2.0605,-2.0605,-2.0605,-2.0605,-2.0605,-2.0605,-2.0605,-2.0605,-2.0605,-2.0605,-2.0605,-2.0605,-2.0605,-2.0605,-2.0605,-2.078,-2.0906,-2.0906,-2.1244,-2.1436,-2.1244,-2.1359,-2.1263,-2.0591,-2.0504,-2.0435,-2.0213,-2.0424,-2.0602,-2.0602,-2.059,-2.059,-2.059,-2.059,-2.059,-2.059,-2.059,-2.091,-2.1585,-2.1585,-2.1951,-2.2678,-2.2678,-2.2678,-2.2678,-2.2678,-2.269,-2.3091,0.0,0.0,0.0,0.0,0.0,0.0,0.0,0.0,0.0,0.0,0.0,0.0,0.0,0.0,0.0,0.0,0.0,0.0,0.0,0.0,0.0,0.0,0.0,0.0,0.0,0.0,0.0,0.0,0.0,0.0,-1.5982,-1.6023,-1.5431,-1.5982,-1.5909,-1.5046,-1.5901,-1.6335,-1.6365,-1.7227,-1.8037,-1.8758,-1.8758,-1.8758,-1.8758,-1.8479,-1.8407,-1.8367,-1.8118,-1.8158,-1.8447,-1.9054,-1.946,-1.9775,-2.0362,-2.0605,-2.0605,-2.0605,-2.0605,-2.0605,-2.0605,-2.0605,-2.0605,-2.0605,-2.0605,-2.0605,-2.0605,-2.0605,-2.0605,-2.0605,-2.0605,-2.0605,-2.0605,-2.0605,-2.0605,-2.0605,-2.0605,-2.0605,-2.0605,-2.0644,-2.0693,-2.0693,-2.0896,-2.1061,-2.0984,-2.1177,-2.1082,-2.0554,-2.0504,-2.0347,-1.9966,-1.9741,-1.9609,-1.9609,-1.9241,-1.8988,-1.8988,-1.8854,-1.9299,-2.0558,-2.059,-2.0687,-2.0878,-2.091,-2.1005,-2.1207,-2.1207,-2.1207,-2.1207,-2.108,-2.1017,-2.3091,0.0,0.0,0.0,0.0,0.0,0.0,0.0,0.0,0.0,0.0,0.0,0.0,0.0,0.0,0.0,0.0,0.0,0.0,0.0,0.0,0.0,0.0,0.0,0.0,0.0,0.0,0.0,0.0,0.0,0.0,-1.6583,-1.646,-1.594,-1.6419,-1.6133,-1.49,-1.5604,-1.5873,-1.5673,-1.6437,-1.6863,-1.6992,-1.7674,-1.7997,-1.7997,-1.7634,-1.7269,-1.696,-1.696,-1.7155,-1.7553,-1.8447,-1.9015,-1.942,-2.0284,-2.0605,-2.0605,-2.0605,-2.0605,-2.0605,-2.0605,-2.0605,-2.0605,-2.0605,-2.0605,-2.0605,-2.0605,-2.0605,-2.0605,-2.0605,-2.0605,-2.0605,-2.0605,-2.0605,-2.0605,-2.0605,-2.0605,-2.0605,-2.0605,-2.0605,-2.0605,-2.0605,-2.078,-2.0867,-2.078,-2.0886,-2.0874,-2.0558,-2.0379,-2.016,-1.9855,-1.9326,-1.8969,-1.8969,-1.8493,-1.8178,-1.8178,-1.8076,-1.8462,-1.9529,-1.9562,-1.9694,-1.9944,-1.9944,-2.0117,-2.0409,-2.0409,-2.0409,-2.0409,-2.0279,-2.0215,0.0,0.0,0.0,0.0,0.0,0.0,0.0,0.0,0.0,0.0,0.0,0.0,0.0,0.0,0.0,0.0,0.0,0.0,0.0,0.0,0.0,0.0,0.0,0.0,0.0,0.0,0.0,0.0,0.0,0.0,0.0,-1.7302,-1.6854,-1.6698,-1.6748,-1.6168,-1.4863,-1.4856,-1.4856,-1.4856,-1.4885,-1.5075,-1.5465,-1.7033,-1.7755,-1.7715,-1.6944,-1.6147,-1.5389,-1.5389,-1.5865,-1.6657,-1.7553,-1.8367,-1.9173,-2.005,-2.0362,-2.0362,-2.045,-2.0479,-2.0489,-2.0566,-2.0605,-2.0605,-2.0605,-2.0605,-2.0605,-2.0605,-2.0605,-2.0605,-2.0605,-2.0605,-2.0605,-2.0605,-2.0605,-2.0605,-2.0605,-2.0605,-2.0605,-2.0605,-2.0605,-2.0605,-2.0605,-2.0741,-2.0819,-2.0644,-2.0605,-2.0605,-2.0605,-2.0215,-1.9971,-1.9971,-1.9202,-1.8695,-1.8666,-1.8276,-1.8047,-1.8008,-1.8008,-1.8008,-1.8008,-1.8008,-1.8303,-1.8911,-1.8911,-1.9243,-1.9911,-1.9911,-1.9911,-1.9911,-1.9911,-1.9911,0.0,0.0,0.0,0.0,0.0,0.0,0.0,0.0,0.0,0.0,0.0,0.0,0.0,0.0,0.0,0.0,0.0,0.0,0.0,0.0,0.0,0.0,0.0,0.0,0.0,0.0,0.0,0.0,0.0,0.0,-1.7997,-1.8487,-1.8118,-1.6739,-1.711,-1.6442,-1.4614,-1.4575,-1.4575,0.0,-1.4783,-1.5075,-1.5431,-1.579,-1.5948,-1.5955,-1.5748,-1.559,-1.5389,-1.5389,-1.5506,-1.5782,-1.6624,-1.7107,-1.7342,-1.8238,-1.8559,-1.8647,-1.9332,-1.9578,-1.9696,-2.0372,-2.0605,-2.0605,-2.0605,-2.0605,-2.0605,-2.0605,-2.0605,-2.0605,-2.0605,-2.0605,-2.0605,-2.0605,-2.0605,-2.0605,-2.0605,-2.0605,-2.0605,-2.0605,-2.0605,-2.0605,-2.0605,-2.0644,-2.0644,-2.0605,-2.0605,-2.0605,-2.0605,-2.0517,-2.0458,-2.0458,-1.9951,-1.9502,-1.918,-1.8715,-1.8325,-1.8037,-1.8008,-1.8008,-1.8008,-1.8008,-1.8076,-1.8202,-1.8202,-1.8303,-1.8438,-1.8438,-1.8438,-1.8438,-1.8438,-1.8438,0.0,0.0,0.0,0.0,0.0,0.0,0.0,0.0,0.0,0.0,0.0,0.0,0.0,0.0,0.0,0.0,0.0,0.0,0.0,0.0,0.0,0.0,0.0,0.0,0.0,0.0,0.0,0.0,0.0,-1.8807,-1.9244,-1.9292,-1.8687,-1.7342,-1.7787,-1.6874,-1.4511,-1.4682,-1.4599,-1.4238,-1.456,-1.497,-1.5389,-1.5389,-1.5389,-1.5389,-1.5389,-1.5389,-1.5389,-1.5389,-1.5389,-1.5506,-1.6378,-1.6698,-1.6821,-1.7674,-1.7997,-1.8118,-1.9015,-1.9301,-1.946,-2.0323,-2.0605,-2.0605,-2.0605,-2.0605,-2.0605,-2.0605,-2.0605,-2.0605,-2.0605,-2.0605,-2.0605,-2.0605,-2.0605,-2.0605,-2.0605,-2.0605,-2.0605,-2.0605,-2.0605,-2.0605,-2.0605,-2.0605,-2.0605,-2.0605,-2.0605,-2.0605,-2.0605,-2.0605,-2.0605,-2.0605,-2.0176,-1.9824,-1.9609,-1.9199,-1.8769,-1.8295,-1.8276,-1.8188,-1.8018,-1.8008,-1.8008,-1.8008,-1.8008,-1.8008,-1.8008,-1.8008,-1.8008,-1.8008,-1.8008,-1.8008,0.0,0.0,0.0,0.0,0.0,0.0,0.0,0.0,0.0,0.0,0.0,0.0,0.0,0.0,0.0,0.0,0.0,0.0,0.0,0.0,0.0,0.0,0.0,0.0,0.0,0.0,0.0,0.0,0.0,-1.9854,-2.0566,-1.9932,-1.9054,-1.8037,-1.8422,-1.7338,-1.4738,-1.4985,-1.4815,-1.4201,-1.444,-1.486,-1.5389,-1.5389,-1.5389,-1.5389,-1.5389,-1.5389,-1.5389,-1.5389,-1.5389,-1.5465,-1.618,-1.6501,-1.6542,-1.7277,-1.7553,-1.7683,-1.8567,-1.8935,-1.9213,-2.0089,-2.0489,-2.0605,-2.0605,-2.0605,-2.0605,-2.0605,-2.0605,-2.0605,-2.0605,-2.0605,-2.0605,-2.0605,-2.0605,-2.0605,-2.0605,-2.0605,-2.0605,-2.0605,-2.0605,-2.0605,-2.0605,-2.0605,-2.0605,-2.0605,-2.0605,-2.0605,-2.0605,-2.0605,-2.0605,-2.0605,-2.0244,-2.0,-1.9922,-1.959,-1.9209,-1.8744,-1.8715,-1.8529,-1.8135,-1.8081,-1.8086,-1.8008,-1.8008,-1.8008,-1.8008,-1.8008,-1.8008,-1.8008,-1.8008,-1.8008,0.0,0.0,0.0,0.0,0.0,0.0,0.0,0.0,0.0,0.0,0.0,0.0,0.0,0.0,0.0,0.0,0.0,0.0,0.0,0.0,0.0,0.0,0.0,0.0,0.0,0.0,0.0,0.0,-1.9883,-2.0489,-2.0605,-2.0489,-1.9678,-1.8037,-1.8509,-1.7684,-1.5474,-1.5332,-1.5157,-1.4956,-1.4896,-1.5031,-1.5389,-1.5389,-1.5389,-1.5389,-1.5389,-1.5389,-1.5389,-1.5389,-1.5389,-1.5431,-1.5548,-1.559,-1.559,-1.5707,-1.5756,-1.5873,-1.6747,-1.7553,-1.8318,-1.9173,-1.9971,-2.0605,-2.0605,-2.0605,-2.0605,-2.0605,-2.0605,-2.0605,-2.0605,-2.0605,-2.0605,-2.0605,-2.0605,-2.0605,-2.0605,-2.0605,-2.0605,-2.0605,-2.0605,-2.0605,-2.0605,-2.0605,-2.0605,-2.0605,-2.0605,-2.0605,-2.0605,-2.0605,-2.0605,-2.0605,-2.0546,-2.0322,-1.9941,-1.9863,-1.9648,-1.9228,-1.9199,-1.9004,-1.8539,-1.852,-1.8344,-1.8018,-1.8008,-1.8008,-1.8008,-1.8008,-1.8008,-1.8008,-1.8008,-1.8008,0.0,0.0,0.0,0.0,0.0,0.0,0.0,0.0,0.0,0.0,0.0,0.0,0.0,0.0,0.0,0.0,0.0,0.0,0.0,0.0,0.0,0.0,0.0,0.0,0.0,0.0,0.0,0.0,-1.9932,-2.0255,-2.042,-2.0411,-1.9893,-1.8767,-1.9169,-1.821,-1.5688,-1.584,-1.5543,-1.4774,-1.4695,-1.494,-1.5389,-1.5389,-1.5389,-1.5389,-1.5389,-1.5389,-1.5389,-1.5389,-1.5389,-1.5389,-1.5389,-1.5389,-1.5389,-1.5389,-1.5389,-1.5506,-1.6419,-1.6935,-1.7513,-1.8856,-1.9578,-1.9971,-2.045,-2.0605,-2.0605,-2.0605,-2.0605,-2.0605,-2.0605,-2.0605,-2.0605,-2.0605,-2.0605,-2.0605,-2.0605,-2.0605,-2.0605,-2.0605,-2.0605,-2.0605,-2.0605,-2.0605,-2.0605,-2.0605,-2.0605,-2.0605,-2.0605,-2.0605,-2.0605,-2.0605,-2.0605,-2.0527,-2.0293,-2.0283,-2.0098,-1.9668,-1.9639,-1.9443,-1.9023,-1.8734,-1.852,-1.8325,-1.8091,-1.8008,-1.8008,-1.8008,-1.8008,-1.8008,-1.8008,-1.8008,0.0,0.0,0.0,0.0,0.0,0.0,0.0,0.0,0.0,0.0,0.0,0.0,0.0,0.0,0.0,0.0,0.0,0.0,0.0,0.0,0.0,0.0,0.0,0.0,0.0,0.0,0.0,0.0,-1.9863,-1.999,-2.0186,-2.0264,-1.9863,-1.8935,-1.9436,-1.847,-1.5824,-1.6076,-1.564,-1.455,-1.4589,-1.4842,-1.534,-1.5389,-1.5389,-1.5389,-1.5389,-1.5389,-1.5389,-1.5389,-1.5389,-1.5389,-1.5389,-1.5389,-1.5389,-1.5389,-1.5389,-1.5506,-1.6139,-1.6501,-1.6903,-1.8198,-1.8935,-1.942,-2.0089,-2.0401,-2.0605,-2.0605,-2.0605,-2.0605,-2.0605,-2.0605,-2.0605,-2.0605,-2.0605,-2.0605,-2.0605,-2.0605,-2.0605,-2.0605,-2.0605,-2.0605,-2.0605,-2.0605,-2.0605,-2.0605,-2.0605,-2.0605,-2.0605,-2.0605,-2.0605,-2.0605,-2.0605,-2.0605,-2.0605,-2.0605,-2.0468,-2.0098,-2.0078,-1.9893,-1.9463,-1.9131,-1.8822,-1.8607,-1.8295,-1.8081,-1.8008,-1.8008,-1.8008,-1.8008,-1.8008,-1.8008,0.0,0.0,0.0,0.0,0.0,0.0,0.0,0.0,0.0,0.0,0.0,0.0,0.0,0.0,0.0,0.0,0.0,0.0,0.0,0.0,0.0,0.0,0.0,0.0,0.0,0.0,0.0,0.0,-1.9784,-1.9902,-1.9902,-2.0147,-1.9548,-1.7853,-1.8798,-1.8276,-1.6087,-1.577,-1.5272,-1.4588,-1.4797,-1.4972,-1.5131,-1.5305,-1.5389,-1.5389,-1.5389,-1.5389,-1.5389,-1.5389,-1.5389,-1.5389,-1.5389,-1.5389,-1.5389,-1.5389,-1.5389,-1.5431,-1.5465,-1.6023,-1.6698,-1.6821,-1.7957,-1.9301,-1.9341,-1.9932,-2.0605,-2.0605,-2.0605,-2.0605,-2.0605,-2.0605,-2.0605,-2.0605,-2.0605,-2.0605,-2.0605,-2.0605,-2.0605,-2.0605,-2.0605,-2.0605,-2.0605,-2.0605,-2.0605,-2.0605,-2.0605,-2.0605,-2.0605,-2.0605,-2.0605,-2.0605,-2.0605,-2.0605,-2.0605,-2.0605,-2.0595,-2.0576,-2.0566,-2.0332,-1.9902,-1.9863,-1.9426,-1.8617,-1.8578,-1.8373,-1.8008,-1.8008,-1.8008,-1.8008,-1.8008,-1.8008,0.0,0.0,0.0,0.0,0.0,0.0,0.0,0.0,0.0,0.0,0.0,0.0,0.0,0.0,0.0,0.0,0.0,0.0,0.0,0.0,0.0,0.0,0.0,0.0,0.0,0.0,0.0,0.0,0.0,-1.9587,-1.9715,-1.9794,-1.9627,-1.9143,-1.8935,-1.7857,-1.5792,-1.4904,-1.4439,-1.4407,-1.4488,-1.4652,-1.4866,-1.4908,-1.495,-1.4957,-1.5124,-1.5257,-1.5389,-1.5389,-1.5389,-1.5389,-1.5389,-1.5389,-1.5389,-1.5389,-1.5389,-1.5389,-1.5389,-1.5582,-1.5948,-1.6542,-1.7107,-1.7755,-1.8278,-1.9094,-1.9775,-1.9775,-2.0167,-2.0605,-2.0605,-2.0605,-2.0605,-2.0605,-2.0605,-2.0605,-2.0605,-2.0605,-2.0605,-2.0605,-2.0605,-2.0605,-2.0605,-2.0605,-2.0605,-2.0605,-2.0605,-2.0605,-2.0605,-2.0605,-2.0605,-2.0605,-2.0605,-2.0605,-2.0605,-2.0605,-2.0605,-2.0605,-2.0605,-2.0537,-2.038,-2.0059,-1.9766,-1.9426,-1.888,-1.8393,-1.8008,-1.8008,-1.8008,-1.8008,-1.8008,-1.8008,0.0,0.0,0.0,0.0,0.0,0.0,0.0,0.0,0.0,0.0,0.0,0.0,0.0,0.0,0.0,0.0,0.0,0.0,0.0,0.0,0.0,0.0,0.0,0.0,0.0,0.0,0.0,0.0,0.0,0.0,-1.9478,-1.9557,-1.9429,-1.9045,-1.8198,-1.6984,-1.5316,-1.4505,-1.4189,-1.431,-1.4392,-1.4496,-1.4608,-1.465,-1.4692,-1.4692,-1.4908,-1.509,-1.5298,-1.5389,-1.5389,-1.5389,-1.5389,-1.5389,-1.5389,-1.5389,-1.5389,-1.5389,-1.5389,-1.5389,-1.5506,-1.6064,-1.646,-1.6821,-1.7391,-1.8158,-1.8856,-1.8856,-1.9292,-1.9726,-1.9726,-1.9923,-2.0255,-2.0527,-2.0605,-2.0605,-2.0605,-2.0605,-2.0605,-2.0605,-2.0605,-2.0605,-2.0605,-2.0605,-2.0605,-2.0605,-2.0605,-2.0605,-2.0605,-2.0605,-2.0605,-2.0605,-2.0605,-2.0605,-2.0605,-2.0605,-2.0605,-2.0605,-2.0605,-2.0605,-2.0605,-2.0283,-2.0059,-1.9912,-1.9319,-1.8754,-1.8188,-1.8076,-1.8008,-1.8008,-1.8008,-1.8008,0.0,0.0,0.0,0.0,0.0,0.0,0.0,0.0,0.0,0.0,0.0,0.0,0.0,0.0,0.0,0.0,0.0,0.0,0.0,0.0,0.0,0.0,0.0,0.0,0.0,0.0,0.0,0.0,-1.9301,-1.9301,-1.9301,-1.9478,-1.8856,-1.7302,-1.6501,-1.5643,-1.4692,-1.4692,-1.4566,-1.4398,-1.4608,-1.4566,-1.4398,-1.4608,-1.4692,-1.4692,-1.4692,-1.4824,-1.509,-1.5298,-1.5389,-1.5389,-1.5389,-1.5389,-1.5389,-1.5389,-1.5389,-1.5389,-1.5389,-1.5389,-1.5389,-1.5389,-1.5982,-1.6657,-1.6657,-1.7269,-1.7957,-1.7957,-1.7997,-1.7997,-1.7997,-1.8647,-1.9499,-2.0362,-2.0566,-2.0566,-2.0605,-2.0605,-2.0605,-2.0605,-2.0605,-2.0605,-2.0605,-2.0605,-2.0605,-2.0605,-2.0605,-2.0605,-2.0605,-2.0605,-2.0605,-2.0605,-2.0605,-2.0605,-2.0605,-2.0605,-2.0605,-2.0566,-2.0605,-2.0605,-2.0605,-2.0605,-2.04,-1.9941,-1.9922,-1.9465,-1.8637,-1.8208,-1.8018,-1.8008,-1.8008,-1.8008,-1.8056,0.0,0.0,0.0,0.0,0.0,0.0,0.0,0.0,0.0,0.0,0.0,0.0,0.0,0.0,0.0,0.0,0.0,0.0,0.0,0.0,0.0,0.0,0.0,0.0,0.0,0.0,0.0,-1.9301,-1.9301,-1.9301,-1.8736,-1.7674,-1.5966,-1.5718,-1.5151,-1.4292,-1.425,-1.425,-1.4159,-1.425,-1.425,-1.4159,-1.425,-1.425,-1.4292,-1.4398,-1.4524,-1.4615,-1.4999,-1.5173,-1.5215,-1.5347,-1.5389,-1.5389,-1.5389,-1.5389,-1.5389,-1.5389,-1.5389,-1.5389,-1.5389,-1.5548,-1.5748,-1.5748,-1.6386,-1.7058,-1.7058,-1.7504,-1.7997,-1.7997,-1.8158,-1.8567,-1.945,-1.9657,-1.9814,-2.044,-2.0605,-2.0605,-2.0605,-2.0605,-2.0605,-2.0605,-2.0605,-2.0605,-2.0605,-2.0605,-2.0605,-2.0605,-2.0605,-2.0605,-2.0605,-2.0605,-2.0527,-2.0381,-2.0372,-2.0303,-2.0098,-2.0264,-2.0372,-2.0372,-2.0527,-2.0546,-2.0429,-1.9926,-1.9655,-1.9524,-1.8792,-1.8266,-1.8008,-1.8008,-1.8008,0.0,0.0,0.0,0.0,0.0,0.0,-1.9338,-1.9886,0.0,0.0,0.0,0.0,0.0,0.0,0.0,0.0,0.0,0.0,0.0,0.0,0.0,0.0,0.0,0.0,0.0,-1.9301,-1.9301,-1.9301,-1.9301,-1.9301,-1.9301,-1.8487,-1.7391,-1.6008,-1.5594,-1.4985,-1.413,-1.4088,-1.4088,-1.4088,-1.4088,-1.4088,-1.4088,-1.4088,-1.4088,-1.413,-1.4201,-1.4279,-1.4279,-1.4657,-1.4873,-1.4957,-1.5041,-1.5173,-1.5257,-1.5257,-1.534,-1.5389,-1.5389,-1.5389,-1.5389,-1.5389,-1.5389,-1.5389,-1.5389,-1.5748,-1.6139,-1.6139,-1.6509,-1.6992,-1.7277,-1.7391,-1.7674,-1.8567,-1.8966,-1.9292,-1.9805,-2.0128,-2.0372,-2.0566,-2.0605,-2.0566,-2.0489,-2.045,-2.045,-2.0333,-2.0294,-2.0294,-2.0294,-2.0294,-2.0294,-2.0294,-2.0294,-2.0255,-2.0147,-2.0137,-2.0069,-1.9902,-2.0069,-2.0137,-2.0137,-2.0255,-2.0294,-2.0294,-1.9937,-1.9688,-1.9658,-1.9066,-1.8585,-1.8237,-1.8086,-1.8008,0.0,0.0,0.0,0.0,0.0,0.0,-1.9613,-1.9886,-2.0204,0.0,0.0,0.0,0.0,0.0,0.0,0.0,0.0,0.0,0.0,0.0,0.0,0.0,0.0,0.0,-1.9347,-1.9301,-1.9301,-1.9301,-1.9301,-1.9222,-1.9015,-1.8278,-1.7432,-1.6453,-1.5677,-1.4866,-1.413,-1.4088,-1.4088,-1.4088,-1.4088,-1.4088,-1.4088,-1.4088,-1.4088,-1.4088,-1.4088,-1.4088,-1.413,-1.4279,-1.4482,-1.465,-1.4692,-1.4866,-1.5048,-1.5048,-1.5173,-1.5298,-1.5298,-1.5298,-1.5298,-1.5298,-1.5298,-1.5298,-1.5298,-1.5298,-1.5298,-1.5298,-1.5298,-1.5465,-1.6072,-1.6337,-1.6698,-1.7553,-1.823,-1.8669,-1.8798,-1.9244,-1.9736,-2.0157,-2.0401,-2.045,-2.0303,-2.0264,-2.0186,-1.9942,-1.9902,-1.9902,-1.9902,-1.9902,-1.9902,-1.9902,-1.9902,-1.9902,-1.9863,-1.9863,-1.9863,-1.9824,-1.9863,-1.9863,-1.9863,-1.995,-1.9968,-1.9968,-1.9968,-1.9779,-1.9325,-1.9087,-1.8819,-1.8527,-1.8183,-1.7988,0.0,0.0,0.0,0.0,0.0,0.0,-1.6615,-1.7311,-1.7924,0.0,0.0,0.0,0.0,0.0,0.0,0.0,0.0,0.0,0.0,0.0,0.0,0.0,0.0,0.0,-1.9375,-1.9301,-1.9301,-1.9301,-1.9301,-1.8687,-1.7261,-1.7066,-1.6206,-1.4657,-1.4454,-1.425,-1.4088,-1.4088,-1.4088,-1.4088,-1.4088,-1.4088,-1.4088,-1.4088,-1.4088,-1.4088,-1.4088,-1.4088,-1.4088,-1.4124,-1.4286,-1.4482,-1.465,-1.4734,-1.4783,-1.4783,-1.4783,-1.4824,-1.4824,-1.4824,-1.4824,-1.4824,-1.4824,-1.4824,-1.4824,-1.4824,-1.4824,-1.4824,-1.4824,-1.4866,-1.4985,-1.5061,-1.5304,-1.6157,-1.6486,-1.6772,-1.7496,-1.7698,-1.7827,-1.7948,-1.9076,-2.002,-1.9981,-1.9981,-1.9942,-1.9902,-1.9902,-1.9902,-1.9902,-1.9902,-1.9902,-1.9902,-1.9902,-1.9824,-1.9676,-1.9676,-1.9597,-1.942,-1.9548,-1.9676,-1.9676,-2.0193,-2.0453,-2.0453,-2.0453,-2.0165,-1.9564,-1.9014,-1.8575,-1.8218,-1.8132,-1.7922,0.0,0.0,0.0,-1.5398,0.0,0.0,0.0,-1.6471,-1.6972,0.0,0.0,0.0,0.0,0.0,0.0,0.0,0.0,0.0,0.0,0.0,0.0,0.0,0.0,0.0,-1.9356,-1.9301,-1.9301,-1.9301,-1.8895,-1.8287,-1.7391,-1.6535,-1.5636,-1.4783,-1.4334,-1.4088,-1.4088,-1.4088,-1.4088,-1.4088,-1.4088,-1.4088,-1.4088,-1.4088,-1.4088,-1.4088,-1.4088,-1.4088,-1.4088,-1.4088,-1.4166,-1.4243,-1.437,-1.4447,-1.4566,-1.4566,-1.4608,-1.4692,-1.4692,-1.4692,-1.4692,-1.4692,-1.4692,-1.4692,-1.4692,-1.4692,-1.4692,-1.4566,-1.4608,-1.4692,-1.4566,-1.4608,-1.4817,-1.5269,-1.5594,-1.5966,-1.6412,-1.678,-1.7017,-1.7017,-1.7706,-1.8479,-1.9006,-1.946,-1.9715,-1.9618,-1.9578,-1.9578,-1.9578,-1.9578,-1.9578,-1.9578,-1.9578,-1.9548,-1.9469,-1.9429,-1.9429,-1.9301,-1.939,-1.9429,-1.9429,-1.9956,-2.0344,-2.0549,-2.0549,-2.0272,-1.9752,-1.9464,-1.9097,-1.8701,-1.8493,-1.818,0.0,0.0,0.0,0.0,0.0,-1.5181,0.0,0.0,0.0,0.0,0.0,0.0,0.0,0.0,0.0,0.0,0.0,0.0,0.0,0.0,0.0,0.0,0.0,0.0,0.0,-1.9301,-1.9301,-1.9301,-1.8487,-1.7917,-1.7755,-1.6247,-1.5311,-1.5151,-1.4454,-1.4088,-1.4088,-1.4088,-1.4088,-1.4088,-1.4088,-1.4088,-1.4088,-1.4088,-1.4088,-1.4088,-1.4088,-1.4088,-1.4088,-1.4088,-1.4088,-1.4088,-1.4088,-1.4201,-1.4356,-1.4356,-1.444,-1.4573,-1.4573,-1.4573,-1.4573,-1.4573,-1.4573,-1.4573,-1.4573,-1.4573,-1.4531,-1.4398,-1.4447,-1.4531,-1.4398,-1.4447,-1.4573,-1.4573,-1.4992,-1.5401,-1.5401,-1.5809,-1.6206,-1.6206,-1.6329,-1.6813,-1.802,-1.8847,-1.9271,-1.9301,-1.9301,-1.9301,-1.9301,-1.9301,-1.9301,-1.9301,-1.9301,-1.9301,-1.9301,-1.9301,-1.9301,-1.9301,-1.9301,-1.9301,-1.9301,-1.9778,-2.0149,-2.047,-2.0594,-2.0438,-2.0003,-1.993,-1.9632,-1.9174,-1.8845,-1.8469,0.0,0.0,0.0,0.0,-1.5008,0.0,0.0,0.0,0.0,0.0,0.0,0.0,0.0,0.0,0.0,0.0,0.0,0.0,0.0,0.0,0.0,0.0,0.0,0.0,0.0,-1.9301,-1.9301,-1.9301,-1.8487,-1.7674,-1.6903,-1.5925,-1.5068,-1.425,-1.413,-1.4088,-1.4088,-1.4088,-1.4088,-1.4088,-1.4088,-1.4088,-1.4088,-1.4088,-1.4088,-1.4088,-1.4088,-1.4088,-1.4088,-1.4088,-1.4088,-1.4088,-1.4088,-1.413,-1.4124,-1.4124,-1.4166,-1.4173,-1.4173,-1.4173,-1.4173,-1.4173,-1.4173,-1.4173,-1.4173,-1.4173,-1.4166,-1.413,-1.4166,-1.4166,-1.413,-1.4166,-1.4173,-1.4173,-1.4208,-1.4292,-1.4292,-1.4334,-1.4412,-1.4412,-1.5026,-1.609,-1.7755,-1.8118,-1.8447,-1.9183,-1.9301,-1.9301,-1.9301,-1.9301,-1.9301,-1.9301,-1.9301,-1.9301,-1.9301,-1.9301,-1.9301,-1.9301,-1.9301,-1.9301,-1.9301,-2.0044,-2.0466,-2.0521,-2.086,-2.0842,-2.0448,-2.0058,-1.9512,-1.8791,-1.8707,-1.8468,0.0,0.0,0.0,0.0,0.0,0.0,-1.4499,0.0,-1.4499,0.0,0.0,0.0,0.0,0.0,0.0,0.0,0.0,0.0,0.0,0.0,0.0,0.0,0.0,0.0,0.0,0.0,0.0,0.0,-1.6984,-1.6329,-1.5966,-1.511,-1.4496,-1.413,-1.4088,-1.4088,-1.4088,-1.4088,-1.4088,-1.4088,-1.4088,-1.4088,-1.4088,-1.4088,-1.4088,-1.4088,-1.4088,-1.4088,-1.4088,-1.4088,-1.4088,-1.4088,-1.4088,-1.4088,-1.4088,-1.4088,-1.4088,-1.4088,-1.4088,-1.4088,-1.4088,-1.4088,-1.4088,-1.4088,-1.4088,-1.4088,-1.4088,-1.4088,-1.4088,-1.4088,-1.4088,-1.4088,-1.4088,-1.4088,-1.4088,-1.4088,-1.4088,-1.4088,-1.4088,-1.4088,-1.4412,-1.5026,-1.6288,-1.735,-1.8278,-1.9183,-1.9301,-1.9301,-1.9301,-1.9301,-1.9301,-1.9301,-1.9301,-1.9301,-1.9301,-1.9301,-1.9301,-1.9301,-1.9301,-1.9412,-1.9659,-1.9957,-2.0241,-2.0512,-2.0906,-2.0915,-2.0521,-2.0543,-2.0319,-1.9751,-1.9274,-1.8843,-1.4142,0.0,0.0,0.0,0.0,0.0,0.0,0.0,0.0,0.0,0.0,0.0,0.0,0.0,0.0,0.0,0.0,0.0,0.0,0.0,0.0,0.0,0.0,0.0,0.0,0.0,0.0,-1.6739,-1.5884,-1.5394,-1.5394,-1.458,-1.4088,-1.4088,-1.4088,-1.4088,-1.4088,-1.4088,-1.4088,-1.4088,-1.4088,-1.4088,-1.4088,-1.4088,-1.4088,-1.4088,-1.4088,-1.4088,-1.4088,-1.4088,-1.4088,-1.4088,-1.4088,-1.4088,-1.4088,-1.4088,-1.4088,-1.4088,-1.4088,-1.4088,-1.4088,-1.4088,-1.4088,-1.4088,-1.4088,-1.4088,-1.4088,-1.4088,-1.4088,-1.4088,-1.4088,-1.4088,-1.4088,-1.4088,-1.4088,-1.4088,-1.4088,-1.4088,-1.4088,-1.4088,-1.4088,-1.4454,-1.5553,-1.6617,-1.7666,-1.8767,-1.8935,-1.9015,-1.9262,-1.9301,-1.9301,-1.9301,-1.9301,-1.9301,-1.9301,-1.9301,-1.9301,-1.9301,-1.9301,-1.9439,-1.9701,-1.9829,-2.0021,-2.0314,-2.0741,-2.0805,-2.0521,-2.0695,-2.064,-2.0296,-1.9751,-1.932,0.0,0.0,0.0,-1.4088,0.0,0.0,0.0,0.0,-1.4088,0.0,0.0,0.0,0.0,0.0,0.0,0.0,0.0,0.0,0.0,0.0,0.0,0.0,0.0,0.0,0.0,0.0,0.0,-1.6698,-1.5884,-1.5394,-1.5394,-1.458,-1.4088,-1.4088,-1.4088,-1.4088,-1.4088,-1.4088,-1.4088,-1.4088,-1.4088,-1.4088,-1.4088,-1.4088,-1.4088,-1.4088,-1.4088,-1.4088,-1.4088,-1.4088,-1.4088,-1.4088,-1.4088,-1.4088,-1.4088,-1.4088,-1.4088,-1.4088,-1.4088,-1.4088,-1.4088,-1.4088,-1.4088,-1.4088,-1.4088,-1.4088,-1.4088,-1.4088,-1.4088,-1.4088,-1.4088,-1.4088,-1.4088,-1.4088,-1.4088,-1.4088,-1.4088,-1.4088,-1.4088,-1.4088,-1.4088,-1.4664,-1.637,-1.6008,-1.609,-1.7796,-1.8037,-1.8367,-1.9183,-1.9301,-1.9301,-1.9301,-1.9301,-1.9301,-1.9301,-1.9301,-1.9301,-1.9301,-1.9301,-1.9311,-1.932,-1.9674,-1.9893,-1.9902,-2.0296,-2.053,-2.0521,-2.0104,-1.9921,-1.9902,-1.9875,-1.9866,0.0,0.0,-1.4088,-1.4088,0.0,0.0,0.0,0.0,0.0,0.0,0.0,0.0,0.0,0.0,0.0,0.0,0.0,0.0,0.0,0.0,0.0,0.0,0.0,0.0,0.0,0.0,0.0,-1.5026,-1.4699,-1.4538,-1.4538,-1.425,-1.4088,-1.4088,-1.4088,-1.4088,-1.4088,-1.4088,-1.4088,-1.4088,-1.4088,-1.4088,-1.4088,-1.4088,-1.4088,-1.4088,-1.4088,-1.4088,-1.4088,-1.4088,-1.4088,-1.4088,-1.4088,-1.4088,-1.4088,-1.4088,-1.4088,-1.4088,-1.4088,-1.4088,-1.4088,-1.4088,-1.4088,-1.4088,-1.4088,-1.4088,-1.4088,-1.4088,-1.4088,-1.4088,-1.4088,-1.4088,-1.4088,-1.4088,-1.4088,-1.4088,-1.4088,-1.4088,-1.4088,-1.4088,-1.4088,-1.4292,-1.4866,-1.4741,-1.5519,-1.8399,-1.8856,-1.8975,-1.9262,-1.9301,-1.9301,-1.9301,-1.9301,-1.9301,-1.9301,-1.9301,-1.9301,-1.9301,-1.9301,-1.9301,-1.9301,-1.9439,-1.9512,-1.9512,-1.9916,-2.0085,-2.0085,-2.0214,-2.0278,-2.0278,-2.0012,-1.9778,-1.387,-1.3913,0.0,-1.387,-1.387,0.0,-1.3955,0.0,0.0,0.0,0.0,0.0,0.0,0.0,0.0,0.0,0.0,0.0,0.0,0.0,0.0,0.0,0.0,0.0,0.0,0.0,-1.4699,-1.413,-1.4088,-1.4088,0.0,0.0,-1.4088,-1.4088,-1.4088,-1.4088,-1.4088,-1.4088,-1.4088,-1.4088,-1.4088,-1.4088,-1.4088,-1.4088,-1.4088,-1.4088,-1.4088,-1.4088,-1.4088,-1.4088,-1.4088,-1.4088,-1.4088,-1.4088,-1.4088,-1.4088,-1.4088,-1.4088,-1.4088,-1.4088,-1.4088,-1.4088,-1.4088,-1.4088,-1.4088,-1.4088,-1.4088,-1.4088,-1.4088,-1.4088,-1.4088,-1.4088,-1.4088,-1.4088,-1.4088,-1.4088,-1.4088,-1.4088,-1.4088,-1.4088,-1.4088,-1.4208,-1.4496,-1.458,-1.5436,-1.7997,-1.8367,-1.8607,-1.9222,-1.9301,-1.9301,-1.9301,-1.9301,-1.9301,-1.9301,-1.9301,-1.9301,-1.9301,-1.9301,-1.9301,-1.9301,-1.9301,-1.9439,-1.9732,-1.9714,-1.9852,-2.0095,-2.0108,-2.0081,-2.0081,-1.9824,-1.9567]}]]